<?xml version="1.0" encoding="utf-8"?>
<gpx xmlns:xsi="http://www.w3.org/2001/XMLSchema-instance" xmlns:xsd="http://www.w3.org/2001/XMLSchema" version="1.1" creator="Shapelink.com" xmlns="http://www.topografix.com/GPX/1/1" xmlns:gpxtpx="http://www.garmin.com/xmlschemas/TrackPointExtension/v1">
  <metadata>
    <name>Løping 6.85 km, 2012-10-05</name>
    <desc></desc>
    <author><name>Mikael Blom</name></author> 
    <time>2012-10-05T19:43:14Z</time>
  </metadata>
  <trk>
    <name>Løping 6.85 km, 2012-10-05</name>
    <trkseg>
      <trkpt lat="59.9789112" lon="17.7395021">
        <ele>28.4962</ele>
        <time>2012-10-05T19:43:14Z</time>
      </trkpt>
      <trkpt lat="59.978897" lon="17.7394938">
        <ele>28.9769</ele>
        <time>2012-10-05T19:43:15Z</time>
      </trkpt>
      <trkpt lat="59.9788801" lon="17.7395003">
        <ele>28.4962</ele>
        <time>2012-10-05T19:43:16Z</time>
      </trkpt>
      <trkpt lat="59.9788553" lon="17.7395124">
        <ele>28.0155</ele>
        <time>2012-10-05T19:43:17Z</time>
      </trkpt>
      <trkpt lat="59.9788252" lon="17.7394978">
        <ele>28.4962</ele>
        <time>2012-10-05T19:43:18Z</time>
      </trkpt>
      <trkpt lat="59.9787883" lon="17.7394648">
        <ele>29.4575</ele>
        <time>2012-10-05T19:43:19Z</time>
      </trkpt>
      <trkpt lat="59.9787439" lon="17.7394294">
        <ele>29.9381</ele>
        <time>2012-10-05T19:43:20Z</time>
      </trkpt>
      <trkpt lat="59.9787061" lon="17.7394056">
        <ele>30.4188</ele>
        <time>2012-10-05T19:43:21Z</time>
      </trkpt>
      <trkpt lat="59.9786697" lon="17.7393909">
        <ele>30.8995</ele>
        <time>2012-10-05T19:43:22Z</time>
      </trkpt>
      <trkpt lat="59.9786237" lon="17.7393693">
        <ele>31.8607</ele>
        <time>2012-10-05T19:43:23Z</time>
      </trkpt>
      <trkpt lat="59.9785849" lon="17.7393621">
        <ele>32.8223</ele>
        <time>2012-10-05T19:43:24Z</time>
      </trkpt>
      <trkpt lat="59.9785357" lon="17.7393409">
        <ele>34.7449</ele>
        <time>2012-10-05T19:43:25Z</time>
      </trkpt>
      <trkpt lat="59.9784878" lon="17.7393249">
        <ele>37.1481</ele>
        <time>2012-10-05T19:43:26Z</time>
      </trkpt>
      <trkpt lat="59.9784506" lon="17.739331">
        <ele>37.6287</ele>
        <time>2012-10-05T19:43:27Z</time>
      </trkpt>
      <trkpt lat="59.9784158" lon="17.7393397">
        <ele>38.1094</ele>
        <time>2012-10-05T19:43:28Z</time>
      </trkpt>
      <trkpt lat="59.9783906" lon="17.7393487">
        <ele>38.1094</ele>
        <time>2012-10-05T19:43:29Z</time>
      </trkpt>
      <trkpt lat="59.9783648" lon="17.7393547">
        <ele>38.5901</ele>
        <time>2012-10-05T19:43:30Z</time>
      </trkpt>
      <trkpt lat="59.9783313" lon="17.7393437">
        <ele>38.5901</ele>
        <time>2012-10-05T19:43:31Z</time>
      </trkpt>
      <trkpt lat="59.9783141" lon="17.7393558">
        <ele>37.6287</ele>
        <time>2012-10-05T19:43:32Z</time>
      </trkpt>
      <trkpt lat="59.9782969" lon="17.7393612">
        <ele>36.6675</ele>
        <time>2012-10-05T19:43:33Z</time>
      </trkpt>
      <trkpt lat="59.9782751" lon="17.7393637">
        <ele>36.1868</ele>
        <time>2012-10-05T19:43:34Z</time>
      </trkpt>
      <trkpt lat="59.9782632" lon="17.7393821">
        <ele>34.7449</ele>
        <time>2012-10-05T19:43:35Z</time>
      </trkpt>
      <trkpt lat="59.9782352" lon="17.7393733">
        <ele>35.2255</ele>
        <time>2012-10-05T19:43:36Z</time>
      </trkpt>
      <trkpt lat="59.9782052" lon="17.7393713">
        <ele>35.7061</ele>
        <time>2012-10-05T19:43:37Z</time>
      </trkpt>
      <trkpt lat="59.9781825" lon="17.7393854">
        <ele>34.7449</ele>
        <time>2012-10-05T19:43:38Z</time>
      </trkpt>
      <trkpt lat="59.9781523" lon="17.7393808">
        <ele>34.7449</ele>
        <time>2012-10-05T19:43:39Z</time>
      </trkpt>
      <trkpt lat="59.9780979" lon="17.7393414">
        <ele>36.1868</ele>
        <time>2012-10-05T19:43:40Z</time>
      </trkpt>
      <trkpt lat="59.9780497" lon="17.7392915">
        <ele>37.6287</ele>
        <time>2012-10-05T19:43:41Z</time>
      </trkpt>
      <trkpt lat="59.9780043" lon="17.7392496">
        <ele>39.5513</ele>
        <time>2012-10-05T19:43:42Z</time>
      </trkpt>
      <trkpt lat="59.9779579" lon="17.7392139">
        <ele>42.4354</ele>
        <time>2012-10-05T19:43:43Z</time>
      </trkpt>
      <trkpt lat="59.9778872" lon="17.7391637">
        <ele>44.8386</ele>
        <time>2012-10-05T19:43:45Z</time>
      </trkpt>
      <trkpt lat="59.9778636" lon="17.7391331">
        <ele>45.3192</ele>
        <time>2012-10-05T19:43:46Z</time>
      </trkpt>
      <trkpt lat="59.9778512" lon="17.7391208">
        <ele>44.358</ele>
        <time>2012-10-05T19:43:47Z</time>
      </trkpt>
      <trkpt lat="59.9778449" lon="17.7391347">
        <ele>42.4354</ele>
        <time>2012-10-05T19:43:48Z</time>
      </trkpt>
      <trkpt lat="59.9778242" lon="17.7391244">
        <ele>41.9547</ele>
        <time>2012-10-05T19:43:49Z</time>
      </trkpt>
      <trkpt lat="59.9777981" lon="17.739108">
        <ele>41.9547</ele>
        <time>2012-10-05T19:43:50Z</time>
      </trkpt>
      <trkpt lat="59.9777791" lon="17.7391086">
        <ele>40.9934</ele>
        <time>2012-10-05T19:43:51Z</time>
      </trkpt>
      <trkpt lat="59.9777509" lon="17.7390938">
        <ele>40.5128</ele>
        <time>2012-10-05T19:43:52Z</time>
      </trkpt>
      <trkpt lat="59.9777211" lon="17.7390766">
        <ele>40.5128</ele>
        <time>2012-10-05T19:43:53Z</time>
      </trkpt>
      <trkpt lat="59.9776996" lon="17.7390658">
        <ele>40.0321</ele>
        <time>2012-10-05T19:43:54Z</time>
      </trkpt>
      <trkpt lat="59.9776809" lon="17.7390497">
        <ele>39.5513</ele>
        <time>2012-10-05T19:43:55Z</time>
      </trkpt>
      <trkpt lat="59.9776686" lon="17.7390474">
        <ele>38.5901</ele>
        <time>2012-10-05T19:43:56Z</time>
      </trkpt>
      <trkpt lat="59.977653" lon="17.7390455">
        <ele>37.6287</ele>
        <time>2012-10-05T19:43:57Z</time>
      </trkpt>
      <trkpt lat="59.9776363" lon="17.7390506">
        <ele>36.6675</ele>
        <time>2012-10-05T19:43:58Z</time>
      </trkpt>
      <trkpt lat="59.977616" lon="17.7390596">
        <ele>35.7061</ele>
        <time>2012-10-05T19:43:59Z</time>
      </trkpt>
      <trkpt lat="59.9775887" lon="17.7390746">
        <ele>35.2255</ele>
        <time>2012-10-05T19:44:00Z</time>
      </trkpt>
      <trkpt lat="59.9775645" lon="17.7391011">
        <ele>34.2642</ele>
        <time>2012-10-05T19:44:01Z</time>
      </trkpt>
      <trkpt lat="59.9775473" lon="17.7391179">
        <ele>33.7834</ele>
        <time>2012-10-05T19:44:02Z</time>
      </trkpt>
      <trkpt lat="59.977528" lon="17.7391358">
        <ele>32.8223</ele>
        <time>2012-10-05T19:44:03Z</time>
      </trkpt>
      <trkpt lat="59.9774984" lon="17.739145">
        <ele>32.3416</ele>
        <time>2012-10-05T19:44:04Z</time>
      </trkpt>
      <trkpt lat="59.9774832" lon="17.7391864">
        <ele>31.3801</ele>
        <time>2012-10-05T19:44:05Z</time>
      </trkpt>
      <trkpt lat="59.9774654" lon="17.7392138">
        <ele>30.4188</ele>
        <time>2012-10-05T19:44:06Z</time>
      </trkpt>
      <trkpt lat="59.9774378" lon="17.7392251">
        <ele>30.4188</ele>
        <time>2012-10-05T19:44:07Z</time>
      </trkpt>
      <trkpt lat="59.9774117" lon="17.7392403">
        <ele>30.4188</ele>
        <time>2012-10-05T19:44:08Z</time>
      </trkpt>
      <trkpt lat="59.9773896" lon="17.7392761">
        <ele>29.9381</ele>
        <time>2012-10-05T19:44:09Z</time>
      </trkpt>
      <trkpt lat="59.9773655" lon="17.7393108">
        <ele>28.9769</ele>
        <time>2012-10-05T19:44:10Z</time>
      </trkpt>
      <trkpt lat="59.9773381" lon="17.7393398">
        <ele>28.9769</ele>
        <time>2012-10-05T19:44:11Z</time>
      </trkpt>
      <trkpt lat="59.9773124" lon="17.7393605">
        <ele>28.9769</ele>
        <time>2012-10-05T19:44:12Z</time>
      </trkpt>
      <trkpt lat="59.9772753" lon="17.7393534">
        <ele>29.9381</ele>
        <time>2012-10-05T19:44:13Z</time>
      </trkpt>
      <trkpt lat="59.9772332" lon="17.7393408">
        <ele>30.8995</ele>
        <time>2012-10-05T19:44:14Z</time>
      </trkpt>
      <trkpt lat="59.9772014" lon="17.739346">
        <ele>30.8995</ele>
        <time>2012-10-05T19:44:15Z</time>
      </trkpt>
      <trkpt lat="59.9771603" lon="17.7393284">
        <ele>31.8607</ele>
        <time>2012-10-05T19:44:16Z</time>
      </trkpt>
      <trkpt lat="59.9771349" lon="17.7393578">
        <ele>31.8607</ele>
        <time>2012-10-05T19:44:17Z</time>
      </trkpt>
      <trkpt lat="59.9771081" lon="17.7393684">
        <ele>31.8607</ele>
        <time>2012-10-05T19:44:18Z</time>
      </trkpt>
      <trkpt lat="59.9770863" lon="17.7394005">
        <ele>31.8607</ele>
        <time>2012-10-05T19:44:19Z</time>
      </trkpt>
      <trkpt lat="59.9770681" lon="17.7394243">
        <ele>31.3801</ele>
        <time>2012-10-05T19:44:20Z</time>
      </trkpt>
      <trkpt lat="59.9770513" lon="17.7394392">
        <ele>30.8995</ele>
        <time>2012-10-05T19:44:21Z</time>
      </trkpt>
      <trkpt lat="59.9770319" lon="17.7394376">
        <ele>30.8995</ele>
        <time>2012-10-05T19:44:22Z</time>
      </trkpt>
      <trkpt lat="59.9770174" lon="17.7394554">
        <ele>30.4188</ele>
        <time>2012-10-05T19:44:23Z</time>
      </trkpt>
      <trkpt lat="59.9769882" lon="17.7394506">
        <ele>31.3801</ele>
        <time>2012-10-05T19:44:24Z</time>
      </trkpt>
      <trkpt lat="59.9769666" lon="17.7394596">
        <ele>31.3801</ele>
        <time>2012-10-05T19:44:25Z</time>
      </trkpt>
      <trkpt lat="59.9769398" lon="17.7394772">
        <ele>31.8607</ele>
        <time>2012-10-05T19:44:26Z</time>
      </trkpt>
      <trkpt lat="59.9769054" lon="17.7394833">
        <ele>31.8607</ele>
        <time>2012-10-05T19:44:27Z</time>
      </trkpt>
      <trkpt lat="59.9768775" lon="17.7394872">
        <ele>31.3801</ele>
        <time>2012-10-05T19:44:28Z</time>
      </trkpt>
      <trkpt lat="59.9768516" lon="17.7394934">
        <ele>30.8995</ele>
        <time>2012-10-05T19:44:29Z</time>
      </trkpt>
      <trkpt lat="59.9768291" lon="17.7395056">
        <ele>30.4188</ele>
        <time>2012-10-05T19:44:30Z</time>
      </trkpt>
      <trkpt lat="59.9767914" lon="17.7395043">
        <ele>31.8607</ele>
        <time>2012-10-05T19:44:31Z</time>
      </trkpt>
      <trkpt lat="59.9767485" lon="17.7394966">
        <ele>33.3029</ele>
        <time>2012-10-05T19:44:32Z</time>
      </trkpt>
      <trkpt lat="59.9767217" lon="17.7395269">
        <ele>32.8223</ele>
        <time>2012-10-05T19:44:33Z</time>
      </trkpt>
      <trkpt lat="59.9766916" lon="17.7395444">
        <ele>32.8223</ele>
        <time>2012-10-05T19:44:34Z</time>
      </trkpt>
      <trkpt lat="59.9766725" lon="17.7395526">
        <ele>31.8607</ele>
        <time>2012-10-05T19:44:35Z</time>
      </trkpt>
      <trkpt lat="59.9766546" lon="17.7395759">
        <ele>31.3801</ele>
        <time>2012-10-05T19:44:36Z</time>
      </trkpt>
      <trkpt lat="59.9766315" lon="17.7395962">
        <ele>30.8995</ele>
        <time>2012-10-05T19:44:37Z</time>
      </trkpt>
      <trkpt lat="59.9766054" lon="17.7396193">
        <ele>31.8607</ele>
        <time>2012-10-05T19:44:38Z</time>
      </trkpt>
      <trkpt lat="59.9765929" lon="17.7396532">
        <ele>30.8995</ele>
        <time>2012-10-05T19:44:39Z</time>
      </trkpt>
      <trkpt lat="59.9765813" lon="17.7396826">
        <ele>29.9381</ele>
        <time>2012-10-05T19:44:40Z</time>
      </trkpt>
      <trkpt lat="59.9765693" lon="17.7397251">
        <ele>29.4575</ele>
        <time>2012-10-05T19:44:41Z</time>
      </trkpt>
      <trkpt lat="59.9765539" lon="17.739762">
        <ele>28.4962</ele>
        <time>2012-10-05T19:44:42Z</time>
      </trkpt>
      <trkpt lat="59.9765427" lon="17.7398039">
        <ele>28.0155</ele>
        <time>2012-10-05T19:44:43Z</time>
      </trkpt>
      <trkpt lat="59.9765277" lon="17.7398338">
        <ele>27.0543</ele>
        <time>2012-10-05T19:44:44Z</time>
      </trkpt>
      <trkpt lat="59.9765082" lon="17.7398412">
        <ele>26.0929</ele>
        <time>2012-10-05T19:44:45Z</time>
      </trkpt>
      <trkpt lat="59.9764885" lon="17.7398635">
        <ele>25.1317</ele>
        <time>2012-10-05T19:44:46Z</time>
      </trkpt>
      <trkpt lat="59.9764648" lon="17.739881">
        <ele>25.1317</ele>
        <time>2012-10-05T19:44:47Z</time>
      </trkpt>
      <trkpt lat="59.9764393" lon="17.7398832">
        <ele>24.651</ele>
        <time>2012-10-05T19:44:48Z</time>
      </trkpt>
      <trkpt lat="59.9764186" lon="17.7398942">
        <ele>24.651</ele>
        <time>2012-10-05T19:44:49Z</time>
      </trkpt>
      <trkpt lat="59.9763957" lon="17.7399283">
        <ele>24.1703</ele>
        <time>2012-10-05T19:44:50Z</time>
      </trkpt>
      <trkpt lat="59.9763533" lon="17.7399164">
        <ele>24.1703</ele>
        <time>2012-10-05T19:44:51Z</time>
      </trkpt>
      <trkpt lat="59.9763261" lon="17.73994">
        <ele>24.1703</ele>
        <time>2012-10-05T19:44:52Z</time>
      </trkpt>
      <trkpt lat="59.9763065" lon="17.739965">
        <ele>24.1703</ele>
        <time>2012-10-05T19:44:53Z</time>
      </trkpt>
      <trkpt lat="59.9762833" lon="17.7399862">
        <ele>24.1703</ele>
        <time>2012-10-05T19:44:54Z</time>
      </trkpt>
      <trkpt lat="59.9762614" lon="17.739998">
        <ele>23.6896</ele>
        <time>2012-10-05T19:44:55Z</time>
      </trkpt>
      <trkpt lat="59.9762353" lon="17.7399894">
        <ele>24.1703</ele>
        <time>2012-10-05T19:44:56Z</time>
      </trkpt>
      <trkpt lat="59.9762036" lon="17.7399671">
        <ele>24.1703</ele>
        <time>2012-10-05T19:44:57Z</time>
      </trkpt>
      <trkpt lat="59.9761723" lon="17.7399381">
        <ele>24.1703</ele>
        <time>2012-10-05T19:44:58Z</time>
      </trkpt>
      <trkpt lat="59.9761486" lon="17.7399118">
        <ele>24.651</ele>
        <time>2012-10-05T19:44:59Z</time>
      </trkpt>
      <trkpt lat="59.976132" lon="17.7398946">
        <ele>24.1703</ele>
        <time>2012-10-05T19:45:00Z</time>
      </trkpt>
      <trkpt lat="59.9761197" lon="17.7398765">
        <ele>23.6896</ele>
        <time>2012-10-05T19:45:01Z</time>
      </trkpt>
      <trkpt lat="59.9761036" lon="17.7398148">
        <ele>22.7283</ele>
        <time>2012-10-05T19:45:02Z</time>
      </trkpt>
      <trkpt lat="59.9760917" lon="17.7397826">
        <ele>21.767</ele>
        <time>2012-10-05T19:45:03Z</time>
      </trkpt>
      <trkpt lat="59.9760692" lon="17.7397303">
        <ele>21.767</ele>
        <time>2012-10-05T19:45:04Z</time>
      </trkpt>
      <trkpt lat="59.9760535" lon="17.7396939">
        <ele>21.2864</ele>
        <time>2012-10-05T19:45:05Z</time>
      </trkpt>
      <trkpt lat="59.9760253" lon="17.7396367">
        <ele>21.767</ele>
        <time>2012-10-05T19:45:06Z</time>
      </trkpt>
      <trkpt lat="59.9760016" lon="17.7395905">
        <ele>21.2864</ele>
        <time>2012-10-05T19:45:07Z</time>
      </trkpt>
      <trkpt lat="59.9759907" lon="17.7395548">
        <ele>20.325</ele>
        <time>2012-10-05T19:45:08Z</time>
      </trkpt>
      <trkpt lat="59.9759789" lon="17.73952">
        <ele>19.8444</ele>
        <time>2012-10-05T19:45:09Z</time>
      </trkpt>
      <trkpt lat="59.9759628" lon="17.7394802">
        <ele>19.8444</ele>
        <time>2012-10-05T19:45:10Z</time>
      </trkpt>
      <trkpt lat="59.9759523" lon="17.7394521">
        <ele>19.3638</ele>
        <time>2012-10-05T19:45:11Z</time>
      </trkpt>
      <trkpt lat="59.9759435" lon="17.7394299">
        <ele>18.4023</ele>
        <time>2012-10-05T19:45:12Z</time>
      </trkpt>
      <trkpt lat="59.9759249" lon="17.7393884">
        <ele>18.8831</ele>
        <time>2012-10-05T19:45:13Z</time>
      </trkpt>
      <trkpt lat="59.9759021" lon="17.7393375">
        <ele>19.3638</ele>
        <time>2012-10-05T19:45:14Z</time>
      </trkpt>
      <trkpt lat="59.9758877" lon="17.7393002">
        <ele>19.3638</ele>
        <time>2012-10-05T19:45:15Z</time>
      </trkpt>
      <trkpt lat="59.9758777" lon="17.739273">
        <ele>19.3638</ele>
        <time>2012-10-05T19:45:16Z</time>
      </trkpt>
      <trkpt lat="59.9758674" lon="17.7392415">
        <ele>19.3638</ele>
        <time>2012-10-05T19:45:17Z</time>
      </trkpt>
      <trkpt lat="59.9758563" lon="17.739205">
        <ele>18.8831</ele>
        <time>2012-10-05T19:45:18Z</time>
      </trkpt>
      <trkpt lat="59.9758333" lon="17.7391653">
        <ele>19.3638</ele>
        <time>2012-10-05T19:45:19Z</time>
      </trkpt>
      <trkpt lat="59.975815" lon="17.7391305">
        <ele>19.3638</ele>
        <time>2012-10-05T19:45:20Z</time>
      </trkpt>
      <trkpt lat="59.9758035" lon="17.7390956">
        <ele>18.8831</ele>
        <time>2012-10-05T19:45:21Z</time>
      </trkpt>
      <trkpt lat="59.975785" lon="17.7390591">
        <ele>19.3638</ele>
        <time>2012-10-05T19:45:22Z</time>
      </trkpt>
      <trkpt lat="59.9757627" lon="17.7390263">
        <ele>19.8444</ele>
        <time>2012-10-05T19:45:23Z</time>
      </trkpt>
      <trkpt lat="59.9757489" lon="17.7389982">
        <ele>19.8444</ele>
        <time>2012-10-05T19:45:24Z</time>
      </trkpt>
      <trkpt lat="59.9757275" lon="17.7389575">
        <ele>20.8057</ele>
        <time>2012-10-05T19:45:25Z</time>
      </trkpt>
      <trkpt lat="59.9757069" lon="17.7389233">
        <ele>20.8057</ele>
        <time>2012-10-05T19:45:26Z</time>
      </trkpt>
      <trkpt lat="59.9756886" lon="17.7388923">
        <ele>20.8057</ele>
        <time>2012-10-05T19:45:27Z</time>
      </trkpt>
      <trkpt lat="59.9756607" lon="17.7388471">
        <ele>21.767</ele>
        <time>2012-10-05T19:45:28Z</time>
      </trkpt>
      <trkpt lat="59.9756308" lon="17.7388057">
        <ele>22.7283</ele>
        <time>2012-10-05T19:45:29Z</time>
      </trkpt>
      <trkpt lat="59.9756077" lon="17.7387715">
        <ele>23.209</ele>
        <time>2012-10-05T19:45:30Z</time>
      </trkpt>
      <trkpt lat="59.9755882" lon="17.738728">
        <ele>23.209</ele>
        <time>2012-10-05T19:45:31Z</time>
      </trkpt>
      <trkpt lat="59.9755616" lon="17.7386799">
        <ele>24.1703</ele>
        <time>2012-10-05T19:45:32Z</time>
      </trkpt>
      <trkpt lat="59.9755452" lon="17.7386482">
        <ele>24.1703</ele>
        <time>2012-10-05T19:45:33Z</time>
      </trkpt>
      <trkpt lat="59.9755268" lon="17.7386098">
        <ele>24.651</ele>
        <time>2012-10-05T19:45:34Z</time>
      </trkpt>
      <trkpt lat="59.975499" lon="17.7385612">
        <ele>25.1317</ele>
        <time>2012-10-05T19:45:35Z</time>
      </trkpt>
      <trkpt lat="59.975474" lon="17.7385176">
        <ele>25.6123</ele>
        <time>2012-10-05T19:45:36Z</time>
      </trkpt>
      <trkpt lat="59.9754476" lon="17.7384683">
        <ele>26.0929</ele>
        <time>2012-10-05T19:45:37Z</time>
      </trkpt>
      <trkpt lat="59.9754229" lon="17.7384204">
        <ele>27.0543</ele>
        <time>2012-10-05T19:45:38Z</time>
      </trkpt>
      <trkpt lat="59.9754013" lon="17.7383825">
        <ele>27.0543</ele>
        <time>2012-10-05T19:45:39Z</time>
      </trkpt>
      <trkpt lat="59.9753829" lon="17.7383535">
        <ele>27.0543</ele>
        <time>2012-10-05T19:45:40Z</time>
      </trkpt>
      <trkpt lat="59.9753642" lon="17.7383255">
        <ele>27.5349</ele>
        <time>2012-10-05T19:45:41Z</time>
      </trkpt>
      <trkpt lat="59.9753396" lon="17.7382829">
        <ele>28.0155</ele>
        <time>2012-10-05T19:45:42Z</time>
      </trkpt>
      <trkpt lat="59.9753119" lon="17.738245">
        <ele>28.4962</ele>
        <time>2012-10-05T19:45:43Z</time>
      </trkpt>
      <trkpt lat="59.9752891" lon="17.7382096">
        <ele>28.9769</ele>
        <time>2012-10-05T19:45:44Z</time>
      </trkpt>
      <trkpt lat="59.9752722" lon="17.7381764">
        <ele>28.9769</ele>
        <time>2012-10-05T19:45:45Z</time>
      </trkpt>
      <trkpt lat="59.9752525" lon="17.738153">
        <ele>28.9769</ele>
        <time>2012-10-05T19:45:46Z</time>
      </trkpt>
      <trkpt lat="59.9752364" lon="17.7381328">
        <ele>28.9769</ele>
        <time>2012-10-05T19:45:47Z</time>
      </trkpt>
      <trkpt lat="59.9752209" lon="17.7381034">
        <ele>28.9769</ele>
        <time>2012-10-05T19:45:48Z</time>
      </trkpt>
      <trkpt lat="59.9752023" lon="17.7380676">
        <ele>29.4575</ele>
        <time>2012-10-05T19:45:49Z</time>
      </trkpt>
      <trkpt lat="59.975183" lon="17.7380262">
        <ele>29.4575</ele>
        <time>2012-10-05T19:45:50Z</time>
      </trkpt>
      <trkpt lat="59.9751603" lon="17.7379847">
        <ele>29.9381</ele>
        <time>2012-10-05T19:45:51Z</time>
      </trkpt>
      <trkpt lat="59.9751342" lon="17.737941">
        <ele>30.4188</ele>
        <time>2012-10-05T19:45:52Z</time>
      </trkpt>
      <trkpt lat="59.9751187" lon="17.7379168">
        <ele>30.4188</ele>
        <time>2012-10-05T19:45:53Z</time>
      </trkpt>
      <trkpt lat="59.9750961" lon="17.7378821">
        <ele>30.4188</ele>
        <time>2012-10-05T19:45:54Z</time>
      </trkpt>
      <trkpt lat="59.9750731" lon="17.7378448">
        <ele>30.4188</ele>
        <time>2012-10-05T19:45:55Z</time>
      </trkpt>
      <trkpt lat="59.9750529" lon="17.7378034">
        <ele>30.4188</ele>
        <time>2012-10-05T19:45:56Z</time>
      </trkpt>
      <trkpt lat="59.9750312" lon="17.7377614">
        <ele>30.4188</ele>
        <time>2012-10-05T19:45:57Z</time>
      </trkpt>
      <trkpt lat="59.975013" lon="17.7377232">
        <ele>30.4188</ele>
        <time>2012-10-05T19:45:58Z</time>
      </trkpt>
      <trkpt lat="59.9749917" lon="17.7376854">
        <ele>30.4188</ele>
        <time>2012-10-05T19:45:59Z</time>
      </trkpt>
      <trkpt lat="59.9749719" lon="17.7376471">
        <ele>30.4188</ele>
        <time>2012-10-05T19:46:00Z</time>
      </trkpt>
      <trkpt lat="59.9749561" lon="17.7376115">
        <ele>29.9381</ele>
        <time>2012-10-05T19:46:01Z</time>
      </trkpt>
      <trkpt lat="59.974941" lon="17.7375765">
        <ele>29.4575</ele>
        <time>2012-10-05T19:46:02Z</time>
      </trkpt>
      <trkpt lat="59.974921" lon="17.7375371">
        <ele>28.9769</ele>
        <time>2012-10-05T19:46:03Z</time>
      </trkpt>
      <trkpt lat="59.9749032" lon="17.7375064">
        <ele>28.9769</ele>
        <time>2012-10-05T19:46:04Z</time>
      </trkpt>
      <trkpt lat="59.9748794" lon="17.7374697">
        <ele>28.9769</ele>
        <time>2012-10-05T19:46:05Z</time>
      </trkpt>
      <trkpt lat="59.9748596" lon="17.7374294">
        <ele>28.9769</ele>
        <time>2012-10-05T19:46:06Z</time>
      </trkpt>
      <trkpt lat="59.9748382" lon="17.7373878">
        <ele>29.4575</ele>
        <time>2012-10-05T19:46:07Z</time>
      </trkpt>
      <trkpt lat="59.9748185" lon="17.7373412">
        <ele>29.4575</ele>
        <time>2012-10-05T19:46:08Z</time>
      </trkpt>
      <trkpt lat="59.9747988" lon="17.7372946">
        <ele>29.9381</ele>
        <time>2012-10-05T19:46:09Z</time>
      </trkpt>
      <trkpt lat="59.9747785" lon="17.7372455">
        <ele>29.9381</ele>
        <time>2012-10-05T19:46:10Z</time>
      </trkpt>
      <trkpt lat="59.9747623" lon="17.7371901">
        <ele>29.9381</ele>
        <time>2012-10-05T19:46:11Z</time>
      </trkpt>
      <trkpt lat="59.974749" lon="17.7371407">
        <ele>29.9381</ele>
        <time>2012-10-05T19:46:12Z</time>
      </trkpt>
      <trkpt lat="59.9747381" lon="17.7370994">
        <ele>29.9381</ele>
        <time>2012-10-05T19:46:13Z</time>
      </trkpt>
      <trkpt lat="59.9747253" lon="17.7370605">
        <ele>29.9381</ele>
        <time>2012-10-05T19:46:14Z</time>
      </trkpt>
      <trkpt lat="59.9747081" lon="17.7370212">
        <ele>30.4188</ele>
        <time>2012-10-05T19:46:15Z</time>
      </trkpt>
      <trkpt lat="59.9746941" lon="17.7369749">
        <ele>29.9381</ele>
        <time>2012-10-05T19:46:16Z</time>
      </trkpt>
      <trkpt lat="59.9746804" lon="17.7369254">
        <ele>30.4188</ele>
        <time>2012-10-05T19:46:17Z</time>
      </trkpt>
      <trkpt lat="59.9746646" lon="17.7368772">
        <ele>30.4188</ele>
        <time>2012-10-05T19:46:18Z</time>
      </trkpt>
      <trkpt lat="59.9746465" lon="17.7368254">
        <ele>30.4188</ele>
        <time>2012-10-05T19:46:19Z</time>
      </trkpt>
      <trkpt lat="59.9746335" lon="17.7367834">
        <ele>30.8995</ele>
        <time>2012-10-05T19:46:20Z</time>
      </trkpt>
      <trkpt lat="59.9746195" lon="17.7367382">
        <ele>30.8995</ele>
        <time>2012-10-05T19:46:21Z</time>
      </trkpt>
      <trkpt lat="59.974604" lon="17.7366907">
        <ele>31.8607</ele>
        <time>2012-10-05T19:46:22Z</time>
      </trkpt>
      <trkpt lat="59.9745914" lon="17.7366476">
        <ele>31.8607</ele>
        <time>2012-10-05T19:46:23Z</time>
      </trkpt>
      <trkpt lat="59.9745806" lon="17.7365984">
        <ele>31.8607</ele>
        <time>2012-10-05T19:46:24Z</time>
      </trkpt>
      <trkpt lat="59.974568" lon="17.7365502">
        <ele>32.3416</ele>
        <time>2012-10-05T19:46:25Z</time>
      </trkpt>
      <trkpt lat="59.9745563" lon="17.7365035">
        <ele>32.3416</ele>
        <time>2012-10-05T19:46:26Z</time>
      </trkpt>
      <trkpt lat="59.9745459" lon="17.7364525">
        <ele>32.3416</ele>
        <time>2012-10-05T19:46:27Z</time>
      </trkpt>
      <trkpt lat="59.9745349" lon="17.7364022">
        <ele>32.3416</ele>
        <time>2012-10-05T19:46:28Z</time>
      </trkpt>
      <trkpt lat="59.9745214" lon="17.7363531">
        <ele>32.8223</ele>
        <time>2012-10-05T19:46:29Z</time>
      </trkpt>
      <trkpt lat="59.9745128" lon="17.7363069">
        <ele>32.8223</ele>
        <time>2012-10-05T19:46:30Z</time>
      </trkpt>
      <trkpt lat="59.9745019" lon="17.7362611">
        <ele>33.3029</ele>
        <time>2012-10-05T19:46:31Z</time>
      </trkpt>
      <trkpt lat="59.9744908" lon="17.736208">
        <ele>33.3029</ele>
        <time>2012-10-05T19:46:32Z</time>
      </trkpt>
      <trkpt lat="59.9744807" lon="17.7361504">
        <ele>33.3029</ele>
        <time>2012-10-05T19:46:33Z</time>
      </trkpt>
      <trkpt lat="59.9744677" lon="17.7360964">
        <ele>33.7834</ele>
        <time>2012-10-05T19:46:34Z</time>
      </trkpt>
      <trkpt lat="59.9744569" lon="17.7360442">
        <ele>33.7834</ele>
        <time>2012-10-05T19:46:35Z</time>
      </trkpt>
      <trkpt lat="59.9744465" lon="17.7359966">
        <ele>33.7834</ele>
        <time>2012-10-05T19:46:36Z</time>
      </trkpt>
      <trkpt lat="59.9744345" lon="17.7359458">
        <ele>34.2642</ele>
        <time>2012-10-05T19:46:37Z</time>
      </trkpt>
      <trkpt lat="59.9744248" lon="17.7358987">
        <ele>34.2642</ele>
        <time>2012-10-05T19:46:38Z</time>
      </trkpt>
      <trkpt lat="59.9744163" lon="17.7358489">
        <ele>34.7449</ele>
        <time>2012-10-05T19:46:39Z</time>
      </trkpt>
      <trkpt lat="59.9744057" lon="17.7357938">
        <ele>34.7449</ele>
        <time>2012-10-05T19:46:40Z</time>
      </trkpt>
      <trkpt lat="59.9743943" lon="17.7357418">
        <ele>35.2255</ele>
        <time>2012-10-05T19:46:41Z</time>
      </trkpt>
      <trkpt lat="59.9743873" lon="17.7356929">
        <ele>35.2255</ele>
        <time>2012-10-05T19:46:42Z</time>
      </trkpt>
      <trkpt lat="59.9743791" lon="17.7356428">
        <ele>35.2255</ele>
        <time>2012-10-05T19:46:43Z</time>
      </trkpt>
      <trkpt lat="59.9743703" lon="17.7355905">
        <ele>35.2255</ele>
        <time>2012-10-05T19:46:44Z</time>
      </trkpt>
      <trkpt lat="59.974362" lon="17.7355307">
        <ele>35.7061</ele>
        <time>2012-10-05T19:46:45Z</time>
      </trkpt>
      <trkpt lat="59.9743563" lon="17.7354723">
        <ele>35.2255</ele>
        <time>2012-10-05T19:46:46Z</time>
      </trkpt>
      <trkpt lat="59.9743469" lon="17.7354123">
        <ele>35.7061</ele>
        <time>2012-10-05T19:46:47Z</time>
      </trkpt>
      <trkpt lat="59.9743399" lon="17.7353522">
        <ele>35.7061</ele>
        <time>2012-10-05T19:46:48Z</time>
      </trkpt>
      <trkpt lat="59.9743308" lon="17.7352924">
        <ele>35.7061</ele>
        <time>2012-10-05T19:46:49Z</time>
      </trkpt>
      <trkpt lat="59.9743223" lon="17.7352351">
        <ele>35.7061</ele>
        <time>2012-10-05T19:46:50Z</time>
      </trkpt>
      <trkpt lat="59.9743171" lon="17.7351821">
        <ele>35.7061</ele>
        <time>2012-10-05T19:46:51Z</time>
      </trkpt>
      <trkpt lat="59.9743116" lon="17.7351272">
        <ele>35.7061</ele>
        <time>2012-10-05T19:46:52Z</time>
      </trkpt>
      <trkpt lat="59.9743052" lon="17.7350697">
        <ele>35.7061</ele>
        <time>2012-10-05T19:46:53Z</time>
      </trkpt>
      <trkpt lat="59.9743043" lon="17.7350207">
        <ele>35.2255</ele>
        <time>2012-10-05T19:46:54Z</time>
      </trkpt>
      <trkpt lat="59.9743049" lon="17.7349762">
        <ele>35.2255</ele>
        <time>2012-10-05T19:46:55Z</time>
      </trkpt>
      <trkpt lat="59.9743004" lon="17.7349263">
        <ele>35.2255</ele>
        <time>2012-10-05T19:46:56Z</time>
      </trkpt>
      <trkpt lat="59.9742947" lon="17.734872">
        <ele>35.2255</ele>
        <time>2012-10-05T19:46:57Z</time>
      </trkpt>
      <trkpt lat="59.9742906" lon="17.734819">
        <ele>35.7061</ele>
        <time>2012-10-05T19:46:58Z</time>
      </trkpt>
      <trkpt lat="59.9742875" lon="17.7347616">
        <ele>35.7061</ele>
        <time>2012-10-05T19:46:59Z</time>
      </trkpt>
      <trkpt lat="59.9742855" lon="17.7347026">
        <ele>35.7061</ele>
        <time>2012-10-05T19:47:00Z</time>
      </trkpt>
      <trkpt lat="59.9742848" lon="17.7346511">
        <ele>35.2255</ele>
        <time>2012-10-05T19:47:01Z</time>
      </trkpt>
      <trkpt lat="59.9742803" lon="17.7345943">
        <ele>35.2255</ele>
        <time>2012-10-05T19:47:02Z</time>
      </trkpt>
      <trkpt lat="59.9742879" lon="17.7345467">
        <ele>35.2255</ele>
        <time>2012-10-05T19:47:03Z</time>
      </trkpt>
      <trkpt lat="59.9743021" lon="17.7345043">
        <ele>35.7061</ele>
        <time>2012-10-05T19:47:04Z</time>
      </trkpt>
      <trkpt lat="59.9743085" lon="17.7344543">
        <ele>36.1868</ele>
        <time>2012-10-05T19:47:05Z</time>
      </trkpt>
      <trkpt lat="59.9743082" lon="17.734398">
        <ele>36.1868</ele>
        <time>2012-10-05T19:47:06Z</time>
      </trkpt>
      <trkpt lat="59.9743031" lon="17.7343364">
        <ele>36.1868</ele>
        <time>2012-10-05T19:47:07Z</time>
      </trkpt>
      <trkpt lat="59.9742974" lon="17.7342752">
        <ele>36.1868</ele>
        <time>2012-10-05T19:47:08Z</time>
      </trkpt>
      <trkpt lat="59.9742968" lon="17.7342151">
        <ele>36.1868</ele>
        <time>2012-10-05T19:47:09Z</time>
      </trkpt>
      <trkpt lat="59.9742963" lon="17.7341561">
        <ele>36.1868</ele>
        <time>2012-10-05T19:47:10Z</time>
      </trkpt>
      <trkpt lat="59.9742906" lon="17.734096">
        <ele>35.7061</ele>
        <time>2012-10-05T19:47:11Z</time>
      </trkpt>
      <trkpt lat="59.9742836" lon="17.734023">
        <ele>35.7061</ele>
        <time>2012-10-05T19:47:12Z</time>
      </trkpt>
      <trkpt lat="59.9742744" lon="17.7339537">
        <ele>36.1868</ele>
        <time>2012-10-05T19:47:13Z</time>
      </trkpt>
      <trkpt lat="59.9742714" lon="17.7338876">
        <ele>36.1868</ele>
        <time>2012-10-05T19:47:14Z</time>
      </trkpt>
      <trkpt lat="59.9742724" lon="17.7338285">
        <ele>35.7061</ele>
        <time>2012-10-05T19:47:15Z</time>
      </trkpt>
      <trkpt lat="59.9742723" lon="17.7337635">
        <ele>35.7061</ele>
        <time>2012-10-05T19:47:16Z</time>
      </trkpt>
      <trkpt lat="59.9742715" lon="17.733709">
        <ele>35.2255</ele>
        <time>2012-10-05T19:47:17Z</time>
      </trkpt>
      <trkpt lat="59.9742668" lon="17.7336483">
        <ele>35.2255</ele>
        <time>2012-10-05T19:47:18Z</time>
      </trkpt>
      <trkpt lat="59.9742632" lon="17.7335929">
        <ele>34.7449</ele>
        <time>2012-10-05T19:47:19Z</time>
      </trkpt>
      <trkpt lat="59.9742622" lon="17.7335405">
        <ele>34.2642</ele>
        <time>2012-10-05T19:47:20Z</time>
      </trkpt>
      <trkpt lat="59.9742652" lon="17.7334883">
        <ele>33.7834</ele>
        <time>2012-10-05T19:47:21Z</time>
      </trkpt>
      <trkpt lat="59.9742713" lon="17.7334365">
        <ele>33.7834</ele>
        <time>2012-10-05T19:47:22Z</time>
      </trkpt>
      <trkpt lat="59.9742749" lon="17.7333822">
        <ele>33.7834</ele>
        <time>2012-10-05T19:47:23Z</time>
      </trkpt>
      <trkpt lat="59.974274" lon="17.7333302">
        <ele>33.7834</ele>
        <time>2012-10-05T19:47:24Z</time>
      </trkpt>
      <trkpt lat="59.9742735" lon="17.7332723">
        <ele>33.7834</ele>
        <time>2012-10-05T19:47:25Z</time>
      </trkpt>
      <trkpt lat="59.974278" lon="17.733218">
        <ele>33.7834</ele>
        <time>2012-10-05T19:47:26Z</time>
      </trkpt>
      <trkpt lat="59.974281" lon="17.7331658">
        <ele>33.3029</ele>
        <time>2012-10-05T19:47:27Z</time>
      </trkpt>
      <trkpt lat="59.9742791" lon="17.7331077">
        <ele>33.3029</ele>
        <time>2012-10-05T19:47:28Z</time>
      </trkpt>
      <trkpt lat="59.9742776" lon="17.7330461">
        <ele>33.3029</ele>
        <time>2012-10-05T19:47:29Z</time>
      </trkpt>
      <trkpt lat="59.9742775" lon="17.7329895">
        <ele>33.3029</ele>
        <time>2012-10-05T19:47:30Z</time>
      </trkpt>
      <trkpt lat="59.9742761" lon="17.7329365">
        <ele>33.3029</ele>
        <time>2012-10-05T19:47:31Z</time>
      </trkpt>
      <trkpt lat="59.9742767" lon="17.7328902">
        <ele>32.8223</ele>
        <time>2012-10-05T19:47:32Z</time>
      </trkpt>
      <trkpt lat="59.9742781" lon="17.7328377">
        <ele>32.8223</ele>
        <time>2012-10-05T19:47:33Z</time>
      </trkpt>
      <trkpt lat="59.9742754" lon="17.7327775">
        <ele>32.8223</ele>
        <time>2012-10-05T19:47:34Z</time>
      </trkpt>
      <trkpt lat="59.9742723" lon="17.7327267">
        <ele>32.8223</ele>
        <time>2012-10-05T19:47:35Z</time>
      </trkpt>
      <trkpt lat="59.9742694" lon="17.7326739">
        <ele>32.8223</ele>
        <time>2012-10-05T19:47:36Z</time>
      </trkpt>
      <trkpt lat="59.9742639" lon="17.7326107">
        <ele>33.3029</ele>
        <time>2012-10-05T19:47:37Z</time>
      </trkpt>
      <trkpt lat="59.9742598" lon="17.732554">
        <ele>33.3029</ele>
        <time>2012-10-05T19:47:38Z</time>
      </trkpt>
      <trkpt lat="59.9742614" lon="17.7325051">
        <ele>33.3029</ele>
        <time>2012-10-05T19:47:39Z</time>
      </trkpt>
      <trkpt lat="59.9742656" lon="17.7324555">
        <ele>32.8223</ele>
        <time>2012-10-05T19:47:40Z</time>
      </trkpt>
      <trkpt lat="59.9742635" lon="17.7323994">
        <ele>33.3029</ele>
        <time>2012-10-05T19:47:41Z</time>
      </trkpt>
      <trkpt lat="59.9742594" lon="17.7323403">
        <ele>33.3029</ele>
        <time>2012-10-05T19:47:42Z</time>
      </trkpt>
      <trkpt lat="59.9742616" lon="17.7322917">
        <ele>32.8223</ele>
        <time>2012-10-05T19:47:43Z</time>
      </trkpt>
      <trkpt lat="59.9742636" lon="17.7322419">
        <ele>32.8223</ele>
        <time>2012-10-05T19:47:44Z</time>
      </trkpt>
      <trkpt lat="59.9742625" lon="17.7321969">
        <ele>32.3416</ele>
        <time>2012-10-05T19:47:45Z</time>
      </trkpt>
      <trkpt lat="59.9742556" lon="17.7321424">
        <ele>32.3416</ele>
        <time>2012-10-05T19:47:46Z</time>
      </trkpt>
      <trkpt lat="59.9742522" lon="17.7320907">
        <ele>31.8607</ele>
        <time>2012-10-05T19:47:47Z</time>
      </trkpt>
      <trkpt lat="59.9742508" lon="17.7320398">
        <ele>32.3416</ele>
        <time>2012-10-05T19:47:48Z</time>
      </trkpt>
      <trkpt lat="59.9742475" lon="17.7319872">
        <ele>32.3416</ele>
        <time>2012-10-05T19:47:49Z</time>
      </trkpt>
      <trkpt lat="59.9742458" lon="17.7319333">
        <ele>31.8607</ele>
        <time>2012-10-05T19:47:50Z</time>
      </trkpt>
      <trkpt lat="59.9742414" lon="17.7318835">
        <ele>31.8607</ele>
        <time>2012-10-05T19:47:51Z</time>
      </trkpt>
      <trkpt lat="59.9742403" lon="17.7318388">
        <ele>31.3801</ele>
        <time>2012-10-05T19:47:52Z</time>
      </trkpt>
      <trkpt lat="59.9742461" lon="17.7317981">
        <ele>31.3801</ele>
        <time>2012-10-05T19:47:53Z</time>
      </trkpt>
      <trkpt lat="59.9742484" lon="17.7317561">
        <ele>30.8995</ele>
        <time>2012-10-05T19:47:54Z</time>
      </trkpt>
      <trkpt lat="59.9742434" lon="17.7317109">
        <ele>30.4188</ele>
        <time>2012-10-05T19:47:55Z</time>
      </trkpt>
      <trkpt lat="59.9742356" lon="17.7316573">
        <ele>30.4188</ele>
        <time>2012-10-05T19:47:56Z</time>
      </trkpt>
      <trkpt lat="59.9742257" lon="17.7316001">
        <ele>29.9381</ele>
        <time>2012-10-05T19:47:57Z</time>
      </trkpt>
      <trkpt lat="59.9742222" lon="17.7315407">
        <ele>29.9381</ele>
        <time>2012-10-05T19:47:58Z</time>
      </trkpt>
      <trkpt lat="59.9742243" lon="17.7314919">
        <ele>29.9381</ele>
        <time>2012-10-05T19:47:59Z</time>
      </trkpt>
      <trkpt lat="59.9742222" lon="17.7314376">
        <ele>29.9381</ele>
        <time>2012-10-05T19:48:00Z</time>
      </trkpt>
      <trkpt lat="59.9742244" lon="17.7313866">
        <ele>29.9381</ele>
        <time>2012-10-05T19:48:01Z</time>
      </trkpt>
      <trkpt lat="59.9742266" lon="17.731335">
        <ele>29.9381</ele>
        <time>2012-10-05T19:48:02Z</time>
      </trkpt>
      <trkpt lat="59.9742244" lon="17.7312791">
        <ele>30.4188</ele>
        <time>2012-10-05T19:48:03Z</time>
      </trkpt>
      <trkpt lat="59.9742253" lon="17.7312278">
        <ele>29.9381</ele>
        <time>2012-10-05T19:48:04Z</time>
      </trkpt>
      <trkpt lat="59.9742288" lon="17.7311809">
        <ele>29.4575</ele>
        <time>2012-10-05T19:48:05Z</time>
      </trkpt>
      <trkpt lat="59.9742299" lon="17.7311241">
        <ele>29.4575</ele>
        <time>2012-10-05T19:48:06Z</time>
      </trkpt>
      <trkpt lat="59.9742331" lon="17.7310722">
        <ele>29.4575</ele>
        <time>2012-10-05T19:48:07Z</time>
      </trkpt>
      <trkpt lat="59.974234" lon="17.7310147">
        <ele>29.9381</ele>
        <time>2012-10-05T19:48:08Z</time>
      </trkpt>
      <trkpt lat="59.9742341" lon="17.730961">
        <ele>29.4575</ele>
        <time>2012-10-05T19:48:09Z</time>
      </trkpt>
      <trkpt lat="59.9742362" lon="17.7309118">
        <ele>28.9769</ele>
        <time>2012-10-05T19:48:10Z</time>
      </trkpt>
      <trkpt lat="59.9742406" lon="17.7308652">
        <ele>28.9769</ele>
        <time>2012-10-05T19:48:11Z</time>
      </trkpt>
      <trkpt lat="59.974246" lon="17.7308205">
        <ele>28.4962</ele>
        <time>2012-10-05T19:48:12Z</time>
      </trkpt>
      <trkpt lat="59.974249" lon="17.7307696">
        <ele>28.0155</ele>
        <time>2012-10-05T19:48:13Z</time>
      </trkpt>
      <trkpt lat="59.9742517" lon="17.7307124">
        <ele>28.0155</ele>
        <time>2012-10-05T19:48:14Z</time>
      </trkpt>
      <trkpt lat="59.9742556" lon="17.7306569">
        <ele>28.0155</ele>
        <time>2012-10-05T19:48:15Z</time>
      </trkpt>
      <trkpt lat="59.9742604" lon="17.7306067">
        <ele>28.4962</ele>
        <time>2012-10-05T19:48:16Z</time>
      </trkpt>
      <trkpt lat="59.9742665" lon="17.7305564">
        <ele>28.4962</ele>
        <time>2012-10-05T19:48:17Z</time>
      </trkpt>
      <trkpt lat="59.9742736" lon="17.7305072">
        <ele>28.4962</ele>
        <time>2012-10-05T19:48:18Z</time>
      </trkpt>
      <trkpt lat="59.9742782" lon="17.7304528">
        <ele>28.4962</ele>
        <time>2012-10-05T19:48:19Z</time>
      </trkpt>
      <trkpt lat="59.9742792" lon="17.7303906">
        <ele>28.4962</ele>
        <time>2012-10-05T19:48:20Z</time>
      </trkpt>
      <trkpt lat="59.9742755" lon="17.7303166">
        <ele>29.4575</ele>
        <time>2012-10-05T19:48:21Z</time>
      </trkpt>
      <trkpt lat="59.9742657" lon="17.7302383">
        <ele>29.9381</ele>
        <time>2012-10-05T19:48:22Z</time>
      </trkpt>
      <trkpt lat="59.9742596" lon="17.7301673">
        <ele>30.4188</ele>
        <time>2012-10-05T19:48:23Z</time>
      </trkpt>
      <trkpt lat="59.9742596" lon="17.7301092">
        <ele>30.8995</ele>
        <time>2012-10-05T19:48:24Z</time>
      </trkpt>
      <trkpt lat="59.97426" lon="17.7300456">
        <ele>31.3801</ele>
        <time>2012-10-05T19:48:25Z</time>
      </trkpt>
      <trkpt lat="59.9742573" lon="17.7299766">
        <ele>31.3801</ele>
        <time>2012-10-05T19:48:26Z</time>
      </trkpt>
      <trkpt lat="59.9742614" lon="17.7299249">
        <ele>31.3801</ele>
        <time>2012-10-05T19:48:27Z</time>
      </trkpt>
      <trkpt lat="59.9742714" lon="17.7298804">
        <ele>30.8995</ele>
        <time>2012-10-05T19:48:28Z</time>
      </trkpt>
      <trkpt lat="59.9742749" lon="17.7298188">
        <ele>30.8995</ele>
        <time>2012-10-05T19:48:29Z</time>
      </trkpt>
      <trkpt lat="59.9742765" lon="17.7297742">
        <ele>30.4188</ele>
        <time>2012-10-05T19:48:30Z</time>
      </trkpt>
      <trkpt lat="59.9742802" lon="17.7297293">
        <ele>29.9381</ele>
        <time>2012-10-05T19:48:31Z</time>
      </trkpt>
      <trkpt lat="59.9742847" lon="17.7296799">
        <ele>29.4575</ele>
        <time>2012-10-05T19:48:32Z</time>
      </trkpt>
      <trkpt lat="59.9742901" lon="17.7296357">
        <ele>29.9381</ele>
        <time>2012-10-05T19:48:33Z</time>
      </trkpt>
      <trkpt lat="59.9742919" lon="17.7295927">
        <ele>29.4575</ele>
        <time>2012-10-05T19:48:34Z</time>
      </trkpt>
      <trkpt lat="59.9742899" lon="17.7295404">
        <ele>29.4575</ele>
        <time>2012-10-05T19:48:35Z</time>
      </trkpt>
      <trkpt lat="59.9742895" lon="17.7294917">
        <ele>29.4575</ele>
        <time>2012-10-05T19:48:36Z</time>
      </trkpt>
      <trkpt lat="59.9742953" lon="17.7294483">
        <ele>28.9769</ele>
        <time>2012-10-05T19:48:37Z</time>
      </trkpt>
      <trkpt lat="59.9743045" lon="17.7294088">
        <ele>28.4962</ele>
        <time>2012-10-05T19:48:38Z</time>
      </trkpt>
      <trkpt lat="59.9743091" lon="17.7293575">
        <ele>28.4962</ele>
        <time>2012-10-05T19:48:39Z</time>
      </trkpt>
      <trkpt lat="59.974315" lon="17.7293065">
        <ele>28.4962</ele>
        <time>2012-10-05T19:48:40Z</time>
      </trkpt>
      <trkpt lat="59.9743196" lon="17.7292556">
        <ele>28.4962</ele>
        <time>2012-10-05T19:48:41Z</time>
      </trkpt>
      <trkpt lat="59.9743227" lon="17.7292048">
        <ele>28.4962</ele>
        <time>2012-10-05T19:48:42Z</time>
      </trkpt>
      <trkpt lat="59.9743252" lon="17.7291483">
        <ele>28.4962</ele>
        <time>2012-10-05T19:48:43Z</time>
      </trkpt>
      <trkpt lat="59.9743277" lon="17.7290965">
        <ele>28.4962</ele>
        <time>2012-10-05T19:48:44Z</time>
      </trkpt>
      <trkpt lat="59.9743271" lon="17.7290371">
        <ele>28.9769</ele>
        <time>2012-10-05T19:48:45Z</time>
      </trkpt>
      <trkpt lat="59.9743237" lon="17.7289776">
        <ele>28.9769</ele>
        <time>2012-10-05T19:48:46Z</time>
      </trkpt>
      <trkpt lat="59.9743194" lon="17.728919">
        <ele>28.9769</ele>
        <time>2012-10-05T19:48:47Z</time>
      </trkpt>
      <trkpt lat="59.9743138" lon="17.7288547">
        <ele>29.4575</ele>
        <time>2012-10-05T19:48:48Z</time>
      </trkpt>
      <trkpt lat="59.9743097" lon="17.728796">
        <ele>29.9381</ele>
        <time>2012-10-05T19:48:49Z</time>
      </trkpt>
      <trkpt lat="59.9743061" lon="17.7287355">
        <ele>30.4188</ele>
        <time>2012-10-05T19:48:50Z</time>
      </trkpt>
      <trkpt lat="59.9743075" lon="17.7286818">
        <ele>30.4188</ele>
        <time>2012-10-05T19:48:51Z</time>
      </trkpt>
      <trkpt lat="59.9743066" lon="17.728628">
        <ele>30.4188</ele>
        <time>2012-10-05T19:48:52Z</time>
      </trkpt>
      <trkpt lat="59.9743035" lon="17.7285741">
        <ele>30.8995</ele>
        <time>2012-10-05T19:48:53Z</time>
      </trkpt>
      <trkpt lat="59.9742993" lon="17.7285189">
        <ele>31.3801</ele>
        <time>2012-10-05T19:48:54Z</time>
      </trkpt>
      <trkpt lat="59.9742941" lon="17.7284697">
        <ele>31.8607</ele>
        <time>2012-10-05T19:48:55Z</time>
      </trkpt>
      <trkpt lat="59.9742942" lon="17.7284294">
        <ele>31.8607</ele>
        <time>2012-10-05T19:48:56Z</time>
      </trkpt>
      <trkpt lat="59.9742921" lon="17.7283759">
        <ele>31.8607</ele>
        <time>2012-10-05T19:48:57Z</time>
      </trkpt>
      <trkpt lat="59.9742895" lon="17.7283232">
        <ele>32.3416</ele>
        <time>2012-10-05T19:48:58Z</time>
      </trkpt>
      <trkpt lat="59.9742875" lon="17.728275">
        <ele>31.8607</ele>
        <time>2012-10-05T19:48:59Z</time>
      </trkpt>
      <trkpt lat="59.9742831" lon="17.7282259">
        <ele>32.3416</ele>
        <time>2012-10-05T19:49:00Z</time>
      </trkpt>
      <trkpt lat="59.9742797" lon="17.7281708">
        <ele>32.3416</ele>
        <time>2012-10-05T19:49:01Z</time>
      </trkpt>
      <trkpt lat="59.9742771" lon="17.7281155">
        <ele>32.3416</ele>
        <time>2012-10-05T19:49:02Z</time>
      </trkpt>
      <trkpt lat="59.9742745" lon="17.7280643">
        <ele>32.3416</ele>
        <time>2012-10-05T19:49:03Z</time>
      </trkpt>
      <trkpt lat="59.974276" lon="17.7280116">
        <ele>32.8223</ele>
        <time>2012-10-05T19:49:04Z</time>
      </trkpt>
      <trkpt lat="59.97428" lon="17.7279589">
        <ele>33.3029</ele>
        <time>2012-10-05T19:49:05Z</time>
      </trkpt>
      <trkpt lat="59.974285" lon="17.7279089">
        <ele>33.7834</ele>
        <time>2012-10-05T19:49:06Z</time>
      </trkpt>
      <trkpt lat="59.9742896" lon="17.7278669">
        <ele>33.7834</ele>
        <time>2012-10-05T19:49:07Z</time>
      </trkpt>
      <trkpt lat="59.9742941" lon="17.7278203">
        <ele>34.2642</ele>
        <time>2012-10-05T19:49:08Z</time>
      </trkpt>
      <trkpt lat="59.9742978" lon="17.7277733">
        <ele>34.2642</ele>
        <time>2012-10-05T19:49:09Z</time>
      </trkpt>
      <trkpt lat="59.9743012" lon="17.7277292">
        <ele>34.2642</ele>
        <time>2012-10-05T19:49:10Z</time>
      </trkpt>
      <trkpt lat="59.9743043" lon="17.7276862">
        <ele>34.7449</ele>
        <time>2012-10-05T19:49:11Z</time>
      </trkpt>
      <trkpt lat="59.9743102" lon="17.7276367">
        <ele>35.2255</ele>
        <time>2012-10-05T19:49:12Z</time>
      </trkpt>
      <trkpt lat="59.9743154" lon="17.7275828">
        <ele>35.7061</ele>
        <time>2012-10-05T19:49:13Z</time>
      </trkpt>
      <trkpt lat="59.9743197" lon="17.7275281">
        <ele>36.1868</ele>
        <time>2012-10-05T19:49:14Z</time>
      </trkpt>
      <trkpt lat="59.9743192" lon="17.7274765">
        <ele>36.1868</ele>
        <time>2012-10-05T19:49:15Z</time>
      </trkpt>
      <trkpt lat="59.9743201" lon="17.7274264">
        <ele>36.6675</ele>
        <time>2012-10-05T19:49:16Z</time>
      </trkpt>
      <trkpt lat="59.9743197" lon="17.7273765">
        <ele>37.1481</ele>
        <time>2012-10-05T19:49:17Z</time>
      </trkpt>
      <trkpt lat="59.9743174" lon="17.7273256">
        <ele>37.1481</ele>
        <time>2012-10-05T19:49:18Z</time>
      </trkpt>
      <trkpt lat="59.9743159" lon="17.7272711">
        <ele>37.1481</ele>
        <time>2012-10-05T19:49:19Z</time>
      </trkpt>
      <trkpt lat="59.9743111" lon="17.7272076">
        <ele>37.1481</ele>
        <time>2012-10-05T19:49:20Z</time>
      </trkpt>
      <trkpt lat="59.9743091" lon="17.727151">
        <ele>37.1481</ele>
        <time>2012-10-05T19:49:21Z</time>
      </trkpt>
      <trkpt lat="59.9743096" lon="17.727097">
        <ele>37.1481</ele>
        <time>2012-10-05T19:49:22Z</time>
      </trkpt>
      <trkpt lat="59.9743092" lon="17.7270469">
        <ele>36.6675</ele>
        <time>2012-10-05T19:49:23Z</time>
      </trkpt>
      <trkpt lat="59.9743061" lon="17.7269903">
        <ele>37.1481</ele>
        <time>2012-10-05T19:49:24Z</time>
      </trkpt>
      <trkpt lat="59.9743046" lon="17.7269421">
        <ele>37.1481</ele>
        <time>2012-10-05T19:49:25Z</time>
      </trkpt>
      <trkpt lat="59.9742973" lon="17.7268858">
        <ele>38.1094</ele>
        <time>2012-10-05T19:49:26Z</time>
      </trkpt>
      <trkpt lat="59.9742904" lon="17.7268344">
        <ele>38.1094</ele>
        <time>2012-10-05T19:49:27Z</time>
      </trkpt>
      <trkpt lat="59.9742925" lon="17.7267888">
        <ele>38.5901</ele>
        <time>2012-10-05T19:49:28Z</time>
      </trkpt>
      <trkpt lat="59.9742936" lon="17.726748">
        <ele>38.5901</ele>
        <time>2012-10-05T19:49:29Z</time>
      </trkpt>
      <trkpt lat="59.9742961" lon="17.7267002">
        <ele>38.1094</ele>
        <time>2012-10-05T19:49:30Z</time>
      </trkpt>
      <trkpt lat="59.9742963" lon="17.7266495">
        <ele>38.1094</ele>
        <time>2012-10-05T19:49:31Z</time>
      </trkpt>
      <trkpt lat="59.9743014" lon="17.7266056">
        <ele>38.5901</ele>
        <time>2012-10-05T19:49:32Z</time>
      </trkpt>
      <trkpt lat="59.9743038" lon="17.7265534">
        <ele>38.5901</ele>
        <time>2012-10-05T19:49:33Z</time>
      </trkpt>
      <trkpt lat="59.9743051" lon="17.7265061">
        <ele>39.0707</ele>
        <time>2012-10-05T19:49:34Z</time>
      </trkpt>
      <trkpt lat="59.9743059" lon="17.726461">
        <ele>38.5901</ele>
        <time>2012-10-05T19:49:35Z</time>
      </trkpt>
      <trkpt lat="59.9742986" lon="17.7264037">
        <ele>38.5901</ele>
        <time>2012-10-05T19:49:36Z</time>
      </trkpt>
      <trkpt lat="59.9742868" lon="17.7263465">
        <ele>38.5901</ele>
        <time>2012-10-05T19:49:37Z</time>
      </trkpt>
      <trkpt lat="59.9742805" lon="17.7263">
        <ele>38.5901</ele>
        <time>2012-10-05T19:49:38Z</time>
      </trkpt>
      <trkpt lat="59.9742745" lon="17.7262404">
        <ele>39.0707</ele>
        <time>2012-10-05T19:49:39Z</time>
      </trkpt>
      <trkpt lat="59.9742702" lon="17.7261916">
        <ele>39.0707</ele>
        <time>2012-10-05T19:49:40Z</time>
      </trkpt>
      <trkpt lat="59.9742689" lon="17.7261492">
        <ele>39.0707</ele>
        <time>2012-10-05T19:49:41Z</time>
      </trkpt>
      <trkpt lat="59.974267" lon="17.7260948">
        <ele>39.0707</ele>
        <time>2012-10-05T19:49:42Z</time>
      </trkpt>
      <trkpt lat="59.9742672" lon="17.7260476">
        <ele>39.5513</ele>
        <time>2012-10-05T19:49:43Z</time>
      </trkpt>
      <trkpt lat="59.974261" lon="17.725999">
        <ele>39.0707</ele>
        <time>2012-10-05T19:49:44Z</time>
      </trkpt>
      <trkpt lat="59.9742541" lon="17.7259437">
        <ele>39.0707</ele>
        <time>2012-10-05T19:49:45Z</time>
      </trkpt>
      <trkpt lat="59.9742605" lon="17.7259014">
        <ele>39.5513</ele>
        <time>2012-10-05T19:49:46Z</time>
      </trkpt>
      <trkpt lat="59.9742652" lon="17.7258579">
        <ele>39.0707</ele>
        <time>2012-10-05T19:49:47Z</time>
      </trkpt>
      <trkpt lat="59.9742734" lon="17.7258208">
        <ele>39.0707</ele>
        <time>2012-10-05T19:49:48Z</time>
      </trkpt>
      <trkpt lat="59.9742818" lon="17.7257911">
        <ele>38.5901</ele>
        <time>2012-10-05T19:49:49Z</time>
      </trkpt>
      <trkpt lat="59.9742822" lon="17.7257558">
        <ele>38.1094</ele>
        <time>2012-10-05T19:49:50Z</time>
      </trkpt>
      <trkpt lat="59.9742833" lon="17.7257106">
        <ele>38.1094</ele>
        <time>2012-10-05T19:49:51Z</time>
      </trkpt>
      <trkpt lat="59.9742899" lon="17.7256729">
        <ele>37.1481</ele>
        <time>2012-10-05T19:49:52Z</time>
      </trkpt>
      <trkpt lat="59.9742963" lon="17.7256347">
        <ele>36.6675</ele>
        <time>2012-10-05T19:49:53Z</time>
      </trkpt>
      <trkpt lat="59.9742933" lon="17.7255793">
        <ele>37.6287</ele>
        <time>2012-10-05T19:49:54Z</time>
      </trkpt>
      <trkpt lat="59.9742891" lon="17.7255403">
        <ele>37.6287</ele>
        <time>2012-10-05T19:49:55Z</time>
      </trkpt>
      <trkpt lat="59.9742854" lon="17.7255037">
        <ele>37.1481</ele>
        <time>2012-10-05T19:49:56Z</time>
      </trkpt>
      <trkpt lat="59.9742805" lon="17.7254556">
        <ele>37.1481</ele>
        <time>2012-10-05T19:49:57Z</time>
      </trkpt>
      <trkpt lat="59.9742776" lon="17.7254069">
        <ele>36.6675</ele>
        <time>2012-10-05T19:49:58Z</time>
      </trkpt>
      <trkpt lat="59.9742749" lon="17.7253592">
        <ele>35.7061</ele>
        <time>2012-10-05T19:49:59Z</time>
      </trkpt>
      <trkpt lat="59.9742753" lon="17.7253219">
        <ele>35.7061</ele>
        <time>2012-10-05T19:50:00Z</time>
      </trkpt>
      <trkpt lat="59.9742702" lon="17.7252769">
        <ele>35.7061</ele>
        <time>2012-10-05T19:50:01Z</time>
      </trkpt>
      <trkpt lat="59.9742624" lon="17.7252283">
        <ele>35.2255</ele>
        <time>2012-10-05T19:50:02Z</time>
      </trkpt>
      <trkpt lat="59.9742611" lon="17.72519">
        <ele>35.2255</ele>
        <time>2012-10-05T19:50:03Z</time>
      </trkpt>
      <trkpt lat="59.9742595" lon="17.7251514">
        <ele>35.2255</ele>
        <time>2012-10-05T19:50:04Z</time>
      </trkpt>
      <trkpt lat="59.9742522" lon="17.7251089">
        <ele>35.2255</ele>
        <time>2012-10-05T19:50:05Z</time>
      </trkpt>
      <trkpt lat="59.9742476" lon="17.7250629">
        <ele>34.7449</ele>
        <time>2012-10-05T19:50:06Z</time>
      </trkpt>
      <trkpt lat="59.9742415" lon="17.7250148">
        <ele>34.7449</ele>
        <time>2012-10-05T19:50:07Z</time>
      </trkpt>
      <trkpt lat="59.9742318" lon="17.7249645">
        <ele>35.2255</ele>
        <time>2012-10-05T19:50:08Z</time>
      </trkpt>
      <trkpt lat="59.9742262" lon="17.7249159">
        <ele>35.2255</ele>
        <time>2012-10-05T19:50:09Z</time>
      </trkpt>
      <trkpt lat="59.9742173" lon="17.7248614">
        <ele>35.7061</ele>
        <time>2012-10-05T19:50:10Z</time>
      </trkpt>
      <trkpt lat="59.9742056" lon="17.724804">
        <ele>35.7061</ele>
        <time>2012-10-05T19:50:11Z</time>
      </trkpt>
      <trkpt lat="59.9741928" lon="17.7247413">
        <ele>36.1868</ele>
        <time>2012-10-05T19:50:12Z</time>
      </trkpt>
      <trkpt lat="59.9741756" lon="17.7246729">
        <ele>36.6675</ele>
        <time>2012-10-05T19:50:13Z</time>
      </trkpt>
      <trkpt lat="59.9741599" lon="17.7246115">
        <ele>36.6675</ele>
        <time>2012-10-05T19:50:14Z</time>
      </trkpt>
      <trkpt lat="59.9741472" lon="17.7245568">
        <ele>37.6287</ele>
        <time>2012-10-05T19:50:15Z</time>
      </trkpt>
      <trkpt lat="59.9741386" lon="17.7245066">
        <ele>37.6287</ele>
        <time>2012-10-05T19:50:16Z</time>
      </trkpt>
      <trkpt lat="59.9741279" lon="17.7244499">
        <ele>37.6287</ele>
        <time>2012-10-05T19:50:17Z</time>
      </trkpt>
      <trkpt lat="59.9741227" lon="17.7244029">
        <ele>37.6287</ele>
        <time>2012-10-05T19:50:18Z</time>
      </trkpt>
      <trkpt lat="59.9741168" lon="17.7243574">
        <ele>37.6287</ele>
        <time>2012-10-05T19:50:19Z</time>
      </trkpt>
      <trkpt lat="59.9741078" lon="17.7243081">
        <ele>37.6287</ele>
        <time>2012-10-05T19:50:20Z</time>
      </trkpt>
      <trkpt lat="59.974103" lon="17.7242626">
        <ele>37.1481</ele>
        <time>2012-10-05T19:50:21Z</time>
      </trkpt>
      <trkpt lat="59.9740956" lon="17.7242151">
        <ele>37.1481</ele>
        <time>2012-10-05T19:50:22Z</time>
      </trkpt>
      <trkpt lat="59.9740832" lon="17.7241673">
        <ele>37.6287</ele>
        <time>2012-10-05T19:50:23Z</time>
      </trkpt>
      <trkpt lat="59.974073" lon="17.7241225">
        <ele>37.6287</ele>
        <time>2012-10-05T19:50:24Z</time>
      </trkpt>
      <trkpt lat="59.9740669" lon="17.7240833">
        <ele>37.6287</ele>
        <time>2012-10-05T19:50:25Z</time>
      </trkpt>
      <trkpt lat="59.9740544" lon="17.7240378">
        <ele>38.1094</ele>
        <time>2012-10-05T19:50:26Z</time>
      </trkpt>
      <trkpt lat="59.9740465" lon="17.7239911">
        <ele>38.1094</ele>
        <time>2012-10-05T19:50:27Z</time>
      </trkpt>
      <trkpt lat="59.9740446" lon="17.7239498">
        <ele>37.6287</ele>
        <time>2012-10-05T19:50:28Z</time>
      </trkpt>
      <trkpt lat="59.9740393" lon="17.7239026">
        <ele>37.6287</ele>
        <time>2012-10-05T19:50:29Z</time>
      </trkpt>
      <trkpt lat="59.9740319" lon="17.7238496">
        <ele>37.6287</ele>
        <time>2012-10-05T19:50:30Z</time>
      </trkpt>
      <trkpt lat="59.9740229" lon="17.7237954">
        <ele>38.1094</ele>
        <time>2012-10-05T19:50:31Z</time>
      </trkpt>
      <trkpt lat="59.9740093" lon="17.7237379">
        <ele>38.1094</ele>
        <time>2012-10-05T19:50:32Z</time>
      </trkpt>
      <trkpt lat="59.9740005" lon="17.7236872">
        <ele>38.5901</ele>
        <time>2012-10-05T19:50:33Z</time>
      </trkpt>
      <trkpt lat="59.9739923" lon="17.7236338">
        <ele>38.5901</ele>
        <time>2012-10-05T19:50:34Z</time>
      </trkpt>
      <trkpt lat="59.9739833" lon="17.7235813">
        <ele>38.5901</ele>
        <time>2012-10-05T19:50:35Z</time>
      </trkpt>
      <trkpt lat="59.9739725" lon="17.7235264">
        <ele>39.0707</ele>
        <time>2012-10-05T19:50:36Z</time>
      </trkpt>
      <trkpt lat="59.9739673" lon="17.723482">
        <ele>39.0707</ele>
        <time>2012-10-05T19:50:37Z</time>
      </trkpt>
      <trkpt lat="59.9739609" lon="17.7234302">
        <ele>39.0707</ele>
        <time>2012-10-05T19:50:38Z</time>
      </trkpt>
      <trkpt lat="59.9739573" lon="17.7233836">
        <ele>38.5901</ele>
        <time>2012-10-05T19:50:39Z</time>
      </trkpt>
      <trkpt lat="59.9739511" lon="17.7233363">
        <ele>39.0707</ele>
        <time>2012-10-05T19:50:40Z</time>
      </trkpt>
      <trkpt lat="59.973944" lon="17.7232887">
        <ele>39.0707</ele>
        <time>2012-10-05T19:50:41Z</time>
      </trkpt>
      <trkpt lat="59.973943" lon="17.7232367">
        <ele>40.0321</ele>
        <time>2012-10-05T19:50:42Z</time>
      </trkpt>
      <trkpt lat="59.9739412" lon="17.7231841">
        <ele>40.5128</ele>
        <time>2012-10-05T19:50:43Z</time>
      </trkpt>
      <trkpt lat="59.9739337" lon="17.7231265">
        <ele>40.9934</ele>
        <time>2012-10-05T19:50:44Z</time>
      </trkpt>
      <trkpt lat="59.9739267" lon="17.7230685">
        <ele>41.474</ele>
        <time>2012-10-05T19:50:45Z</time>
      </trkpt>
      <trkpt lat="59.9739265" lon="17.7230204">
        <ele>41.9547</ele>
        <time>2012-10-05T19:50:46Z</time>
      </trkpt>
      <trkpt lat="59.9739212" lon="17.7229655">
        <ele>42.916</ele>
        <time>2012-10-05T19:50:47Z</time>
      </trkpt>
      <trkpt lat="59.9739156" lon="17.7229127">
        <ele>43.3966</ele>
        <time>2012-10-05T19:50:48Z</time>
      </trkpt>
      <trkpt lat="59.9739134" lon="17.7228619">
        <ele>44.358</ele>
        <time>2012-10-05T19:50:49Z</time>
      </trkpt>
      <trkpt lat="59.9739061" lon="17.7228075">
        <ele>44.8386</ele>
        <time>2012-10-05T19:50:50Z</time>
      </trkpt>
      <trkpt lat="59.9738938" lon="17.7227542">
        <ele>44.8386</ele>
        <time>2012-10-05T19:50:51Z</time>
      </trkpt>
      <trkpt lat="59.9738803" lon="17.7227009">
        <ele>45.3192</ele>
        <time>2012-10-05T19:50:52Z</time>
      </trkpt>
      <trkpt lat="59.973869" lon="17.7226509">
        <ele>45.7999</ele>
        <time>2012-10-05T19:50:53Z</time>
      </trkpt>
      <trkpt lat="59.9738633" lon="17.7226063">
        <ele>45.7999</ele>
        <time>2012-10-05T19:50:54Z</time>
      </trkpt>
      <trkpt lat="59.973861" lon="17.7225604">
        <ele>46.2806</ele>
        <time>2012-10-05T19:50:55Z</time>
      </trkpt>
      <trkpt lat="59.9738559" lon="17.722516">
        <ele>46.2806</ele>
        <time>2012-10-05T19:50:56Z</time>
      </trkpt>
      <trkpt lat="59.9738444" lon="17.7224707">
        <ele>45.7999</ele>
        <time>2012-10-05T19:50:57Z</time>
      </trkpt>
      <trkpt lat="59.9738352" lon="17.722419">
        <ele>46.2806</ele>
        <time>2012-10-05T19:50:58Z</time>
      </trkpt>
      <trkpt lat="59.9738259" lon="17.7223746">
        <ele>45.7999</ele>
        <time>2012-10-05T19:50:59Z</time>
      </trkpt>
      <trkpt lat="59.973814" lon="17.7223299">
        <ele>45.3192</ele>
        <time>2012-10-05T19:51:00Z</time>
      </trkpt>
      <trkpt lat="59.9737977" lon="17.7222817">
        <ele>45.3192</ele>
        <time>2012-10-05T19:51:01Z</time>
      </trkpt>
      <trkpt lat="59.973784" lon="17.7222528">
        <ele>44.358</ele>
        <time>2012-10-05T19:51:02Z</time>
      </trkpt>
      <trkpt lat="59.97377" lon="17.7222139">
        <ele>43.3966</ele>
        <time>2012-10-05T19:51:03Z</time>
      </trkpt>
      <trkpt lat="59.9737564" lon="17.7221779">
        <ele>42.4354</ele>
        <time>2012-10-05T19:51:04Z</time>
      </trkpt>
      <trkpt lat="59.9737445" lon="17.7221527">
        <ele>40.9934</ele>
        <time>2012-10-05T19:51:05Z</time>
      </trkpt>
      <trkpt lat="59.9737358" lon="17.7221235">
        <ele>40.0321</ele>
        <time>2012-10-05T19:51:06Z</time>
      </trkpt>
      <trkpt lat="59.9737254" lon="17.7220907">
        <ele>39.0707</ele>
        <time>2012-10-05T19:51:07Z</time>
      </trkpt>
      <trkpt lat="59.973717" lon="17.722061">
        <ele>38.1094</ele>
        <time>2012-10-05T19:51:08Z</time>
      </trkpt>
      <trkpt lat="59.9737062" lon="17.7220293">
        <ele>37.1481</ele>
        <time>2012-10-05T19:51:09Z</time>
      </trkpt>
      <trkpt lat="59.9736963" lon="17.7220004">
        <ele>36.1868</ele>
        <time>2012-10-05T19:51:10Z</time>
      </trkpt>
      <trkpt lat="59.9736906" lon="17.7219683">
        <ele>34.7449</ele>
        <time>2012-10-05T19:51:11Z</time>
      </trkpt>
      <trkpt lat="59.9736798" lon="17.7219303">
        <ele>34.2642</ele>
        <time>2012-10-05T19:51:12Z</time>
      </trkpt>
      <trkpt lat="59.9736679" lon="17.7218954">
        <ele>33.3029</ele>
        <time>2012-10-05T19:51:13Z</time>
      </trkpt>
      <trkpt lat="59.9736532" lon="17.7218596">
        <ele>32.8223</ele>
        <time>2012-10-05T19:51:14Z</time>
      </trkpt>
      <trkpt lat="59.9736394" lon="17.7218218">
        <ele>32.3416</ele>
        <time>2012-10-05T19:51:15Z</time>
      </trkpt>
      <trkpt lat="59.9736261" lon="17.7217846">
        <ele>31.8607</ele>
        <time>2012-10-05T19:51:16Z</time>
      </trkpt>
      <trkpt lat="59.9736098" lon="17.7217495">
        <ele>31.3801</ele>
        <time>2012-10-05T19:51:17Z</time>
      </trkpt>
      <trkpt lat="59.9735929" lon="17.7217176">
        <ele>31.3801</ele>
        <time>2012-10-05T19:51:18Z</time>
      </trkpt>
      <trkpt lat="59.9735778" lon="17.721684">
        <ele>31.3801</ele>
        <time>2012-10-05T19:51:19Z</time>
      </trkpt>
      <trkpt lat="59.9735654" lon="17.7216496">
        <ele>30.8995</ele>
        <time>2012-10-05T19:51:20Z</time>
      </trkpt>
      <trkpt lat="59.9735498" lon="17.7216196">
        <ele>30.8995</ele>
        <time>2012-10-05T19:51:21Z</time>
      </trkpt>
      <trkpt lat="59.9735364" lon="17.721582">
        <ele>30.8995</ele>
        <time>2012-10-05T19:51:22Z</time>
      </trkpt>
      <trkpt lat="59.9735255" lon="17.7215477">
        <ele>30.4188</ele>
        <time>2012-10-05T19:51:23Z</time>
      </trkpt>
      <trkpt lat="59.9735128" lon="17.7215099">
        <ele>30.4188</ele>
        <time>2012-10-05T19:51:24Z</time>
      </trkpt>
      <trkpt lat="59.9734942" lon="17.7214669">
        <ele>30.4188</ele>
        <time>2012-10-05T19:51:25Z</time>
      </trkpt>
      <trkpt lat="59.9734756" lon="17.7214321">
        <ele>30.4188</ele>
        <time>2012-10-05T19:51:26Z</time>
      </trkpt>
      <trkpt lat="59.9734626" lon="17.7213963">
        <ele>30.4188</ele>
        <time>2012-10-05T19:51:27Z</time>
      </trkpt>
      <trkpt lat="59.9734492" lon="17.7213636">
        <ele>30.8995</ele>
        <time>2012-10-05T19:51:28Z</time>
      </trkpt>
      <trkpt lat="59.973429" lon="17.7213332">
        <ele>30.8995</ele>
        <time>2012-10-05T19:51:29Z</time>
      </trkpt>
      <trkpt lat="59.9734094" lon="17.7212983">
        <ele>30.8995</ele>
        <time>2012-10-05T19:51:30Z</time>
      </trkpt>
      <trkpt lat="59.9733928" lon="17.7212626">
        <ele>30.8995</ele>
        <time>2012-10-05T19:51:31Z</time>
      </trkpt>
      <trkpt lat="59.9733778" lon="17.7212272">
        <ele>31.3801</ele>
        <time>2012-10-05T19:51:32Z</time>
      </trkpt>
      <trkpt lat="59.973361" lon="17.7211956">
        <ele>31.3801</ele>
        <time>2012-10-05T19:51:33Z</time>
      </trkpt>
      <trkpt lat="59.9733469" lon="17.7211616">
        <ele>31.3801</ele>
        <time>2012-10-05T19:51:34Z</time>
      </trkpt>
      <trkpt lat="59.9733332" lon="17.7211222">
        <ele>30.8995</ele>
        <time>2012-10-05T19:51:35Z</time>
      </trkpt>
      <trkpt lat="59.9733151" lon="17.7210872">
        <ele>31.3801</ele>
        <time>2012-10-05T19:51:36Z</time>
      </trkpt>
      <trkpt lat="59.973293" lon="17.7210511">
        <ele>31.3801</ele>
        <time>2012-10-05T19:51:37Z</time>
      </trkpt>
      <trkpt lat="59.973272" lon="17.7210162">
        <ele>31.3801</ele>
        <time>2012-10-05T19:51:38Z</time>
      </trkpt>
      <trkpt lat="59.9732556" lon="17.7209844">
        <ele>31.8607</ele>
        <time>2012-10-05T19:51:39Z</time>
      </trkpt>
      <trkpt lat="59.9732455" lon="17.7209567">
        <ele>31.8607</ele>
        <time>2012-10-05T19:51:40Z</time>
      </trkpt>
      <trkpt lat="59.9732369" lon="17.7209329">
        <ele>32.3416</ele>
        <time>2012-10-05T19:51:41Z</time>
      </trkpt>
      <trkpt lat="59.9732218" lon="17.7209018">
        <ele>32.3416</ele>
        <time>2012-10-05T19:51:42Z</time>
      </trkpt>
      <trkpt lat="59.9732018" lon="17.7208743">
        <ele>33.3029</ele>
        <time>2012-10-05T19:51:43Z</time>
      </trkpt>
      <trkpt lat="59.973181" lon="17.7208489">
        <ele>33.3029</ele>
        <time>2012-10-05T19:51:44Z</time>
      </trkpt>
      <trkpt lat="59.9731592" lon="17.7208164">
        <ele>33.3029</ele>
        <time>2012-10-05T19:51:45Z</time>
      </trkpt>
      <trkpt lat="59.973135" lon="17.7207864">
        <ele>33.3029</ele>
        <time>2012-10-05T19:51:46Z</time>
      </trkpt>
      <trkpt lat="59.973109" lon="17.7207624">
        <ele>33.3029</ele>
        <time>2012-10-05T19:51:47Z</time>
      </trkpt>
      <trkpt lat="59.9730898" lon="17.7207356">
        <ele>33.3029</ele>
        <time>2012-10-05T19:51:48Z</time>
      </trkpt>
      <trkpt lat="59.9730704" lon="17.7207112">
        <ele>32.8223</ele>
        <time>2012-10-05T19:51:49Z</time>
      </trkpt>
      <trkpt lat="59.9730437" lon="17.7206855">
        <ele>32.8223</ele>
        <time>2012-10-05T19:51:50Z</time>
      </trkpt>
      <trkpt lat="59.9730194" lon="17.7206603">
        <ele>32.8223</ele>
        <time>2012-10-05T19:51:51Z</time>
      </trkpt>
      <trkpt lat="59.9730049" lon="17.7206547">
        <ele>32.8223</ele>
        <time>2012-10-05T19:51:52Z</time>
      </trkpt>
      <trkpt lat="59.9729878" lon="17.720637">
        <ele>32.3416</ele>
        <time>2012-10-05T19:51:53Z</time>
      </trkpt>
      <trkpt lat="59.9729757" lon="17.7206172">
        <ele>32.3416</ele>
        <time>2012-10-05T19:51:54Z</time>
      </trkpt>
      <trkpt lat="59.9729585" lon="17.7206003">
        <ele>31.8607</ele>
        <time>2012-10-05T19:51:55Z</time>
      </trkpt>
      <trkpt lat="59.9729402" lon="17.7205749">
        <ele>31.3801</ele>
        <time>2012-10-05T19:51:56Z</time>
      </trkpt>
      <trkpt lat="59.9729252" lon="17.7205511">
        <ele>30.8995</ele>
        <time>2012-10-05T19:51:57Z</time>
      </trkpt>
      <trkpt lat="59.9729068" lon="17.7205298">
        <ele>30.8995</ele>
        <time>2012-10-05T19:51:58Z</time>
      </trkpt>
      <trkpt lat="59.9728893" lon="17.7205046">
        <ele>30.4188</ele>
        <time>2012-10-05T19:51:59Z</time>
      </trkpt>
      <trkpt lat="59.9728695" lon="17.7204763">
        <ele>29.9381</ele>
        <time>2012-10-05T19:52:00Z</time>
      </trkpt>
      <trkpt lat="59.9728536" lon="17.7204625">
        <ele>29.4575</ele>
        <time>2012-10-05T19:52:01Z</time>
      </trkpt>
      <trkpt lat="59.9728375" lon="17.7204499">
        <ele>28.9769</ele>
        <time>2012-10-05T19:52:02Z</time>
      </trkpt>
      <trkpt lat="59.9728188" lon="17.7204351">
        <ele>28.4962</ele>
        <time>2012-10-05T19:52:03Z</time>
      </trkpt>
      <trkpt lat="59.9727982" lon="17.7204184">
        <ele>28.4962</ele>
        <time>2012-10-05T19:52:04Z</time>
      </trkpt>
      <trkpt lat="59.9727781" lon="17.7203998">
        <ele>28.4962</ele>
        <time>2012-10-05T19:52:05Z</time>
      </trkpt>
      <trkpt lat="59.9727566" lon="17.7203785">
        <ele>28.0155</ele>
        <time>2012-10-05T19:52:06Z</time>
      </trkpt>
      <trkpt lat="59.9727361" lon="17.7203542">
        <ele>27.5349</ele>
        <time>2012-10-05T19:52:07Z</time>
      </trkpt>
      <trkpt lat="59.9727162" lon="17.7203428">
        <ele>27.5349</ele>
        <time>2012-10-05T19:52:08Z</time>
      </trkpt>
      <trkpt lat="59.9726925" lon="17.7203304">
        <ele>27.5349</ele>
        <time>2012-10-05T19:52:09Z</time>
      </trkpt>
      <trkpt lat="59.9726722" lon="17.7203075">
        <ele>27.5349</ele>
        <time>2012-10-05T19:52:10Z</time>
      </trkpt>
      <trkpt lat="59.972648" lon="17.7202908">
        <ele>27.5349</ele>
        <time>2012-10-05T19:52:11Z</time>
      </trkpt>
      <trkpt lat="59.9726235" lon="17.7202764">
        <ele>28.0155</ele>
        <time>2012-10-05T19:52:12Z</time>
      </trkpt>
      <trkpt lat="59.9726037" lon="17.7202598">
        <ele>27.5349</ele>
        <time>2012-10-05T19:52:13Z</time>
      </trkpt>
      <trkpt lat="59.972581" lon="17.7202447">
        <ele>27.5349</ele>
        <time>2012-10-05T19:52:14Z</time>
      </trkpt>
      <trkpt lat="59.9725605" lon="17.7202258">
        <ele>27.5349</ele>
        <time>2012-10-05T19:52:15Z</time>
      </trkpt>
      <trkpt lat="59.972536" lon="17.720211">
        <ele>27.5349</ele>
        <time>2012-10-05T19:52:16Z</time>
      </trkpt>
      <trkpt lat="59.972509" lon="17.7201988">
        <ele>27.5349</ele>
        <time>2012-10-05T19:52:17Z</time>
      </trkpt>
      <trkpt lat="59.9724878" lon="17.7201784">
        <ele>28.0155</ele>
        <time>2012-10-05T19:52:18Z</time>
      </trkpt>
      <trkpt lat="59.9724659" lon="17.720161">
        <ele>28.0155</ele>
        <time>2012-10-05T19:52:19Z</time>
      </trkpt>
      <trkpt lat="59.97244" lon="17.7201423">
        <ele>28.0155</ele>
        <time>2012-10-05T19:52:20Z</time>
      </trkpt>
      <trkpt lat="59.972416" lon="17.7201293">
        <ele>28.4962</ele>
        <time>2012-10-05T19:52:21Z</time>
      </trkpt>
      <trkpt lat="59.9723921" lon="17.7201204">
        <ele>28.9769</ele>
        <time>2012-10-05T19:52:22Z</time>
      </trkpt>
      <trkpt lat="59.9723621" lon="17.7201039">
        <ele>28.9769</ele>
        <time>2012-10-05T19:52:23Z</time>
      </trkpt>
      <trkpt lat="59.9723359" lon="17.7200842">
        <ele>28.9769</ele>
        <time>2012-10-05T19:52:24Z</time>
      </trkpt>
      <trkpt lat="59.9723114" lon="17.7200647">
        <ele>29.4575</ele>
        <time>2012-10-05T19:52:25Z</time>
      </trkpt>
      <trkpt lat="59.9722885" lon="17.7200487">
        <ele>29.4575</ele>
        <time>2012-10-05T19:52:26Z</time>
      </trkpt>
      <trkpt lat="59.9722698" lon="17.720031">
        <ele>29.4575</ele>
        <time>2012-10-05T19:52:27Z</time>
      </trkpt>
      <trkpt lat="59.9722476" lon="17.7200184">
        <ele>29.4575</ele>
        <time>2012-10-05T19:52:28Z</time>
      </trkpt>
      <trkpt lat="59.9722232" lon="17.7200085">
        <ele>29.4575</ele>
        <time>2012-10-05T19:52:29Z</time>
      </trkpt>
      <trkpt lat="59.9721993" lon="17.7199937">
        <ele>29.4575</ele>
        <time>2012-10-05T19:52:30Z</time>
      </trkpt>
      <trkpt lat="59.9721765" lon="17.7199845">
        <ele>29.4575</ele>
        <time>2012-10-05T19:52:31Z</time>
      </trkpt>
      <trkpt lat="59.9721553" lon="17.7199713">
        <ele>29.4575</ele>
        <time>2012-10-05T19:52:32Z</time>
      </trkpt>
      <trkpt lat="59.9721382" lon="17.7199568">
        <ele>29.4575</ele>
        <time>2012-10-05T19:52:33Z</time>
      </trkpt>
      <trkpt lat="59.9721134" lon="17.719931">
        <ele>29.9381</ele>
        <time>2012-10-05T19:52:34Z</time>
      </trkpt>
      <trkpt lat="59.9720933" lon="17.7199037">
        <ele>29.9381</ele>
        <time>2012-10-05T19:52:35Z</time>
      </trkpt>
      <trkpt lat="59.9720719" lon="17.7198859">
        <ele>30.4188</ele>
        <time>2012-10-05T19:52:36Z</time>
      </trkpt>
      <trkpt lat="59.9720458" lon="17.7198694">
        <ele>30.8995</ele>
        <time>2012-10-05T19:52:37Z</time>
      </trkpt>
      <trkpt lat="59.9720232" lon="17.7198507">
        <ele>30.8995</ele>
        <time>2012-10-05T19:52:38Z</time>
      </trkpt>
      <trkpt lat="59.9719962" lon="17.7198316">
        <ele>31.3801</ele>
        <time>2012-10-05T19:52:39Z</time>
      </trkpt>
      <trkpt lat="59.9719715" lon="17.7198094">
        <ele>31.3801</ele>
        <time>2012-10-05T19:52:40Z</time>
      </trkpt>
      <trkpt lat="59.9719528" lon="17.7197865">
        <ele>31.8607</ele>
        <time>2012-10-05T19:52:41Z</time>
      </trkpt>
      <trkpt lat="59.9719394" lon="17.7197694">
        <ele>32.3416</ele>
        <time>2012-10-05T19:52:42Z</time>
      </trkpt>
      <trkpt lat="59.9719258" lon="17.7197506">
        <ele>32.3416</ele>
        <time>2012-10-05T19:52:43Z</time>
      </trkpt>
      <trkpt lat="59.971905" lon="17.7197303">
        <ele>32.3416</ele>
        <time>2012-10-05T19:52:44Z</time>
      </trkpt>
      <trkpt lat="59.9718773" lon="17.7197081">
        <ele>32.3416</ele>
        <time>2012-10-05T19:52:45Z</time>
      </trkpt>
      <trkpt lat="59.9718513" lon="17.7196873">
        <ele>32.8223</ele>
        <time>2012-10-05T19:52:46Z</time>
      </trkpt>
      <trkpt lat="59.9718249" lon="17.7196671">
        <ele>32.8223</ele>
        <time>2012-10-05T19:52:47Z</time>
      </trkpt>
      <trkpt lat="59.9718018" lon="17.7196502">
        <ele>32.8223</ele>
        <time>2012-10-05T19:52:48Z</time>
      </trkpt>
      <trkpt lat="59.9717817" lon="17.7196314">
        <ele>32.8223</ele>
        <time>2012-10-05T19:52:49Z</time>
      </trkpt>
      <trkpt lat="59.9717583" lon="17.7196032">
        <ele>32.8223</ele>
        <time>2012-10-05T19:52:50Z</time>
      </trkpt>
      <trkpt lat="59.9717317" lon="17.71957">
        <ele>32.8223</ele>
        <time>2012-10-05T19:52:51Z</time>
      </trkpt>
      <trkpt lat="59.9717053" lon="17.7195407">
        <ele>32.8223</ele>
        <time>2012-10-05T19:52:52Z</time>
      </trkpt>
      <trkpt lat="59.9716773" lon="17.7195149">
        <ele>32.8223</ele>
        <time>2012-10-05T19:52:53Z</time>
      </trkpt>
      <trkpt lat="59.9716534" lon="17.719485">
        <ele>32.8223</ele>
        <time>2012-10-05T19:52:54Z</time>
      </trkpt>
      <trkpt lat="59.9716273" lon="17.7194596">
        <ele>32.8223</ele>
        <time>2012-10-05T19:52:55Z</time>
      </trkpt>
      <trkpt lat="59.9716024" lon="17.7194384">
        <ele>32.8223</ele>
        <time>2012-10-05T19:52:56Z</time>
      </trkpt>
      <trkpt lat="59.9715797" lon="17.7194123">
        <ele>32.3416</ele>
        <time>2012-10-05T19:52:57Z</time>
      </trkpt>
      <trkpt lat="59.9715565" lon="17.7193886">
        <ele>31.8607</ele>
        <time>2012-10-05T19:52:58Z</time>
      </trkpt>
      <trkpt lat="59.9715338" lon="17.7193686">
        <ele>31.8607</ele>
        <time>2012-10-05T19:52:59Z</time>
      </trkpt>
      <trkpt lat="59.9715068" lon="17.7193537">
        <ele>31.8607</ele>
        <time>2012-10-05T19:53:00Z</time>
      </trkpt>
      <trkpt lat="59.9714809" lon="17.7193353">
        <ele>31.3801</ele>
        <time>2012-10-05T19:53:01Z</time>
      </trkpt>
      <trkpt lat="59.9714564" lon="17.719314">
        <ele>30.8995</ele>
        <time>2012-10-05T19:53:02Z</time>
      </trkpt>
      <trkpt lat="59.9714337" lon="17.7192898">
        <ele>30.4188</ele>
        <time>2012-10-05T19:53:03Z</time>
      </trkpt>
      <trkpt lat="59.9714078" lon="17.7192608">
        <ele>30.4188</ele>
        <time>2012-10-05T19:53:04Z</time>
      </trkpt>
      <trkpt lat="59.9713852" lon="17.7192369">
        <ele>29.9381</ele>
        <time>2012-10-05T19:53:05Z</time>
      </trkpt>
      <trkpt lat="59.9713612" lon="17.7192198">
        <ele>29.9381</ele>
        <time>2012-10-05T19:53:06Z</time>
      </trkpt>
      <trkpt lat="59.9713385" lon="17.7191975">
        <ele>29.9381</ele>
        <time>2012-10-05T19:53:07Z</time>
      </trkpt>
      <trkpt lat="59.9713167" lon="17.7191738">
        <ele>29.9381</ele>
        <time>2012-10-05T19:53:08Z</time>
      </trkpt>
      <trkpt lat="59.9712964" lon="17.7191545">
        <ele>29.9381</ele>
        <time>2012-10-05T19:53:09Z</time>
      </trkpt>
      <trkpt lat="59.971281" lon="17.71914">
        <ele>29.4575</ele>
        <time>2012-10-05T19:53:10Z</time>
      </trkpt>
      <trkpt lat="59.9712623" lon="17.719125">
        <ele>29.4575</ele>
        <time>2012-10-05T19:53:11Z</time>
      </trkpt>
      <trkpt lat="59.971241" lon="17.7191095">
        <ele>29.4575</ele>
        <time>2012-10-05T19:53:12Z</time>
      </trkpt>
      <trkpt lat="59.9712191" lon="17.7190964">
        <ele>28.9769</ele>
        <time>2012-10-05T19:53:13Z</time>
      </trkpt>
      <trkpt lat="59.9711975" lon="17.719086">
        <ele>28.4962</ele>
        <time>2012-10-05T19:53:14Z</time>
      </trkpt>
      <trkpt lat="59.9711776" lon="17.7190647">
        <ele>28.0155</ele>
        <time>2012-10-05T19:53:15Z</time>
      </trkpt>
      <trkpt lat="59.9711587" lon="17.7190468">
        <ele>27.5349</ele>
        <time>2012-10-05T19:53:16Z</time>
      </trkpt>
      <trkpt lat="59.9711373" lon="17.7190394">
        <ele>27.0543</ele>
        <time>2012-10-05T19:53:17Z</time>
      </trkpt>
      <trkpt lat="59.9711196" lon="17.7190274">
        <ele>26.5736</ele>
        <time>2012-10-05T19:53:18Z</time>
      </trkpt>
      <trkpt lat="59.9710906" lon="17.7189955">
        <ele>26.5736</ele>
        <time>2012-10-05T19:53:19Z</time>
      </trkpt>
      <trkpt lat="59.9710602" lon="17.7189627">
        <ele>27.0543</ele>
        <time>2012-10-05T19:53:20Z</time>
      </trkpt>
      <trkpt lat="59.9710429" lon="17.7189476">
        <ele>26.5736</ele>
        <time>2012-10-05T19:53:21Z</time>
      </trkpt>
      <trkpt lat="59.9710191" lon="17.7189307">
        <ele>26.5736</ele>
        <time>2012-10-05T19:53:22Z</time>
      </trkpt>
      <trkpt lat="59.9709929" lon="17.7189116">
        <ele>26.5736</ele>
        <time>2012-10-05T19:53:23Z</time>
      </trkpt>
      <trkpt lat="59.970966" lon="17.7188915">
        <ele>26.5736</ele>
        <time>2012-10-05T19:53:24Z</time>
      </trkpt>
      <trkpt lat="59.9709442" lon="17.7188758">
        <ele>27.0543</ele>
        <time>2012-10-05T19:53:25Z</time>
      </trkpt>
      <trkpt lat="59.970923" lon="17.7188562">
        <ele>27.0543</ele>
        <time>2012-10-05T19:53:26Z</time>
      </trkpt>
      <trkpt lat="59.9708981" lon="17.7188369">
        <ele>27.0543</ele>
        <time>2012-10-05T19:53:27Z</time>
      </trkpt>
      <trkpt lat="59.970873" lon="17.7188235">
        <ele>27.5349</ele>
        <time>2012-10-05T19:53:28Z</time>
      </trkpt>
      <trkpt lat="59.9708514" lon="17.7188019">
        <ele>27.5349</ele>
        <time>2012-10-05T19:53:29Z</time>
      </trkpt>
      <trkpt lat="59.9708266" lon="17.7187774">
        <ele>27.5349</ele>
        <time>2012-10-05T19:53:30Z</time>
      </trkpt>
      <trkpt lat="59.9708054" lon="17.7187557">
        <ele>27.5349</ele>
        <time>2012-10-05T19:53:31Z</time>
      </trkpt>
      <trkpt lat="59.9707808" lon="17.7187312">
        <ele>28.0155</ele>
        <time>2012-10-05T19:53:32Z</time>
      </trkpt>
      <trkpt lat="59.9707572" lon="17.7187079">
        <ele>28.0155</ele>
        <time>2012-10-05T19:53:33Z</time>
      </trkpt>
      <trkpt lat="59.9707345" lon="17.7186842">
        <ele>28.0155</ele>
        <time>2012-10-05T19:53:34Z</time>
      </trkpt>
      <trkpt lat="59.9707132" lon="17.7186598">
        <ele>28.0155</ele>
        <time>2012-10-05T19:53:35Z</time>
      </trkpt>
      <trkpt lat="59.9706955" lon="17.7186394">
        <ele>28.4962</ele>
        <time>2012-10-05T19:53:36Z</time>
      </trkpt>
      <trkpt lat="59.970676" lon="17.7186138">
        <ele>28.9769</ele>
        <time>2012-10-05T19:53:37Z</time>
      </trkpt>
      <trkpt lat="59.9706525" lon="17.7185943">
        <ele>28.9769</ele>
        <time>2012-10-05T19:53:38Z</time>
      </trkpt>
      <trkpt lat="59.9706271" lon="17.7185786">
        <ele>28.9769</ele>
        <time>2012-10-05T19:53:39Z</time>
      </trkpt>
      <trkpt lat="59.9705982" lon="17.7185535">
        <ele>28.9769</ele>
        <time>2012-10-05T19:53:40Z</time>
      </trkpt>
      <trkpt lat="59.9705677" lon="17.7185288">
        <ele>29.4575</ele>
        <time>2012-10-05T19:53:41Z</time>
      </trkpt>
      <trkpt lat="59.9705396" lon="17.7185075">
        <ele>29.4575</ele>
        <time>2012-10-05T19:53:42Z</time>
      </trkpt>
      <trkpt lat="59.9705148" lon="17.7184861">
        <ele>29.4575</ele>
        <time>2012-10-05T19:53:43Z</time>
      </trkpt>
      <trkpt lat="59.9704885" lon="17.7184646">
        <ele>29.9381</ele>
        <time>2012-10-05T19:53:44Z</time>
      </trkpt>
      <trkpt lat="59.9704661" lon="17.7184386">
        <ele>30.4188</ele>
        <time>2012-10-05T19:53:45Z</time>
      </trkpt>
      <trkpt lat="59.9704496" lon="17.718421">
        <ele>30.4188</ele>
        <time>2012-10-05T19:53:46Z</time>
      </trkpt>
      <trkpt lat="59.9704288" lon="17.7184084">
        <ele>30.8995</ele>
        <time>2012-10-05T19:53:47Z</time>
      </trkpt>
      <trkpt lat="59.9704029" lon="17.7183884">
        <ele>31.8607</ele>
        <time>2012-10-05T19:53:48Z</time>
      </trkpt>
      <trkpt lat="59.9703786" lon="17.7183678">
        <ele>31.3801</ele>
        <time>2012-10-05T19:53:49Z</time>
      </trkpt>
      <trkpt lat="59.9703524" lon="17.7183488">
        <ele>31.8607</ele>
        <time>2012-10-05T19:53:50Z</time>
      </trkpt>
      <trkpt lat="59.9703241" lon="17.7183308">
        <ele>32.3416</ele>
        <time>2012-10-05T19:53:51Z</time>
      </trkpt>
      <trkpt lat="59.9703032" lon="17.7183283">
        <ele>32.3416</ele>
        <time>2012-10-05T19:53:52Z</time>
      </trkpt>
      <trkpt lat="59.9702865" lon="17.7183232">
        <ele>32.8223</ele>
        <time>2012-10-05T19:53:53Z</time>
      </trkpt>
      <trkpt lat="59.9702677" lon="17.7183014">
        <ele>32.8223</ele>
        <time>2012-10-05T19:53:54Z</time>
      </trkpt>
      <trkpt lat="59.9702414" lon="17.7182786">
        <ele>32.8223</ele>
        <time>2012-10-05T19:53:55Z</time>
      </trkpt>
      <trkpt lat="59.9702131" lon="17.7182661">
        <ele>33.7834</ele>
        <time>2012-10-05T19:53:56Z</time>
      </trkpt>
      <trkpt lat="59.970189" lon="17.7182455">
        <ele>33.7834</ele>
        <time>2012-10-05T19:53:57Z</time>
      </trkpt>
      <trkpt lat="59.9701702" lon="17.7182265">
        <ele>34.2642</ele>
        <time>2012-10-05T19:53:58Z</time>
      </trkpt>
      <trkpt lat="59.970148" lon="17.7182098">
        <ele>34.7449</ele>
        <time>2012-10-05T19:53:59Z</time>
      </trkpt>
      <trkpt lat="59.9701236" lon="17.7181915">
        <ele>35.2255</ele>
        <time>2012-10-05T19:54:00Z</time>
      </trkpt>
      <trkpt lat="59.9701024" lon="17.7181734">
        <ele>35.7061</ele>
        <time>2012-10-05T19:54:01Z</time>
      </trkpt>
      <trkpt lat="59.970079" lon="17.7181523">
        <ele>35.7061</ele>
        <time>2012-10-05T19:54:02Z</time>
      </trkpt>
      <trkpt lat="59.9700542" lon="17.7181312">
        <ele>36.1868</ele>
        <time>2012-10-05T19:54:03Z</time>
      </trkpt>
      <trkpt lat="59.970034" lon="17.7181138">
        <ele>36.6675</ele>
        <time>2012-10-05T19:54:04Z</time>
      </trkpt>
      <trkpt lat="59.9700111" lon="17.7180898">
        <ele>36.1868</ele>
        <time>2012-10-05T19:54:05Z</time>
      </trkpt>
      <trkpt lat="59.969988" lon="17.7180661">
        <ele>36.1868</ele>
        <time>2012-10-05T19:54:06Z</time>
      </trkpt>
      <trkpt lat="59.9699703" lon="17.7180449">
        <ele>35.7061</ele>
        <time>2012-10-05T19:54:07Z</time>
      </trkpt>
      <trkpt lat="59.9699487" lon="17.7180242">
        <ele>35.7061</ele>
        <time>2012-10-05T19:54:08Z</time>
      </trkpt>
      <trkpt lat="59.9699305" lon="17.7180051">
        <ele>35.7061</ele>
        <time>2012-10-05T19:54:09Z</time>
      </trkpt>
      <trkpt lat="59.9699113" lon="17.7179903">
        <ele>36.6675</ele>
        <time>2012-10-05T19:54:10Z</time>
      </trkpt>
      <trkpt lat="59.9698897" lon="17.7179746">
        <ele>37.1481</ele>
        <time>2012-10-05T19:54:11Z</time>
      </trkpt>
      <trkpt lat="59.9698719" lon="17.7179542">
        <ele>37.1481</ele>
        <time>2012-10-05T19:54:12Z</time>
      </trkpt>
      <trkpt lat="59.9698528" lon="17.7179352">
        <ele>37.1481</ele>
        <time>2012-10-05T19:54:13Z</time>
      </trkpt>
      <trkpt lat="59.9698358" lon="17.7179209">
        <ele>37.1481</ele>
        <time>2012-10-05T19:54:14Z</time>
      </trkpt>
      <trkpt lat="59.9698114" lon="17.7178983">
        <ele>37.1481</ele>
        <time>2012-10-05T19:54:15Z</time>
      </trkpt>
      <trkpt lat="59.9697926" lon="17.7178831">
        <ele>37.1481</ele>
        <time>2012-10-05T19:54:16Z</time>
      </trkpt>
      <trkpt lat="59.9697729" lon="17.7178667">
        <ele>37.1481</ele>
        <time>2012-10-05T19:54:17Z</time>
      </trkpt>
      <trkpt lat="59.9697512" lon="17.7178429">
        <ele>37.1481</ele>
        <time>2012-10-05T19:54:18Z</time>
      </trkpt>
      <trkpt lat="59.9697309" lon="17.7178305">
        <ele>37.6287</ele>
        <time>2012-10-05T19:54:19Z</time>
      </trkpt>
      <trkpt lat="59.9697089" lon="17.7178201">
        <ele>37.6287</ele>
        <time>2012-10-05T19:54:20Z</time>
      </trkpt>
      <trkpt lat="59.9696894" lon="17.7178119">
        <ele>38.1094</ele>
        <time>2012-10-05T19:54:21Z</time>
      </trkpt>
      <trkpt lat="59.9696697" lon="17.7178021">
        <ele>38.1094</ele>
        <time>2012-10-05T19:54:22Z</time>
      </trkpt>
      <trkpt lat="59.9696498" lon="17.7177849">
        <ele>38.1094</ele>
        <time>2012-10-05T19:54:23Z</time>
      </trkpt>
      <trkpt lat="59.9696218" lon="17.7177707">
        <ele>38.1094</ele>
        <time>2012-10-05T19:54:24Z</time>
      </trkpt>
      <trkpt lat="59.9695943" lon="17.7177617">
        <ele>38.1094</ele>
        <time>2012-10-05T19:54:25Z</time>
      </trkpt>
      <trkpt lat="59.9695794" lon="17.7177526">
        <ele>38.5901</ele>
        <time>2012-10-05T19:54:26Z</time>
      </trkpt>
      <trkpt lat="59.9695531" lon="17.7177345">
        <ele>38.5901</ele>
        <time>2012-10-05T19:54:27Z</time>
      </trkpt>
      <trkpt lat="59.9695241" lon="17.7177184">
        <ele>38.5901</ele>
        <time>2012-10-05T19:54:28Z</time>
      </trkpt>
      <trkpt lat="59.9695003" lon="17.7177014">
        <ele>38.5901</ele>
        <time>2012-10-05T19:54:29Z</time>
      </trkpt>
      <trkpt lat="59.9694752" lon="17.7176839">
        <ele>38.5901</ele>
        <time>2012-10-05T19:54:30Z</time>
      </trkpt>
      <trkpt lat="59.969456" lon="17.7176749">
        <ele>38.5901</ele>
        <time>2012-10-05T19:54:31Z</time>
      </trkpt>
      <trkpt lat="59.9694351" lon="17.7176554">
        <ele>38.5901</ele>
        <time>2012-10-05T19:54:32Z</time>
      </trkpt>
      <trkpt lat="59.9694067" lon="17.7176265">
        <ele>38.5901</ele>
        <time>2012-10-05T19:54:33Z</time>
      </trkpt>
      <trkpt lat="59.9693727" lon="17.7176025">
        <ele>38.5901</ele>
        <time>2012-10-05T19:54:34Z</time>
      </trkpt>
      <trkpt lat="59.969342" lon="17.7175835">
        <ele>38.5901</ele>
        <time>2012-10-05T19:54:35Z</time>
      </trkpt>
      <trkpt lat="59.9693167" lon="17.7175661">
        <ele>39.0707</ele>
        <time>2012-10-05T19:54:36Z</time>
      </trkpt>
      <trkpt lat="59.9692903" lon="17.7175545">
        <ele>39.0707</ele>
        <time>2012-10-05T19:54:37Z</time>
      </trkpt>
      <trkpt lat="59.9692689" lon="17.717549">
        <ele>39.5513</ele>
        <time>2012-10-05T19:54:38Z</time>
      </trkpt>
      <trkpt lat="59.9692515" lon="17.7175391">
        <ele>40.0321</ele>
        <time>2012-10-05T19:54:39Z</time>
      </trkpt>
      <trkpt lat="59.9692274" lon="17.7175293">
        <ele>40.0321</ele>
        <time>2012-10-05T19:54:40Z</time>
      </trkpt>
      <trkpt lat="59.9692006" lon="17.7175257">
        <ele>40.5128</ele>
        <time>2012-10-05T19:54:41Z</time>
      </trkpt>
      <trkpt lat="59.9691742" lon="17.7175203">
        <ele>40.5128</ele>
        <time>2012-10-05T19:54:42Z</time>
      </trkpt>
      <trkpt lat="59.9691509" lon="17.7175136">
        <ele>40.9934</ele>
        <time>2012-10-05T19:54:43Z</time>
      </trkpt>
      <trkpt lat="59.9691251" lon="17.7175074">
        <ele>41.474</ele>
        <time>2012-10-05T19:54:44Z</time>
      </trkpt>
      <trkpt lat="59.9690945" lon="17.7175025">
        <ele>41.474</ele>
        <time>2012-10-05T19:54:45Z</time>
      </trkpt>
      <trkpt lat="59.9690612" lon="17.7174938">
        <ele>41.9547</ele>
        <time>2012-10-05T19:54:46Z</time>
      </trkpt>
      <trkpt lat="59.9690347" lon="17.7174808">
        <ele>41.474</ele>
        <time>2012-10-05T19:54:47Z</time>
      </trkpt>
      <trkpt lat="59.9690139" lon="17.7174695">
        <ele>40.9934</ele>
        <time>2012-10-05T19:54:48Z</time>
      </trkpt>
      <trkpt lat="59.9689935" lon="17.7174585">
        <ele>40.9934</ele>
        <time>2012-10-05T19:54:49Z</time>
      </trkpt>
      <trkpt lat="59.9689629" lon="17.7174579">
        <ele>41.474</ele>
        <time>2012-10-05T19:54:50Z</time>
      </trkpt>
      <trkpt lat="59.9689315" lon="17.7174637">
        <ele>41.474</ele>
        <time>2012-10-05T19:54:51Z</time>
      </trkpt>
      <trkpt lat="59.9689038" lon="17.7174732">
        <ele>41.474</ele>
        <time>2012-10-05T19:54:52Z</time>
      </trkpt>
      <trkpt lat="59.9688775" lon="17.7174866">
        <ele>41.474</ele>
        <time>2012-10-05T19:54:53Z</time>
      </trkpt>
      <trkpt lat="59.9688498" lon="17.7174996">
        <ele>41.474</ele>
        <time>2012-10-05T19:54:54Z</time>
      </trkpt>
      <trkpt lat="59.9688188" lon="17.7175081">
        <ele>41.9547</ele>
        <time>2012-10-05T19:54:55Z</time>
      </trkpt>
      <trkpt lat="59.9687831" lon="17.7175195">
        <ele>41.9547</ele>
        <time>2012-10-05T19:54:56Z</time>
      </trkpt>
      <trkpt lat="59.9687478" lon="17.7175243">
        <ele>41.474</ele>
        <time>2012-10-05T19:54:57Z</time>
      </trkpt>
      <trkpt lat="59.9687153" lon="17.7175286">
        <ele>41.474</ele>
        <time>2012-10-05T19:54:58Z</time>
      </trkpt>
      <trkpt lat="59.9686821" lon="17.7175303">
        <ele>40.9934</ele>
        <time>2012-10-05T19:54:59Z</time>
      </trkpt>
      <trkpt lat="59.9686524" lon="17.7175294">
        <ele>40.5128</ele>
        <time>2012-10-05T19:55:00Z</time>
      </trkpt>
      <trkpt lat="59.9686292" lon="17.7175195">
        <ele>39.5513</ele>
        <time>2012-10-05T19:55:01Z</time>
      </trkpt>
      <trkpt lat="59.9686099" lon="17.7175154">
        <ele>39.0707</ele>
        <time>2012-10-05T19:55:02Z</time>
      </trkpt>
      <trkpt lat="59.9685878" lon="17.7175186">
        <ele>38.1094</ele>
        <time>2012-10-05T19:55:03Z</time>
      </trkpt>
      <trkpt lat="59.9685648" lon="17.7175179">
        <ele>37.6287</ele>
        <time>2012-10-05T19:55:04Z</time>
      </trkpt>
      <trkpt lat="59.9685457" lon="17.7175094">
        <ele>37.1481</ele>
        <time>2012-10-05T19:55:05Z</time>
      </trkpt>
      <trkpt lat="59.9685254" lon="17.7175053">
        <ele>36.6675</ele>
        <time>2012-10-05T19:55:06Z</time>
      </trkpt>
      <trkpt lat="59.9685004" lon="17.7175042">
        <ele>36.1868</ele>
        <time>2012-10-05T19:55:07Z</time>
      </trkpt>
      <trkpt lat="59.9684798" lon="17.717492">
        <ele>35.2255</ele>
        <time>2012-10-05T19:55:08Z</time>
      </trkpt>
      <trkpt lat="59.9684572" lon="17.7175006">
        <ele>33.7834</ele>
        <time>2012-10-05T19:55:09Z</time>
      </trkpt>
      <trkpt lat="59.968436" lon="17.71752">
        <ele>30.8995</ele>
        <time>2012-10-05T19:55:10Z</time>
      </trkpt>
      <trkpt lat="59.9684126" lon="17.7175109">
        <ele>29.4575</ele>
        <time>2012-10-05T19:55:11Z</time>
      </trkpt>
      <trkpt lat="59.9683897" lon="17.7174991">
        <ele>28.9769</ele>
        <time>2012-10-05T19:55:12Z</time>
      </trkpt>
      <trkpt lat="59.9683686" lon="17.7174933">
        <ele>28.0155</ele>
        <time>2012-10-05T19:55:13Z</time>
      </trkpt>
      <trkpt lat="59.968347" lon="17.7174873">
        <ele>27.5349</ele>
        <time>2012-10-05T19:55:14Z</time>
      </trkpt>
      <trkpt lat="59.9683237" lon="17.7174726">
        <ele>27.0543</ele>
        <time>2012-10-05T19:55:15Z</time>
      </trkpt>
      <trkpt lat="59.9682988" lon="17.7174585">
        <ele>26.5736</ele>
        <time>2012-10-05T19:55:16Z</time>
      </trkpt>
      <trkpt lat="59.9682713" lon="17.7174518">
        <ele>25.6123</ele>
        <time>2012-10-05T19:55:17Z</time>
      </trkpt>
      <trkpt lat="59.9682418" lon="17.7174425">
        <ele>25.1317</ele>
        <time>2012-10-05T19:55:18Z</time>
      </trkpt>
      <trkpt lat="59.9682065" lon="17.7174176">
        <ele>25.1317</ele>
        <time>2012-10-05T19:55:19Z</time>
      </trkpt>
      <trkpt lat="59.9681754" lon="17.7173828">
        <ele>25.1317</ele>
        <time>2012-10-05T19:55:20Z</time>
      </trkpt>
      <trkpt lat="59.9681506" lon="17.7173532">
        <ele>25.6123</ele>
        <time>2012-10-05T19:55:21Z</time>
      </trkpt>
      <trkpt lat="59.9681236" lon="17.7173294">
        <ele>26.0929</ele>
        <time>2012-10-05T19:55:22Z</time>
      </trkpt>
      <trkpt lat="59.9681001" lon="17.7173026">
        <ele>25.6123</ele>
        <time>2012-10-05T19:55:23Z</time>
      </trkpt>
      <trkpt lat="59.9680795" lon="17.7172711">
        <ele>25.1317</ele>
        <time>2012-10-05T19:55:24Z</time>
      </trkpt>
      <trkpt lat="59.9680506" lon="17.7172401">
        <ele>25.1317</ele>
        <time>2012-10-05T19:55:25Z</time>
      </trkpt>
      <trkpt lat="59.9680271" lon="17.7172105">
        <ele>25.1317</ele>
        <time>2012-10-05T19:55:26Z</time>
      </trkpt>
      <trkpt lat="59.9680167" lon="17.7171765">
        <ele>25.6123</ele>
        <time>2012-10-05T19:55:27Z</time>
      </trkpt>
      <trkpt lat="59.9680004" lon="17.7171467">
        <ele>25.6123</ele>
        <time>2012-10-05T19:55:28Z</time>
      </trkpt>
      <trkpt lat="59.9679803" lon="17.7171094">
        <ele>25.6123</ele>
        <time>2012-10-05T19:55:29Z</time>
      </trkpt>
      <trkpt lat="59.9679639" lon="17.7170649">
        <ele>26.0929</ele>
        <time>2012-10-05T19:55:30Z</time>
      </trkpt>
      <trkpt lat="59.9679458" lon="17.7170219">
        <ele>26.5736</ele>
        <time>2012-10-05T19:55:31Z</time>
      </trkpt>
      <trkpt lat="59.9679284" lon="17.7169883">
        <ele>27.0543</ele>
        <time>2012-10-05T19:55:32Z</time>
      </trkpt>
      <trkpt lat="59.9679051" lon="17.7169443">
        <ele>27.0543</ele>
        <time>2012-10-05T19:55:33Z</time>
      </trkpt>
      <trkpt lat="59.9678793" lon="17.7169007">
        <ele>28.0155</ele>
        <time>2012-10-05T19:55:34Z</time>
      </trkpt>
      <trkpt lat="59.9678582" lon="17.7168666">
        <ele>28.9769</ele>
        <time>2012-10-05T19:55:35Z</time>
      </trkpt>
      <trkpt lat="59.9678298" lon="17.716821">
        <ele>28.9769</ele>
        <time>2012-10-05T19:55:36Z</time>
      </trkpt>
      <trkpt lat="59.9678024" lon="17.7167746">
        <ele>29.4575</ele>
        <time>2012-10-05T19:55:37Z</time>
      </trkpt>
      <trkpt lat="59.9677867" lon="17.7167308">
        <ele>28.9769</ele>
        <time>2012-10-05T19:55:38Z</time>
      </trkpt>
      <trkpt lat="59.9677735" lon="17.7166805">
        <ele>29.9381</ele>
        <time>2012-10-05T19:55:39Z</time>
      </trkpt>
      <trkpt lat="59.96776" lon="17.7166391">
        <ele>29.9381</ele>
        <time>2012-10-05T19:55:40Z</time>
      </trkpt>
      <trkpt lat="59.9677439" lon="17.7165927">
        <ele>29.9381</ele>
        <time>2012-10-05T19:55:41Z</time>
      </trkpt>
      <trkpt lat="59.9677278" lon="17.7165488">
        <ele>30.4188</ele>
        <time>2012-10-05T19:55:42Z</time>
      </trkpt>
      <trkpt lat="59.9677158" lon="17.7165174">
        <ele>30.8995</ele>
        <time>2012-10-05T19:55:43Z</time>
      </trkpt>
      <trkpt lat="59.9677051" lon="17.7164739">
        <ele>30.4188</ele>
        <time>2012-10-05T19:55:44Z</time>
      </trkpt>
      <trkpt lat="59.9676983" lon="17.7164294">
        <ele>30.4188</ele>
        <time>2012-10-05T19:55:45Z</time>
      </trkpt>
      <trkpt lat="59.967686" lon="17.716392">
        <ele>31.3801</ele>
        <time>2012-10-05T19:55:46Z</time>
      </trkpt>
      <trkpt lat="59.9676743" lon="17.7163455">
        <ele>31.3801</ele>
        <time>2012-10-05T19:55:47Z</time>
      </trkpt>
      <trkpt lat="59.9676647" lon="17.7163047">
        <ele>30.8995</ele>
        <time>2012-10-05T19:55:48Z</time>
      </trkpt>
      <trkpt lat="59.9676523" lon="17.7162604">
        <ele>31.3801</ele>
        <time>2012-10-05T19:55:49Z</time>
      </trkpt>
      <trkpt lat="59.9676393" lon="17.7162079">
        <ele>31.3801</ele>
        <time>2012-10-05T19:55:50Z</time>
      </trkpt>
      <trkpt lat="59.9676287" lon="17.7161661">
        <ele>31.8607</ele>
        <time>2012-10-05T19:55:51Z</time>
      </trkpt>
      <trkpt lat="59.9676113" lon="17.7161257">
        <ele>32.3416</ele>
        <time>2012-10-05T19:55:52Z</time>
      </trkpt>
      <trkpt lat="59.9675933" lon="17.716076">
        <ele>32.3416</ele>
        <time>2012-10-05T19:55:53Z</time>
      </trkpt>
      <trkpt lat="59.9675749" lon="17.7160266">
        <ele>32.3416</ele>
        <time>2012-10-05T19:55:54Z</time>
      </trkpt>
      <trkpt lat="59.9675559" lon="17.715991">
        <ele>31.8607</ele>
        <time>2012-10-05T19:55:55Z</time>
      </trkpt>
      <trkpt lat="59.967534" lon="17.7159423">
        <ele>31.8607</ele>
        <time>2012-10-05T19:55:56Z</time>
      </trkpt>
      <trkpt lat="59.9675186" lon="17.715894">
        <ele>32.3416</ele>
        <time>2012-10-05T19:55:57Z</time>
      </trkpt>
      <trkpt lat="59.9675083" lon="17.7158453">
        <ele>32.3416</ele>
        <time>2012-10-05T19:55:58Z</time>
      </trkpt>
      <trkpt lat="59.9674989" lon="17.7157864">
        <ele>32.3416</ele>
        <time>2012-10-05T19:55:59Z</time>
      </trkpt>
      <trkpt lat="59.9674932" lon="17.7157346">
        <ele>32.3416</ele>
        <time>2012-10-05T19:56:00Z</time>
      </trkpt>
      <trkpt lat="59.9674863" lon="17.7156725">
        <ele>32.3416</ele>
        <time>2012-10-05T19:56:01Z</time>
      </trkpt>
      <trkpt lat="59.9674816" lon="17.7156166">
        <ele>32.3416</ele>
        <time>2012-10-05T19:56:02Z</time>
      </trkpt>
      <trkpt lat="59.9674714" lon="17.7155736">
        <ele>32.3416</ele>
        <time>2012-10-05T19:56:03Z</time>
      </trkpt>
      <trkpt lat="59.9674658" lon="17.7155232">
        <ele>32.3416</ele>
        <time>2012-10-05T19:56:04Z</time>
      </trkpt>
      <trkpt lat="59.9674672" lon="17.7154666">
        <ele>32.3416</ele>
        <time>2012-10-05T19:56:05Z</time>
      </trkpt>
      <trkpt lat="59.9674642" lon="17.7154133">
        <ele>32.3416</ele>
        <time>2012-10-05T19:56:06Z</time>
      </trkpt>
      <trkpt lat="59.9674563" lon="17.7153631">
        <ele>32.3416</ele>
        <time>2012-10-05T19:56:07Z</time>
      </trkpt>
      <trkpt lat="59.9674517" lon="17.7153071">
        <ele>32.8223</ele>
        <time>2012-10-05T19:56:08Z</time>
      </trkpt>
      <trkpt lat="59.9674454" lon="17.7152482">
        <ele>32.8223</ele>
        <time>2012-10-05T19:56:09Z</time>
      </trkpt>
      <trkpt lat="59.9674352" lon="17.7152052">
        <ele>33.7834</ele>
        <time>2012-10-05T19:56:10Z</time>
      </trkpt>
      <trkpt lat="59.9674284" lon="17.7151613">
        <ele>34.2642</ele>
        <time>2012-10-05T19:56:11Z</time>
      </trkpt>
      <trkpt lat="59.9674234" lon="17.7151135">
        <ele>34.7449</ele>
        <time>2012-10-05T19:56:12Z</time>
      </trkpt>
      <trkpt lat="59.9674226" lon="17.7150705">
        <ele>34.2642</ele>
        <time>2012-10-05T19:56:13Z</time>
      </trkpt>
      <trkpt lat="59.9674196" lon="17.7150104">
        <ele>35.2255</ele>
        <time>2012-10-05T19:56:14Z</time>
      </trkpt>
      <trkpt lat="59.9674098" lon="17.7149577">
        <ele>34.2642</ele>
        <time>2012-10-05T19:56:15Z</time>
      </trkpt>
      <trkpt lat="59.9673958" lon="17.7149172">
        <ele>34.2642</ele>
        <time>2012-10-05T19:56:16Z</time>
      </trkpt>
      <trkpt lat="59.9673825" lon="17.7148587">
        <ele>34.7449</ele>
        <time>2012-10-05T19:56:17Z</time>
      </trkpt>
      <trkpt lat="59.9673775" lon="17.7148007">
        <ele>35.2255</ele>
        <time>2012-10-05T19:56:18Z</time>
      </trkpt>
      <trkpt lat="59.9673818" lon="17.7147515">
        <ele>36.1868</ele>
        <time>2012-10-05T19:56:19Z</time>
      </trkpt>
      <trkpt lat="59.967382" lon="17.7146934">
        <ele>36.6675</ele>
        <time>2012-10-05T19:56:20Z</time>
      </trkpt>
      <trkpt lat="59.9673823" lon="17.7146327">
        <ele>37.1481</ele>
        <time>2012-10-05T19:56:21Z</time>
      </trkpt>
      <trkpt lat="59.9673839" lon="17.7145743">
        <ele>37.6287</ele>
        <time>2012-10-05T19:56:22Z</time>
      </trkpt>
      <trkpt lat="59.9673818" lon="17.7145225">
        <ele>37.6287</ele>
        <time>2012-10-05T19:56:23Z</time>
      </trkpt>
      <trkpt lat="59.9673824" lon="17.7144696">
        <ele>38.1094</ele>
        <time>2012-10-05T19:56:24Z</time>
      </trkpt>
      <trkpt lat="59.9673785" lon="17.7144132">
        <ele>38.5901</ele>
        <time>2012-10-05T19:56:25Z</time>
      </trkpt>
      <trkpt lat="59.9673675" lon="17.7143619">
        <ele>38.5901</ele>
        <time>2012-10-05T19:56:26Z</time>
      </trkpt>
      <trkpt lat="59.9673502" lon="17.7143026">
        <ele>39.0707</ele>
        <time>2012-10-05T19:56:27Z</time>
      </trkpt>
      <trkpt lat="59.9673377" lon="17.7142395">
        <ele>39.0707</ele>
        <time>2012-10-05T19:56:28Z</time>
      </trkpt>
      <trkpt lat="59.9673249" lon="17.7141812">
        <ele>39.5513</ele>
        <time>2012-10-05T19:56:29Z</time>
      </trkpt>
      <trkpt lat="59.967314" lon="17.714125">
        <ele>39.5513</ele>
        <time>2012-10-05T19:56:30Z</time>
      </trkpt>
      <trkpt lat="59.9673099" lon="17.7140713">
        <ele>39.5513</ele>
        <time>2012-10-05T19:56:31Z</time>
      </trkpt>
      <trkpt lat="59.9673036" lon="17.7140169">
        <ele>40.0321</ele>
        <time>2012-10-05T19:56:32Z</time>
      </trkpt>
      <trkpt lat="59.9672907" lon="17.7139516">
        <ele>41.474</ele>
        <time>2012-10-05T19:56:33Z</time>
      </trkpt>
      <trkpt lat="59.9672777" lon="17.7138904">
        <ele>42.4354</ele>
        <time>2012-10-05T19:56:34Z</time>
      </trkpt>
      <trkpt lat="59.9672651" lon="17.7138335">
        <ele>43.3966</ele>
        <time>2012-10-05T19:56:35Z</time>
      </trkpt>
      <trkpt lat="59.9672529" lon="17.7137785">
        <ele>43.8773</ele>
        <time>2012-10-05T19:56:36Z</time>
      </trkpt>
      <trkpt lat="59.9672439" lon="17.7137221">
        <ele>44.8386</ele>
        <time>2012-10-05T19:56:37Z</time>
      </trkpt>
      <trkpt lat="59.9672394" lon="17.7136689">
        <ele>45.3192</ele>
        <time>2012-10-05T19:56:38Z</time>
      </trkpt>
      <trkpt lat="59.9672296" lon="17.7136103">
        <ele>46.2806</ele>
        <time>2012-10-05T19:56:39Z</time>
      </trkpt>
      <trkpt lat="59.9672238" lon="17.713563">
        <ele>47.2418</ele>
        <time>2012-10-05T19:56:40Z</time>
      </trkpt>
      <trkpt lat="59.9672198" lon="17.7135175">
        <ele>47.7225</ele>
        <time>2012-10-05T19:56:41Z</time>
      </trkpt>
      <trkpt lat="59.967214" lon="17.71347">
        <ele>48.684</ele>
        <time>2012-10-05T19:56:42Z</time>
      </trkpt>
      <trkpt lat="59.967209" lon="17.7134237">
        <ele>48.684</ele>
        <time>2012-10-05T19:56:43Z</time>
      </trkpt>
      <trkpt lat="59.9672011" lon="17.7133757">
        <ele>49.1646</ele>
        <time>2012-10-05T19:56:44Z</time>
      </trkpt>
      <trkpt lat="59.9671871" lon="17.7133243">
        <ele>49.6453</ele>
        <time>2012-10-05T19:56:45Z</time>
      </trkpt>
      <trkpt lat="59.9671741" lon="17.7132762">
        <ele>50.126</ele>
        <time>2012-10-05T19:56:46Z</time>
      </trkpt>
      <trkpt lat="59.9671601" lon="17.7132192">
        <ele>50.6066</ele>
        <time>2012-10-05T19:56:47Z</time>
      </trkpt>
      <trkpt lat="59.9671483" lon="17.7131611">
        <ele>51.5679</ele>
        <time>2012-10-05T19:56:48Z</time>
      </trkpt>
      <trkpt lat="59.9671411" lon="17.7131331">
        <ele>49.6453</ele>
        <time>2012-10-05T19:56:49Z</time>
      </trkpt>
      <trkpt lat="59.9671313" lon="17.713096">
        <ele>47.7225</ele>
        <time>2012-10-05T19:56:50Z</time>
      </trkpt>
      <trkpt lat="59.9671206" lon="17.7130368">
        <ele>48.2034</ele>
        <time>2012-10-05T19:56:51Z</time>
      </trkpt>
      <trkpt lat="59.9671125" lon="17.7129843">
        <ele>48.684</ele>
        <time>2012-10-05T19:56:52Z</time>
      </trkpt>
      <trkpt lat="59.9671069" lon="17.7129437">
        <ele>49.1646</ele>
        <time>2012-10-05T19:56:53Z</time>
      </trkpt>
      <trkpt lat="59.9670984" lon="17.7129056">
        <ele>49.6453</ele>
        <time>2012-10-05T19:56:54Z</time>
      </trkpt>
      <trkpt lat="59.967089" lon="17.712867">
        <ele>49.6453</ele>
        <time>2012-10-05T19:56:55Z</time>
      </trkpt>
      <trkpt lat="59.9670747" lon="17.7128135">
        <ele>50.126</ele>
        <time>2012-10-05T19:56:56Z</time>
      </trkpt>
      <trkpt lat="59.9670582" lon="17.7127564">
        <ele>50.6066</ele>
        <time>2012-10-05T19:56:57Z</time>
      </trkpt>
      <trkpt lat="59.9670436" lon="17.7127105">
        <ele>50.6066</ele>
        <time>2012-10-05T19:56:58Z</time>
      </trkpt>
      <trkpt lat="59.9670297" lon="17.712668">
        <ele>50.6066</ele>
        <time>2012-10-05T19:56:59Z</time>
      </trkpt>
      <trkpt lat="59.9670177" lon="17.7126254">
        <ele>50.6066</ele>
        <time>2012-10-05T19:57:00Z</time>
      </trkpt>
      <trkpt lat="59.9670054" lon="17.7125768">
        <ele>50.6066</ele>
        <time>2012-10-05T19:57:01Z</time>
      </trkpt>
      <trkpt lat="59.9669892" lon="17.7125162">
        <ele>51.5679</ele>
        <time>2012-10-05T19:57:02Z</time>
      </trkpt>
      <trkpt lat="59.9669716" lon="17.7124572">
        <ele>52.0486</ele>
        <time>2012-10-05T19:57:03Z</time>
      </trkpt>
      <trkpt lat="59.9669569" lon="17.7124058">
        <ele>52.5292</ele>
        <time>2012-10-05T19:57:04Z</time>
      </trkpt>
      <trkpt lat="59.9669447" lon="17.7123618">
        <ele>53.4905</ele>
        <time>2012-10-05T19:57:05Z</time>
      </trkpt>
      <trkpt lat="59.9669348" lon="17.7123236">
        <ele>53.4905</ele>
        <time>2012-10-05T19:57:06Z</time>
      </trkpt>
      <trkpt lat="59.966927" lon="17.7122846">
        <ele>53.9712</ele>
        <time>2012-10-05T19:57:07Z</time>
      </trkpt>
      <trkpt lat="59.9669131" lon="17.7122344">
        <ele>54.9324</ele>
        <time>2012-10-05T19:57:08Z</time>
      </trkpt>
      <trkpt lat="59.9669021" lon="17.7121855">
        <ele>54.9324</ele>
        <time>2012-10-05T19:57:09Z</time>
      </trkpt>
      <trkpt lat="59.9668935" lon="17.7121485">
        <ele>55.4131</ele>
        <time>2012-10-05T19:57:10Z</time>
      </trkpt>
      <trkpt lat="59.9668824" lon="17.712137">
        <ele>53.9712</ele>
        <time>2012-10-05T19:57:11Z</time>
      </trkpt>
      <trkpt lat="59.9668712" lon="17.7121163">
        <ele>52.5292</ele>
        <time>2012-10-05T19:57:12Z</time>
      </trkpt>
      <trkpt lat="59.9668571" lon="17.7120738">
        <ele>52.5292</ele>
        <time>2012-10-05T19:57:13Z</time>
      </trkpt>
      <trkpt lat="59.9668445" lon="17.7120385">
        <ele>53.0098</ele>
        <time>2012-10-05T19:57:14Z</time>
      </trkpt>
      <trkpt lat="59.9668328" lon="17.7120002">
        <ele>52.5292</ele>
        <time>2012-10-05T19:57:15Z</time>
      </trkpt>
      <trkpt lat="59.9668145" lon="17.7119511">
        <ele>52.5292</ele>
        <time>2012-10-05T19:57:16Z</time>
      </trkpt>
      <trkpt lat="59.9667968" lon="17.7119037">
        <ele>53.0098</ele>
        <time>2012-10-05T19:57:17Z</time>
      </trkpt>
      <trkpt lat="59.9667846" lon="17.711882">
        <ele>52.0486</ele>
        <time>2012-10-05T19:57:18Z</time>
      </trkpt>
      <trkpt lat="59.9667658" lon="17.7118493">
        <ele>52.5292</ele>
        <time>2012-10-05T19:57:19Z</time>
      </trkpt>
      <trkpt lat="59.9667466" lon="17.7118092">
        <ele>52.0486</ele>
        <time>2012-10-05T19:57:20Z</time>
      </trkpt>
      <trkpt lat="59.9667271" lon="17.7117635">
        <ele>52.0486</ele>
        <time>2012-10-05T19:57:21Z</time>
      </trkpt>
      <trkpt lat="59.9667105" lon="17.7117143">
        <ele>51.5679</ele>
        <time>2012-10-05T19:57:22Z</time>
      </trkpt>
      <trkpt lat="59.9666898" lon="17.7116635">
        <ele>51.0872</ele>
        <time>2012-10-05T19:57:23Z</time>
      </trkpt>
      <trkpt lat="59.9666675" lon="17.7116107">
        <ele>51.5679</ele>
        <time>2012-10-05T19:57:24Z</time>
      </trkpt>
      <trkpt lat="59.9666464" lon="17.7115598">
        <ele>51.0872</ele>
        <time>2012-10-05T19:57:25Z</time>
      </trkpt>
      <trkpt lat="59.9666259" lon="17.7115318">
        <ele>49.1646</ele>
        <time>2012-10-05T19:57:26Z</time>
      </trkpt>
      <trkpt lat="59.9666055" lon="17.7115225">
        <ele>47.7225</ele>
        <time>2012-10-05T19:57:27Z</time>
      </trkpt>
      <trkpt lat="59.9665891" lon="17.7115393">
        <ele>46.2806</ele>
        <time>2012-10-05T19:57:28Z</time>
      </trkpt>
      <trkpt lat="59.9665863" lon="17.7115961">
        <ele>43.3966</ele>
        <time>2012-10-05T19:57:29Z</time>
      </trkpt>
      <trkpt lat="59.9665682" lon="17.711633">
        <ele>40.5128</ele>
        <time>2012-10-05T19:57:30Z</time>
      </trkpt>
      <trkpt lat="59.9665402" lon="17.7116701">
        <ele>39.0707</ele>
        <time>2012-10-05T19:57:31Z</time>
      </trkpt>
      <trkpt lat="59.9665168" lon="17.7117117">
        <ele>37.1481</ele>
        <time>2012-10-05T19:57:32Z</time>
      </trkpt>
      <trkpt lat="59.9664976" lon="17.7117478">
        <ele>35.2255</ele>
        <time>2012-10-05T19:57:33Z</time>
      </trkpt>
      <trkpt lat="59.9664774" lon="17.7117856">
        <ele>33.7834</ele>
        <time>2012-10-05T19:57:34Z</time>
      </trkpt>
      <trkpt lat="59.9664546" lon="17.7118209">
        <ele>32.3416</ele>
        <time>2012-10-05T19:57:35Z</time>
      </trkpt>
      <trkpt lat="59.9664375" lon="17.7118547">
        <ele>30.8995</ele>
        <time>2012-10-05T19:57:36Z</time>
      </trkpt>
      <trkpt lat="59.9664241" lon="17.7118854">
        <ele>29.9381</ele>
        <time>2012-10-05T19:57:37Z</time>
      </trkpt>
      <trkpt lat="59.9664075" lon="17.7119157">
        <ele>28.9769</ele>
        <time>2012-10-05T19:57:38Z</time>
      </trkpt>
      <trkpt lat="59.9663847" lon="17.711955">
        <ele>28.0155</ele>
        <time>2012-10-05T19:57:39Z</time>
      </trkpt>
      <trkpt lat="59.9663636" lon="17.7119869">
        <ele>26.5736</ele>
        <time>2012-10-05T19:57:40Z</time>
      </trkpt>
      <trkpt lat="59.9663495" lon="17.7120213">
        <ele>25.6123</ele>
        <time>2012-10-05T19:57:41Z</time>
      </trkpt>
      <trkpt lat="59.9663338" lon="17.7120468">
        <ele>24.1703</ele>
        <time>2012-10-05T19:57:42Z</time>
      </trkpt>
      <trkpt lat="59.9663142" lon="17.7120742">
        <ele>23.6896</ele>
        <time>2012-10-05T19:57:43Z</time>
      </trkpt>
      <trkpt lat="59.9662933" lon="17.7121075">
        <ele>23.209</ele>
        <time>2012-10-05T19:57:44Z</time>
      </trkpt>
      <trkpt lat="59.9662759" lon="17.7121379">
        <ele>22.7283</ele>
        <time>2012-10-05T19:57:45Z</time>
      </trkpt>
      <trkpt lat="59.9662608" lon="17.7121675">
        <ele>22.2476</ele>
        <time>2012-10-05T19:57:46Z</time>
      </trkpt>
      <trkpt lat="59.9662478" lon="17.7122064">
        <ele>22.2476</ele>
        <time>2012-10-05T19:57:47Z</time>
      </trkpt>
      <trkpt lat="59.9662356" lon="17.7122508">
        <ele>21.767</ele>
        <time>2012-10-05T19:57:48Z</time>
      </trkpt>
      <trkpt lat="59.9662195" lon="17.7122868">
        <ele>21.2864</ele>
        <time>2012-10-05T19:57:49Z</time>
      </trkpt>
      <trkpt lat="59.9661992" lon="17.7123236">
        <ele>20.8057</ele>
        <time>2012-10-05T19:57:50Z</time>
      </trkpt>
      <trkpt lat="59.9661811" lon="17.7123675">
        <ele>20.8057</ele>
        <time>2012-10-05T19:57:51Z</time>
      </trkpt>
      <trkpt lat="59.9661614" lon="17.7124099">
        <ele>20.325</ele>
        <time>2012-10-05T19:57:52Z</time>
      </trkpt>
      <trkpt lat="59.9661454" lon="17.7124487">
        <ele>20.325</ele>
        <time>2012-10-05T19:57:53Z</time>
      </trkpt>
      <trkpt lat="59.966134" lon="17.7124872">
        <ele>20.325</ele>
        <time>2012-10-05T19:57:54Z</time>
      </trkpt>
      <trkpt lat="59.9661198" lon="17.7125235">
        <ele>20.325</ele>
        <time>2012-10-05T19:57:55Z</time>
      </trkpt>
      <trkpt lat="59.9660998" lon="17.7125561">
        <ele>20.325</ele>
        <time>2012-10-05T19:57:56Z</time>
      </trkpt>
      <trkpt lat="59.9660805" lon="17.712583">
        <ele>19.8444</ele>
        <time>2012-10-05T19:57:57Z</time>
      </trkpt>
      <trkpt lat="59.9660599" lon="17.712602">
        <ele>19.3638</ele>
        <time>2012-10-05T19:57:58Z</time>
      </trkpt>
      <trkpt lat="59.9660377" lon="17.7126286">
        <ele>19.3638</ele>
        <time>2012-10-05T19:57:59Z</time>
      </trkpt>
      <trkpt lat="59.9660157" lon="17.7126497">
        <ele>19.8444</ele>
        <time>2012-10-05T19:58:00Z</time>
      </trkpt>
      <trkpt lat="59.9659898" lon="17.712668">
        <ele>19.8444</ele>
        <time>2012-10-05T19:58:01Z</time>
      </trkpt>
      <trkpt lat="59.9659662" lon="17.712681">
        <ele>20.325</ele>
        <time>2012-10-05T19:58:02Z</time>
      </trkpt>
      <trkpt lat="59.9659465" lon="17.7126923">
        <ele>20.325</ele>
        <time>2012-10-05T19:58:03Z</time>
      </trkpt>
      <trkpt lat="59.9659294" lon="17.7126965">
        <ele>21.2864</ele>
        <time>2012-10-05T19:58:04Z</time>
      </trkpt>
      <trkpt lat="59.9659169" lon="17.7126949">
        <ele>21.767</ele>
        <time>2012-10-05T19:58:05Z</time>
      </trkpt>
      <trkpt lat="59.9658973" lon="17.7126784">
        <ele>22.7283</ele>
        <time>2012-10-05T19:58:06Z</time>
      </trkpt>
      <trkpt lat="59.9658714" lon="17.7126636">
        <ele>24.651</ele>
        <time>2012-10-05T19:58:07Z</time>
      </trkpt>
      <trkpt lat="59.9658449" lon="17.7126405">
        <ele>24.651</ele>
        <time>2012-10-05T19:58:08Z</time>
      </trkpt>
      <trkpt lat="59.9658199" lon="17.7126136">
        <ele>25.6123</ele>
        <time>2012-10-05T19:58:09Z</time>
      </trkpt>
      <trkpt lat="59.9657969" lon="17.7125934">
        <ele>26.0929</ele>
        <time>2012-10-05T19:58:10Z</time>
      </trkpt>
      <trkpt lat="59.9657774" lon="17.7125749">
        <ele>27.0543</ele>
        <time>2012-10-05T19:58:11Z</time>
      </trkpt>
      <trkpt lat="59.9657553" lon="17.712553">
        <ele>27.0543</ele>
        <time>2012-10-05T19:58:12Z</time>
      </trkpt>
      <trkpt lat="59.9657302" lon="17.7125333">
        <ele>28.0155</ele>
        <time>2012-10-05T19:58:13Z</time>
      </trkpt>
      <trkpt lat="59.965706" lon="17.7125198">
        <ele>28.4962</ele>
        <time>2012-10-05T19:58:14Z</time>
      </trkpt>
      <trkpt lat="59.9656801" lon="17.7124989">
        <ele>28.4962</ele>
        <time>2012-10-05T19:58:15Z</time>
      </trkpt>
      <trkpt lat="59.9656485" lon="17.7124768">
        <ele>28.9769</ele>
        <time>2012-10-05T19:58:16Z</time>
      </trkpt>
      <trkpt lat="59.9656236" lon="17.7124647">
        <ele>29.4575</ele>
        <time>2012-10-05T19:58:17Z</time>
      </trkpt>
      <trkpt lat="59.9656046" lon="17.7124489">
        <ele>29.9381</ele>
        <time>2012-10-05T19:58:18Z</time>
      </trkpt>
      <trkpt lat="59.9655843" lon="17.7124292">
        <ele>29.9381</ele>
        <time>2012-10-05T19:58:19Z</time>
      </trkpt>
      <trkpt lat="59.9655636" lon="17.7124135">
        <ele>29.9381</ele>
        <time>2012-10-05T19:58:20Z</time>
      </trkpt>
      <trkpt lat="59.9655461" lon="17.7123943">
        <ele>30.4188</ele>
        <time>2012-10-05T19:58:21Z</time>
      </trkpt>
      <trkpt lat="59.9655272" lon="17.7123671">
        <ele>30.8995</ele>
        <time>2012-10-05T19:58:22Z</time>
      </trkpt>
      <trkpt lat="59.9655063" lon="17.7123448">
        <ele>31.3801</ele>
        <time>2012-10-05T19:58:23Z</time>
      </trkpt>
      <trkpt lat="59.9654842" lon="17.7123176">
        <ele>31.8607</ele>
        <time>2012-10-05T19:58:24Z</time>
      </trkpt>
      <trkpt lat="59.9654605" lon="17.7122987">
        <ele>32.3416</ele>
        <time>2012-10-05T19:58:25Z</time>
      </trkpt>
      <trkpt lat="59.965445" lon="17.7122965">
        <ele>32.8223</ele>
        <time>2012-10-05T19:58:26Z</time>
      </trkpt>
      <trkpt lat="59.9654282" lon="17.7122938">
        <ele>33.3029</ele>
        <time>2012-10-05T19:58:27Z</time>
      </trkpt>
      <trkpt lat="59.9654062" lon="17.7122785">
        <ele>33.3029</ele>
        <time>2012-10-05T19:58:28Z</time>
      </trkpt>
      <trkpt lat="59.9653852" lon="17.7122634">
        <ele>33.3029</ele>
        <time>2012-10-05T19:58:29Z</time>
      </trkpt>
      <trkpt lat="59.9653614" lon="17.7122437">
        <ele>33.3029</ele>
        <time>2012-10-05T19:58:30Z</time>
      </trkpt>
      <trkpt lat="59.9653386" lon="17.7122288">
        <ele>33.7834</ele>
        <time>2012-10-05T19:58:31Z</time>
      </trkpt>
      <trkpt lat="59.9653165" lon="17.7122093">
        <ele>34.7449</ele>
        <time>2012-10-05T19:58:32Z</time>
      </trkpt>
      <trkpt lat="59.9652967" lon="17.7121918">
        <ele>35.2255</ele>
        <time>2012-10-05T19:58:33Z</time>
      </trkpt>
      <trkpt lat="59.9652736" lon="17.7121877">
        <ele>35.7061</ele>
        <time>2012-10-05T19:58:34Z</time>
      </trkpt>
      <trkpt lat="59.9652516" lon="17.712181">
        <ele>36.6675</ele>
        <time>2012-10-05T19:58:35Z</time>
      </trkpt>
      <trkpt lat="59.9652265" lon="17.7121605">
        <ele>36.6675</ele>
        <time>2012-10-05T19:58:36Z</time>
      </trkpt>
      <trkpt lat="59.9651985" lon="17.712143">
        <ele>37.6287</ele>
        <time>2012-10-05T19:58:37Z</time>
      </trkpt>
      <trkpt lat="59.965172" lon="17.7121265">
        <ele>38.1094</ele>
        <time>2012-10-05T19:58:38Z</time>
      </trkpt>
      <trkpt lat="59.9651441" lon="17.7121024">
        <ele>38.5901</ele>
        <time>2012-10-05T19:58:39Z</time>
      </trkpt>
      <trkpt lat="59.9651217" lon="17.7120806">
        <ele>39.0707</ele>
        <time>2012-10-05T19:58:40Z</time>
      </trkpt>
      <trkpt lat="59.9651017" lon="17.712063">
        <ele>39.0707</ele>
        <time>2012-10-05T19:58:41Z</time>
      </trkpt>
      <trkpt lat="59.9650775" lon="17.7120453">
        <ele>38.5901</ele>
        <time>2012-10-05T19:58:42Z</time>
      </trkpt>
      <trkpt lat="59.9650573" lon="17.7120303">
        <ele>39.0707</ele>
        <time>2012-10-05T19:58:43Z</time>
      </trkpt>
      <trkpt lat="59.9650373" lon="17.7120126">
        <ele>39.0707</ele>
        <time>2012-10-05T19:58:44Z</time>
      </trkpt>
      <trkpt lat="59.9650115" lon="17.7119924">
        <ele>39.0707</ele>
        <time>2012-10-05T19:58:45Z</time>
      </trkpt>
      <trkpt lat="59.964985" lon="17.7119781">
        <ele>39.5513</ele>
        <time>2012-10-05T19:58:46Z</time>
      </trkpt>
      <trkpt lat="59.9649622" lon="17.7119733">
        <ele>39.5513</ele>
        <time>2012-10-05T19:58:47Z</time>
      </trkpt>
      <trkpt lat="59.9649415" lon="17.7119579">
        <ele>39.0707</ele>
        <time>2012-10-05T19:58:48Z</time>
      </trkpt>
      <trkpt lat="59.9649135" lon="17.7119455">
        <ele>39.5513</ele>
        <time>2012-10-05T19:58:49Z</time>
      </trkpt>
      <trkpt lat="59.964883" lon="17.7119256">
        <ele>40.0321</ele>
        <time>2012-10-05T19:58:50Z</time>
      </trkpt>
      <trkpt lat="59.9648595" lon="17.7118993">
        <ele>40.0321</ele>
        <time>2012-10-05T19:58:51Z</time>
      </trkpt>
      <trkpt lat="59.9648391" lon="17.7118789">
        <ele>39.5513</ele>
        <time>2012-10-05T19:58:52Z</time>
      </trkpt>
      <trkpt lat="59.9648132" lon="17.7118533">
        <ele>39.0707</ele>
        <time>2012-10-05T19:58:53Z</time>
      </trkpt>
      <trkpt lat="59.9647849" lon="17.7118262">
        <ele>38.5901</ele>
        <time>2012-10-05T19:58:54Z</time>
      </trkpt>
      <trkpt lat="59.9647613" lon="17.7118077">
        <ele>38.5901</ele>
        <time>2012-10-05T19:58:55Z</time>
      </trkpt>
      <trkpt lat="59.9647372" lon="17.7117965">
        <ele>38.5901</ele>
        <time>2012-10-05T19:58:56Z</time>
      </trkpt>
      <trkpt lat="59.9647123" lon="17.7117827">
        <ele>38.5901</ele>
        <time>2012-10-05T19:58:57Z</time>
      </trkpt>
      <trkpt lat="59.9646892" lon="17.7117588">
        <ele>38.5901</ele>
        <time>2012-10-05T19:58:58Z</time>
      </trkpt>
      <trkpt lat="59.964666" lon="17.7117414">
        <ele>38.5901</ele>
        <time>2012-10-05T19:58:59Z</time>
      </trkpt>
      <trkpt lat="59.9646401" lon="17.7117237">
        <ele>38.5901</ele>
        <time>2012-10-05T19:59:00Z</time>
      </trkpt>
      <trkpt lat="59.9646203" lon="17.7117024">
        <ele>39.0707</ele>
        <time>2012-10-05T19:59:01Z</time>
      </trkpt>
      <trkpt lat="59.9646051" lon="17.7116791">
        <ele>38.5901</ele>
        <time>2012-10-05T19:59:02Z</time>
      </trkpt>
      <trkpt lat="59.9645867" lon="17.7116563">
        <ele>38.5901</ele>
        <time>2012-10-05T19:59:03Z</time>
      </trkpt>
      <trkpt lat="59.9645629" lon="17.7116356">
        <ele>38.5901</ele>
        <time>2012-10-05T19:59:04Z</time>
      </trkpt>
      <trkpt lat="59.9645421" lon="17.7116138">
        <ele>38.1094</ele>
        <time>2012-10-05T19:59:05Z</time>
      </trkpt>
      <trkpt lat="59.9645249" lon="17.7115895">
        <ele>38.1094</ele>
        <time>2012-10-05T19:59:06Z</time>
      </trkpt>
      <trkpt lat="59.9645028" lon="17.7115671">
        <ele>37.6287</ele>
        <time>2012-10-05T19:59:07Z</time>
      </trkpt>
      <trkpt lat="59.9644772" lon="17.7115435">
        <ele>37.1481</ele>
        <time>2012-10-05T19:59:08Z</time>
      </trkpt>
      <trkpt lat="59.964452" lon="17.7115206">
        <ele>37.1481</ele>
        <time>2012-10-05T19:59:09Z</time>
      </trkpt>
      <trkpt lat="59.9644327" lon="17.7114989">
        <ele>37.1481</ele>
        <time>2012-10-05T19:59:10Z</time>
      </trkpt>
      <trkpt lat="59.9644116" lon="17.711479">
        <ele>37.6287</ele>
        <time>2012-10-05T19:59:11Z</time>
      </trkpt>
      <trkpt lat="59.9643905" lon="17.7114701">
        <ele>37.6287</ele>
        <time>2012-10-05T19:59:12Z</time>
      </trkpt>
      <trkpt lat="59.9643666" lon="17.7114536">
        <ele>38.1094</ele>
        <time>2012-10-05T19:59:13Z</time>
      </trkpt>
      <trkpt lat="59.9643479" lon="17.7114263">
        <ele>37.6287</ele>
        <time>2012-10-05T19:59:14Z</time>
      </trkpt>
      <trkpt lat="59.9643273" lon="17.711406">
        <ele>37.1481</ele>
        <time>2012-10-05T19:59:15Z</time>
      </trkpt>
      <trkpt lat="59.964305" lon="17.7113849">
        <ele>36.6675</ele>
        <time>2012-10-05T19:59:16Z</time>
      </trkpt>
      <trkpt lat="59.9642821" lon="17.7113604">
        <ele>36.6675</ele>
        <time>2012-10-05T19:59:17Z</time>
      </trkpt>
      <trkpt lat="59.9642591" lon="17.7113398">
        <ele>36.6675</ele>
        <time>2012-10-05T19:59:18Z</time>
      </trkpt>
      <trkpt lat="59.9642381" lon="17.7113207">
        <ele>36.1868</ele>
        <time>2012-10-05T19:59:19Z</time>
      </trkpt>
      <trkpt lat="59.9642154" lon="17.7113025">
        <ele>36.6675</ele>
        <time>2012-10-05T19:59:20Z</time>
      </trkpt>
      <trkpt lat="59.9641955" lon="17.7112775">
        <ele>36.1868</ele>
        <time>2012-10-05T19:59:21Z</time>
      </trkpt>
      <trkpt lat="59.9641775" lon="17.7112465">
        <ele>36.1868</ele>
        <time>2012-10-05T19:59:22Z</time>
      </trkpt>
      <trkpt lat="59.9641577" lon="17.7112186">
        <ele>36.1868</ele>
        <time>2012-10-05T19:59:23Z</time>
      </trkpt>
      <trkpt lat="59.9641375" lon="17.7111853">
        <ele>35.7061</ele>
        <time>2012-10-05T19:59:24Z</time>
      </trkpt>
      <trkpt lat="59.9641152" lon="17.7111493">
        <ele>35.7061</ele>
        <time>2012-10-05T19:59:25Z</time>
      </trkpt>
      <trkpt lat="59.9640898" lon="17.7111314">
        <ele>35.7061</ele>
        <time>2012-10-05T19:59:26Z</time>
      </trkpt>
      <trkpt lat="59.9640692" lon="17.7111163">
        <ele>35.7061</ele>
        <time>2012-10-05T19:59:27Z</time>
      </trkpt>
      <trkpt lat="59.9640527" lon="17.7110899">
        <ele>35.7061</ele>
        <time>2012-10-05T19:59:28Z</time>
      </trkpt>
      <trkpt lat="59.964035" lon="17.7110574">
        <ele>35.7061</ele>
        <time>2012-10-05T19:59:29Z</time>
      </trkpt>
      <trkpt lat="59.9640141" lon="17.7110172">
        <ele>35.2255</ele>
        <time>2012-10-05T19:59:30Z</time>
      </trkpt>
      <trkpt lat="59.9639962" lon="17.7109726">
        <ele>34.7449</ele>
        <time>2012-10-05T19:59:31Z</time>
      </trkpt>
      <trkpt lat="59.9639785" lon="17.7109306">
        <ele>33.7834</ele>
        <time>2012-10-05T19:59:32Z</time>
      </trkpt>
      <trkpt lat="59.9639608" lon="17.7108932">
        <ele>33.7834</ele>
        <time>2012-10-05T19:59:33Z</time>
      </trkpt>
      <trkpt lat="59.9639381" lon="17.7108503">
        <ele>32.8223</ele>
        <time>2012-10-05T19:59:34Z</time>
      </trkpt>
      <trkpt lat="59.963918" lon="17.7108102">
        <ele>32.3416</ele>
        <time>2012-10-05T19:59:35Z</time>
      </trkpt>
      <trkpt lat="59.9639065" lon="17.710769">
        <ele>31.8607</ele>
        <time>2012-10-05T19:59:36Z</time>
      </trkpt>
      <trkpt lat="59.963891" lon="17.7107255">
        <ele>31.3801</ele>
        <time>2012-10-05T19:59:37Z</time>
      </trkpt>
      <trkpt lat="59.9638729" lon="17.7106913">
        <ele>31.3801</ele>
        <time>2012-10-05T19:59:38Z</time>
      </trkpt>
      <trkpt lat="59.9638584" lon="17.7106528">
        <ele>31.3801</ele>
        <time>2012-10-05T19:59:39Z</time>
      </trkpt>
      <trkpt lat="59.9638494" lon="17.7106061">
        <ele>31.3801</ele>
        <time>2012-10-05T19:59:40Z</time>
      </trkpt>
      <trkpt lat="59.9638391" lon="17.7105655">
        <ele>31.3801</ele>
        <time>2012-10-05T19:59:41Z</time>
      </trkpt>
      <trkpt lat="59.9638242" lon="17.7105225">
        <ele>30.8995</ele>
        <time>2012-10-05T19:59:42Z</time>
      </trkpt>
      <trkpt lat="59.9638128" lon="17.7104871">
        <ele>30.8995</ele>
        <time>2012-10-05T19:59:43Z</time>
      </trkpt>
      <trkpt lat="59.9637981" lon="17.7104488">
        <ele>30.4188</ele>
        <time>2012-10-05T19:59:44Z</time>
      </trkpt>
      <trkpt lat="59.9637828" lon="17.7104052">
        <ele>29.9381</ele>
        <time>2012-10-05T19:59:45Z</time>
      </trkpt>
      <trkpt lat="59.9637739" lon="17.7103691">
        <ele>29.4575</ele>
        <time>2012-10-05T19:59:46Z</time>
      </trkpt>
      <trkpt lat="59.9637618" lon="17.7103358">
        <ele>29.4575</ele>
        <time>2012-10-05T19:59:47Z</time>
      </trkpt>
      <trkpt lat="59.9637475" lon="17.7102946">
        <ele>29.4575</ele>
        <time>2012-10-05T19:59:48Z</time>
      </trkpt>
      <trkpt lat="59.9637392" lon="17.7102624">
        <ele>29.4575</ele>
        <time>2012-10-05T19:59:49Z</time>
      </trkpt>
      <trkpt lat="59.9637295" lon="17.7102179">
        <ele>28.9769</ele>
        <time>2012-10-05T19:59:50Z</time>
      </trkpt>
      <trkpt lat="59.9637147" lon="17.7101686">
        <ele>28.9769</ele>
        <time>2012-10-05T19:59:51Z</time>
      </trkpt>
      <trkpt lat="59.9636998" lon="17.7101212">
        <ele>29.4575</ele>
        <time>2012-10-05T19:59:52Z</time>
      </trkpt>
      <trkpt lat="59.9636851" lon="17.7100744">
        <ele>29.4575</ele>
        <time>2012-10-05T19:59:53Z</time>
      </trkpt>
      <trkpt lat="59.9636692" lon="17.7100285">
        <ele>29.4575</ele>
        <time>2012-10-05T19:59:54Z</time>
      </trkpt>
      <trkpt lat="59.9636527" lon="17.7099905">
        <ele>29.9381</ele>
        <time>2012-10-05T19:59:55Z</time>
      </trkpt>
      <trkpt lat="59.9636351" lon="17.7099531">
        <ele>29.9381</ele>
        <time>2012-10-05T19:59:56Z</time>
      </trkpt>
      <trkpt lat="59.9636165" lon="17.7099143">
        <ele>30.8995</ele>
        <time>2012-10-05T19:59:57Z</time>
      </trkpt>
      <trkpt lat="59.9636026" lon="17.7098785">
        <ele>31.3801</ele>
        <time>2012-10-05T19:59:58Z</time>
      </trkpt>
      <trkpt lat="59.9635899" lon="17.7098381">
        <ele>31.3801</ele>
        <time>2012-10-05T19:59:59Z</time>
      </trkpt>
      <trkpt lat="59.9635749" lon="17.7097949">
        <ele>31.8607</ele>
        <time>2012-10-05T20:00:00Z</time>
      </trkpt>
      <trkpt lat="59.9635636" lon="17.70975">
        <ele>32.3416</ele>
        <time>2012-10-05T20:00:01Z</time>
      </trkpt>
      <trkpt lat="59.9635537" lon="17.7097044">
        <ele>32.8223</ele>
        <time>2012-10-05T20:00:02Z</time>
      </trkpt>
      <trkpt lat="59.9635444" lon="17.7096677">
        <ele>33.3029</ele>
        <time>2012-10-05T20:00:03Z</time>
      </trkpt>
      <trkpt lat="59.9635245" lon="17.7096475">
        <ele>33.7834</ele>
        <time>2012-10-05T20:00:04Z</time>
      </trkpt>
      <trkpt lat="59.9635013" lon="17.7096277">
        <ele>34.2642</ele>
        <time>2012-10-05T20:00:05Z</time>
      </trkpt>
      <trkpt lat="59.963491" lon="17.7095944">
        <ele>34.7449</ele>
        <time>2012-10-05T20:00:06Z</time>
      </trkpt>
      <trkpt lat="59.9634728" lon="17.709563">
        <ele>35.2255</ele>
        <time>2012-10-05T20:00:07Z</time>
      </trkpt>
      <trkpt lat="59.9634572" lon="17.709551">
        <ele>36.1868</ele>
        <time>2012-10-05T20:00:08Z</time>
      </trkpt>
      <trkpt lat="59.9634513" lon="17.7095479">
        <ele>36.6675</ele>
        <time>2012-10-05T20:00:09Z</time>
      </trkpt>
      <trkpt lat="59.9634419" lon="17.7095361">
        <ele>37.6287</ele>
        <time>2012-10-05T20:00:10Z</time>
      </trkpt>
      <trkpt lat="59.9634254" lon="17.7095295">
        <ele>38.1094</ele>
        <time>2012-10-05T20:00:11Z</time>
      </trkpt>
      <trkpt lat="59.9634072" lon="17.7095299">
        <ele>39.0707</ele>
        <time>2012-10-05T20:00:12Z</time>
      </trkpt>
      <trkpt lat="59.9633826" lon="17.7095159">
        <ele>39.5513</ele>
        <time>2012-10-05T20:00:13Z</time>
      </trkpt>
      <trkpt lat="59.9633534" lon="17.7094943">
        <ele>40.0321</ele>
        <time>2012-10-05T20:00:14Z</time>
      </trkpt>
      <trkpt lat="59.9633216" lon="17.7094629">
        <ele>40.5128</ele>
        <time>2012-10-05T20:00:15Z</time>
      </trkpt>
      <trkpt lat="59.9633" lon="17.709435">
        <ele>40.5128</ele>
        <time>2012-10-05T20:00:16Z</time>
      </trkpt>
      <trkpt lat="59.9632859" lon="17.7094231">
        <ele>41.474</ele>
        <time>2012-10-05T20:00:17Z</time>
      </trkpt>
      <trkpt lat="59.9632656" lon="17.7093988">
        <ele>41.9547</ele>
        <time>2012-10-05T20:00:18Z</time>
      </trkpt>
      <trkpt lat="59.9632393" lon="17.7093667">
        <ele>41.474</ele>
        <time>2012-10-05T20:00:19Z</time>
      </trkpt>
      <trkpt lat="59.9632083" lon="17.7093372">
        <ele>41.9547</ele>
        <time>2012-10-05T20:00:20Z</time>
      </trkpt>
      <trkpt lat="59.9631787" lon="17.7093132">
        <ele>41.9547</ele>
        <time>2012-10-05T20:00:21Z</time>
      </trkpt>
      <trkpt lat="59.9631539" lon="17.7092989">
        <ele>41.9547</ele>
        <time>2012-10-05T20:00:22Z</time>
      </trkpt>
      <trkpt lat="59.9631279" lon="17.7092812">
        <ele>42.4354</ele>
        <time>2012-10-05T20:00:23Z</time>
      </trkpt>
      <trkpt lat="59.9631045" lon="17.709261">
        <ele>42.4354</ele>
        <time>2012-10-05T20:00:24Z</time>
      </trkpt>
      <trkpt lat="59.9630798" lon="17.7092472">
        <ele>42.916</ele>
        <time>2012-10-05T20:00:25Z</time>
      </trkpt>
      <trkpt lat="59.9630596" lon="17.7092386">
        <ele>42.4354</ele>
        <time>2012-10-05T20:00:26Z</time>
      </trkpt>
      <trkpt lat="59.9630373" lon="17.7092248">
        <ele>42.4354</ele>
        <time>2012-10-05T20:00:27Z</time>
      </trkpt>
      <trkpt lat="59.9630072" lon="17.7092035">
        <ele>42.4354</ele>
        <time>2012-10-05T20:00:28Z</time>
      </trkpt>
      <trkpt lat="59.9629772" lon="17.7091823">
        <ele>41.9547</ele>
        <time>2012-10-05T20:00:29Z</time>
      </trkpt>
      <trkpt lat="59.9629564" lon="17.7091705">
        <ele>41.9547</ele>
        <time>2012-10-05T20:00:30Z</time>
      </trkpt>
      <trkpt lat="59.9629357" lon="17.7091629">
        <ele>41.9547</ele>
        <time>2012-10-05T20:00:31Z</time>
      </trkpt>
      <trkpt lat="59.9629083" lon="17.7091486">
        <ele>41.9547</ele>
        <time>2012-10-05T20:00:32Z</time>
      </trkpt>
      <trkpt lat="59.9628784" lon="17.7091208">
        <ele>41.9547</ele>
        <time>2012-10-05T20:00:33Z</time>
      </trkpt>
      <trkpt lat="59.9628493" lon="17.7091006">
        <ele>41.474</ele>
        <time>2012-10-05T20:00:34Z</time>
      </trkpt>
      <trkpt lat="59.962823" lon="17.7090855">
        <ele>41.474</ele>
        <time>2012-10-05T20:00:35Z</time>
      </trkpt>
      <trkpt lat="59.9627952" lon="17.7090564">
        <ele>40.5128</ele>
        <time>2012-10-05T20:00:36Z</time>
      </trkpt>
      <trkpt lat="59.9627788" lon="17.7090201">
        <ele>40.0321</ele>
        <time>2012-10-05T20:00:37Z</time>
      </trkpt>
      <trkpt lat="59.9627681" lon="17.7090018">
        <ele>40.5128</ele>
        <time>2012-10-05T20:00:38Z</time>
      </trkpt>
      <trkpt lat="59.9627488" lon="17.7089886">
        <ele>40.9934</ele>
        <time>2012-10-05T20:00:39Z</time>
      </trkpt>
      <trkpt lat="59.9627306" lon="17.7089622">
        <ele>40.9934</ele>
        <time>2012-10-05T20:00:40Z</time>
      </trkpt>
      <trkpt lat="59.9627156" lon="17.7089403">
        <ele>41.474</ele>
        <time>2012-10-05T20:00:41Z</time>
      </trkpt>
      <trkpt lat="59.9626986" lon="17.7089165">
        <ele>41.474</ele>
        <time>2012-10-05T20:00:42Z</time>
      </trkpt>
      <trkpt lat="59.9626741" lon="17.7088775">
        <ele>41.474</ele>
        <time>2012-10-05T20:00:43Z</time>
      </trkpt>
      <trkpt lat="59.9626502" lon="17.708843">
        <ele>41.9547</ele>
        <time>2012-10-05T20:00:44Z</time>
      </trkpt>
      <trkpt lat="59.9626275" lon="17.7088192">
        <ele>41.9547</ele>
        <time>2012-10-05T20:00:45Z</time>
      </trkpt>
      <trkpt lat="59.9626058" lon="17.708797">
        <ele>42.4354</ele>
        <time>2012-10-05T20:00:46Z</time>
      </trkpt>
      <trkpt lat="59.9625829" lon="17.7087643">
        <ele>42.916</ele>
        <time>2012-10-05T20:00:47Z</time>
      </trkpt>
      <trkpt lat="59.9625551" lon="17.7087284">
        <ele>42.916</ele>
        <time>2012-10-05T20:00:48Z</time>
      </trkpt>
      <trkpt lat="59.96253" lon="17.7086984">
        <ele>42.4354</ele>
        <time>2012-10-05T20:00:49Z</time>
      </trkpt>
      <trkpt lat="59.9625089" lon="17.7086745">
        <ele>42.4354</ele>
        <time>2012-10-05T20:00:50Z</time>
      </trkpt>
      <trkpt lat="59.9624849" lon="17.7086525">
        <ele>42.4354</ele>
        <time>2012-10-05T20:00:51Z</time>
      </trkpt>
      <trkpt lat="59.9624635" lon="17.7086442">
        <ele>42.4354</ele>
        <time>2012-10-05T20:00:52Z</time>
      </trkpt>
      <trkpt lat="59.9624412" lon="17.7086269">
        <ele>42.4354</ele>
        <time>2012-10-05T20:00:53Z</time>
      </trkpt>
      <trkpt lat="59.9624192" lon="17.7086089">
        <ele>42.4354</ele>
        <time>2012-10-05T20:00:54Z</time>
      </trkpt>
      <trkpt lat="59.9623992" lon="17.7086063">
        <ele>41.9547</ele>
        <time>2012-10-05T20:00:55Z</time>
      </trkpt>
      <trkpt lat="59.9623717" lon="17.7086057">
        <ele>41.9547</ele>
        <time>2012-10-05T20:00:56Z</time>
      </trkpt>
      <trkpt lat="59.9623419" lon="17.7086081">
        <ele>41.9547</ele>
        <time>2012-10-05T20:00:57Z</time>
      </trkpt>
      <trkpt lat="59.9623167" lon="17.7086172">
        <ele>41.474</ele>
        <time>2012-10-05T20:00:58Z</time>
      </trkpt>
      <trkpt lat="59.9622896" lon="17.7086237">
        <ele>41.474</ele>
        <time>2012-10-05T20:00:59Z</time>
      </trkpt>
      <trkpt lat="59.9622614" lon="17.7086333">
        <ele>41.474</ele>
        <time>2012-10-05T20:01:00Z</time>
      </trkpt>
      <trkpt lat="59.9622313" lon="17.7086472">
        <ele>40.9934</ele>
        <time>2012-10-05T20:01:01Z</time>
      </trkpt>
      <trkpt lat="59.9621995" lon="17.7086663">
        <ele>40.9934</ele>
        <time>2012-10-05T20:01:02Z</time>
      </trkpt>
      <trkpt lat="59.9621705" lon="17.7086804">
        <ele>40.9934</ele>
        <time>2012-10-05T20:01:03Z</time>
      </trkpt>
      <trkpt lat="59.9621421" lon="17.7086845">
        <ele>40.9934</ele>
        <time>2012-10-05T20:01:04Z</time>
      </trkpt>
      <trkpt lat="59.962118" lon="17.7086905">
        <ele>40.9934</ele>
        <time>2012-10-05T20:01:05Z</time>
      </trkpt>
      <trkpt lat="59.9620912" lon="17.7086972">
        <ele>40.5128</ele>
        <time>2012-10-05T20:01:06Z</time>
      </trkpt>
      <trkpt lat="59.9620617" lon="17.708695">
        <ele>40.0321</ele>
        <time>2012-10-05T20:01:07Z</time>
      </trkpt>
      <trkpt lat="59.9620272" lon="17.7086958">
        <ele>39.5513</ele>
        <time>2012-10-05T20:01:08Z</time>
      </trkpt>
      <trkpt lat="59.9619921" lon="17.7086983">
        <ele>39.0707</ele>
        <time>2012-10-05T20:01:09Z</time>
      </trkpt>
      <trkpt lat="59.961967" lon="17.7086958">
        <ele>38.5901</ele>
        <time>2012-10-05T20:01:10Z</time>
      </trkpt>
      <trkpt lat="59.9619408" lon="17.7086929">
        <ele>38.1094</ele>
        <time>2012-10-05T20:01:11Z</time>
      </trkpt>
      <trkpt lat="59.9619184" lon="17.7086912">
        <ele>38.1094</ele>
        <time>2012-10-05T20:01:12Z</time>
      </trkpt>
      <trkpt lat="59.9618942" lon="17.708683">
        <ele>37.6287</ele>
        <time>2012-10-05T20:01:13Z</time>
      </trkpt>
      <trkpt lat="59.9618718" lon="17.7086757">
        <ele>37.6287</ele>
        <time>2012-10-05T20:01:14Z</time>
      </trkpt>
      <trkpt lat="59.9618535" lon="17.7086722">
        <ele>37.6287</ele>
        <time>2012-10-05T20:01:15Z</time>
      </trkpt>
      <trkpt lat="59.9618287" lon="17.708663">
        <ele>37.1481</ele>
        <time>2012-10-05T20:01:16Z</time>
      </trkpt>
      <trkpt lat="59.961802" lon="17.7086529">
        <ele>37.1481</ele>
        <time>2012-10-05T20:01:17Z</time>
      </trkpt>
      <trkpt lat="59.9617779" lon="17.7086472">
        <ele>37.6287</ele>
        <time>2012-10-05T20:01:18Z</time>
      </trkpt>
      <trkpt lat="59.9617552" lon="17.7086468">
        <ele>38.1094</ele>
        <time>2012-10-05T20:01:19Z</time>
      </trkpt>
      <trkpt lat="59.9617345" lon="17.7086364">
        <ele>38.1094</ele>
        <time>2012-10-05T20:01:20Z</time>
      </trkpt>
      <trkpt lat="59.9617138" lon="17.708618">
        <ele>38.1094</ele>
        <time>2012-10-05T20:01:21Z</time>
      </trkpt>
      <trkpt lat="59.961698" lon="17.7086032">
        <ele>38.1094</ele>
        <time>2012-10-05T20:01:22Z</time>
      </trkpt>
      <trkpt lat="59.9616807" lon="17.7085862">
        <ele>38.1094</ele>
        <time>2012-10-05T20:01:23Z</time>
      </trkpt>
      <trkpt lat="59.9616523" lon="17.7085616">
        <ele>38.1094</ele>
        <time>2012-10-05T20:01:24Z</time>
      </trkpt>
      <trkpt lat="59.9616268" lon="17.7085384">
        <ele>38.1094</ele>
        <time>2012-10-05T20:01:25Z</time>
      </trkpt>
      <trkpt lat="59.9616064" lon="17.7085144">
        <ele>38.1094</ele>
        <time>2012-10-05T20:01:26Z</time>
      </trkpt>
      <trkpt lat="59.961589" lon="17.7084871">
        <ele>38.1094</ele>
        <time>2012-10-05T20:01:27Z</time>
      </trkpt>
      <trkpt lat="59.9615755" lon="17.7084667">
        <ele>37.6287</ele>
        <time>2012-10-05T20:01:28Z</time>
      </trkpt>
      <trkpt lat="59.9615525" lon="17.7084327">
        <ele>37.1481</ele>
        <time>2012-10-05T20:01:29Z</time>
      </trkpt>
      <trkpt lat="59.961525" lon="17.7083954">
        <ele>37.1481</ele>
        <time>2012-10-05T20:01:30Z</time>
      </trkpt>
      <trkpt lat="59.9615074" lon="17.708368">
        <ele>37.1481</ele>
        <time>2012-10-05T20:01:31Z</time>
      </trkpt>
      <trkpt lat="59.9614774" lon="17.7083315">
        <ele>36.6675</ele>
        <time>2012-10-05T20:01:32Z</time>
      </trkpt>
      <trkpt lat="59.9614504" lon="17.7082939">
        <ele>37.1481</ele>
        <time>2012-10-05T20:01:33Z</time>
      </trkpt>
      <trkpt lat="59.9614365" lon="17.7082564">
        <ele>37.1481</ele>
        <time>2012-10-05T20:01:34Z</time>
      </trkpt>
      <trkpt lat="59.9614168" lon="17.7082218">
        <ele>36.6675</ele>
        <time>2012-10-05T20:01:35Z</time>
      </trkpt>
      <trkpt lat="59.9613924" lon="17.7081986">
        <ele>36.6675</ele>
        <time>2012-10-05T20:01:36Z</time>
      </trkpt>
      <trkpt lat="59.9613678" lon="17.708168">
        <ele>36.1868</ele>
        <time>2012-10-05T20:01:37Z</time>
      </trkpt>
      <trkpt lat="59.9613456" lon="17.7081354">
        <ele>36.1868</ele>
        <time>2012-10-05T20:01:38Z</time>
      </trkpt>
      <trkpt lat="59.9613202" lon="17.7080981">
        <ele>36.1868</ele>
        <time>2012-10-05T20:01:39Z</time>
      </trkpt>
      <trkpt lat="59.9612995" lon="17.7080597">
        <ele>36.1868</ele>
        <time>2012-10-05T20:01:40Z</time>
      </trkpt>
      <trkpt lat="59.9612894" lon="17.7080308">
        <ele>36.1868</ele>
        <time>2012-10-05T20:01:41Z</time>
      </trkpt>
      <trkpt lat="59.9612783" lon="17.7079954">
        <ele>36.1868</ele>
        <time>2012-10-05T20:01:42Z</time>
      </trkpt>
      <trkpt lat="59.9612606" lon="17.7079665">
        <ele>36.1868</ele>
        <time>2012-10-05T20:01:43Z</time>
      </trkpt>
      <trkpt lat="59.9612377" lon="17.7079467">
        <ele>36.1868</ele>
        <time>2012-10-05T20:01:44Z</time>
      </trkpt>
      <trkpt lat="59.9612181" lon="17.7079256">
        <ele>36.6675</ele>
        <time>2012-10-05T20:01:45Z</time>
      </trkpt>
      <trkpt lat="59.9612013" lon="17.7079007">
        <ele>37.1481</ele>
        <time>2012-10-05T20:01:46Z</time>
      </trkpt>
      <trkpt lat="59.9611905" lon="17.7078801">
        <ele>36.6675</ele>
        <time>2012-10-05T20:01:47Z</time>
      </trkpt>
      <trkpt lat="59.9611764" lon="17.7078562">
        <ele>37.1481</ele>
        <time>2012-10-05T20:01:48Z</time>
      </trkpt>
      <trkpt lat="59.9611529" lon="17.7078292">
        <ele>37.1481</ele>
        <time>2012-10-05T20:01:49Z</time>
      </trkpt>
      <trkpt lat="59.961131" lon="17.7078112">
        <ele>38.1094</ele>
        <time>2012-10-05T20:01:50Z</time>
      </trkpt>
      <trkpt lat="59.9611087" lon="17.7077814">
        <ele>38.1094</ele>
        <time>2012-10-05T20:01:51Z</time>
      </trkpt>
      <trkpt lat="59.96109" lon="17.7077429">
        <ele>38.5901</ele>
        <time>2012-10-05T20:01:52Z</time>
      </trkpt>
      <trkpt lat="59.9610709" lon="17.7077054">
        <ele>38.5901</ele>
        <time>2012-10-05T20:01:53Z</time>
      </trkpt>
      <trkpt lat="59.9610476" lon="17.7076728">
        <ele>38.5901</ele>
        <time>2012-10-05T20:01:54Z</time>
      </trkpt>
      <trkpt lat="59.9610258" lon="17.7076525">
        <ele>38.5901</ele>
        <time>2012-10-05T20:01:55Z</time>
      </trkpt>
      <trkpt lat="59.9610042" lon="17.7076299">
        <ele>38.5901</ele>
        <time>2012-10-05T20:01:56Z</time>
      </trkpt>
      <trkpt lat="59.9609848" lon="17.707606">
        <ele>39.0707</ele>
        <time>2012-10-05T20:01:57Z</time>
      </trkpt>
      <trkpt lat="59.9609627" lon="17.7075789">
        <ele>39.0707</ele>
        <time>2012-10-05T20:01:58Z</time>
      </trkpt>
      <trkpt lat="59.9609388" lon="17.7075452">
        <ele>39.0707</ele>
        <time>2012-10-05T20:01:59Z</time>
      </trkpt>
      <trkpt lat="59.9609157" lon="17.7075117">
        <ele>39.5513</ele>
        <time>2012-10-05T20:02:00Z</time>
      </trkpt>
      <trkpt lat="59.9608934" lon="17.7074708">
        <ele>39.0707</ele>
        <time>2012-10-05T20:02:01Z</time>
      </trkpt>
      <trkpt lat="59.9608699" lon="17.7074291">
        <ele>39.5513</ele>
        <time>2012-10-05T20:02:02Z</time>
      </trkpt>
      <trkpt lat="59.9608482" lon="17.7073934">
        <ele>39.5513</ele>
        <time>2012-10-05T20:02:03Z</time>
      </trkpt>
      <trkpt lat="59.9608335" lon="17.7073557">
        <ele>39.5513</ele>
        <time>2012-10-05T20:02:04Z</time>
      </trkpt>
      <trkpt lat="59.9608177" lon="17.7073149">
        <ele>39.5513</ele>
        <time>2012-10-05T20:02:05Z</time>
      </trkpt>
      <trkpt lat="59.9608027" lon="17.7072789">
        <ele>39.5513</ele>
        <time>2012-10-05T20:02:06Z</time>
      </trkpt>
      <trkpt lat="59.9607822" lon="17.7072496">
        <ele>39.5513</ele>
        <time>2012-10-05T20:02:07Z</time>
      </trkpt>
      <trkpt lat="59.960761" lon="17.7072216">
        <ele>39.5513</ele>
        <time>2012-10-05T20:02:08Z</time>
      </trkpt>
      <trkpt lat="59.960747" lon="17.7071987">
        <ele>39.5513</ele>
        <time>2012-10-05T20:02:09Z</time>
      </trkpt>
      <trkpt lat="59.9607325" lon="17.7071729">
        <ele>39.0707</ele>
        <time>2012-10-05T20:02:10Z</time>
      </trkpt>
      <trkpt lat="59.9607105" lon="17.7071391">
        <ele>39.0707</ele>
        <time>2012-10-05T20:02:11Z</time>
      </trkpt>
      <trkpt lat="59.9606897" lon="17.7071124">
        <ele>39.0707</ele>
        <time>2012-10-05T20:02:12Z</time>
      </trkpt>
      <trkpt lat="59.9606711" lon="17.7070792">
        <ele>38.5901</ele>
        <time>2012-10-05T20:02:13Z</time>
      </trkpt>
      <trkpt lat="59.9606498" lon="17.7070428">
        <ele>38.5901</ele>
        <time>2012-10-05T20:02:14Z</time>
      </trkpt>
      <trkpt lat="59.960628" lon="17.7070098">
        <ele>38.5901</ele>
        <time>2012-10-05T20:02:15Z</time>
      </trkpt>
      <trkpt lat="59.9606119" lon="17.7069804">
        <ele>37.6287</ele>
        <time>2012-10-05T20:02:16Z</time>
      </trkpt>
      <trkpt lat="59.9605945" lon="17.7069484">
        <ele>37.1481</ele>
        <time>2012-10-05T20:02:17Z</time>
      </trkpt>
      <trkpt lat="59.9605758" lon="17.7069041">
        <ele>36.6675</ele>
        <time>2012-10-05T20:02:18Z</time>
      </trkpt>
      <trkpt lat="59.9605528" lon="17.7068636">
        <ele>36.1868</ele>
        <time>2012-10-05T20:02:19Z</time>
      </trkpt>
      <trkpt lat="59.9605333" lon="17.7068353">
        <ele>36.1868</ele>
        <time>2012-10-05T20:02:20Z</time>
      </trkpt>
      <trkpt lat="59.9605134" lon="17.7068056">
        <ele>35.7061</ele>
        <time>2012-10-05T20:02:21Z</time>
      </trkpt>
      <trkpt lat="59.9604907" lon="17.7067747">
        <ele>35.7061</ele>
        <time>2012-10-05T20:02:22Z</time>
      </trkpt>
      <trkpt lat="59.9604722" lon="17.706746">
        <ele>35.2255</ele>
        <time>2012-10-05T20:02:23Z</time>
      </trkpt>
      <trkpt lat="59.9604571" lon="17.7067155">
        <ele>34.2642</ele>
        <time>2012-10-05T20:02:24Z</time>
      </trkpt>
      <trkpt lat="59.9604375" lon="17.7066868">
        <ele>34.2642</ele>
        <time>2012-10-05T20:02:25Z</time>
      </trkpt>
      <trkpt lat="59.9604191" lon="17.7066612">
        <ele>34.7449</ele>
        <time>2012-10-05T20:02:26Z</time>
      </trkpt>
      <trkpt lat="59.9604012" lon="17.7066356">
        <ele>34.7449</ele>
        <time>2012-10-05T20:02:27Z</time>
      </trkpt>
      <trkpt lat="59.9603746" lon="17.706615">
        <ele>34.7449</ele>
        <time>2012-10-05T20:02:28Z</time>
      </trkpt>
      <trkpt lat="59.9603372" lon="17.7066034">
        <ele>34.7449</ele>
        <time>2012-10-05T20:02:29Z</time>
      </trkpt>
      <trkpt lat="59.9603098" lon="17.7065855">
        <ele>33.7834</ele>
        <time>2012-10-05T20:02:30Z</time>
      </trkpt>
      <trkpt lat="59.9602813" lon="17.7065533">
        <ele>33.3029</ele>
        <time>2012-10-05T20:02:31Z</time>
      </trkpt>
      <trkpt lat="59.9602572" lon="17.7065265">
        <ele>32.8223</ele>
        <time>2012-10-05T20:02:32Z</time>
      </trkpt>
      <trkpt lat="59.9602402" lon="17.7064945">
        <ele>32.8223</ele>
        <time>2012-10-05T20:02:33Z</time>
      </trkpt>
      <trkpt lat="59.9602223" lon="17.706468">
        <ele>32.8223</ele>
        <time>2012-10-05T20:02:34Z</time>
      </trkpt>
      <trkpt lat="59.9602093" lon="17.7064374">
        <ele>32.8223</ele>
        <time>2012-10-05T20:02:35Z</time>
      </trkpt>
      <trkpt lat="59.9601907" lon="17.7064109">
        <ele>32.8223</ele>
        <time>2012-10-05T20:02:36Z</time>
      </trkpt>
      <trkpt lat="59.9601723" lon="17.7063947">
        <ele>33.3029</ele>
        <time>2012-10-05T20:02:37Z</time>
      </trkpt>
      <trkpt lat="59.9601523" lon="17.7063703">
        <ele>33.3029</ele>
        <time>2012-10-05T20:02:38Z</time>
      </trkpt>
      <trkpt lat="59.960137" lon="17.7063396">
        <ele>33.3029</ele>
        <time>2012-10-05T20:02:39Z</time>
      </trkpt>
      <trkpt lat="59.9601205" lon="17.7063108">
        <ele>33.7834</ele>
        <time>2012-10-05T20:02:40Z</time>
      </trkpt>
      <trkpt lat="59.9601022" lon="17.7062695">
        <ele>33.7834</ele>
        <time>2012-10-05T20:02:41Z</time>
      </trkpt>
      <trkpt lat="59.9600784" lon="17.7062457">
        <ele>33.7834</ele>
        <time>2012-10-05T20:02:42Z</time>
      </trkpt>
      <trkpt lat="59.9600643" lon="17.7062352">
        <ele>34.2642</ele>
        <time>2012-10-05T20:02:43Z</time>
      </trkpt>
      <trkpt lat="59.9600541" lon="17.7062266">
        <ele>34.2642</ele>
        <time>2012-10-05T20:02:44Z</time>
      </trkpt>
      <trkpt lat="59.9600401" lon="17.7062203">
        <ele>34.2642</ele>
        <time>2012-10-05T20:02:45Z</time>
      </trkpt>
      <trkpt lat="59.9600267" lon="17.7062088">
        <ele>35.2255</ele>
        <time>2012-10-05T20:02:46Z</time>
      </trkpt>
      <trkpt lat="59.9600141" lon="17.7061857">
        <ele>36.1868</ele>
        <time>2012-10-05T20:02:47Z</time>
      </trkpt>
      <trkpt lat="59.9599873" lon="17.7061552">
        <ele>36.1868</ele>
        <time>2012-10-05T20:02:48Z</time>
      </trkpt>
      <trkpt lat="59.959951" lon="17.7061207">
        <ele>36.1868</ele>
        <time>2012-10-05T20:02:49Z</time>
      </trkpt>
      <trkpt lat="59.9599195" lon="17.7060867">
        <ele>36.1868</ele>
        <time>2012-10-05T20:02:50Z</time>
      </trkpt>
      <trkpt lat="59.959893" lon="17.7060515">
        <ele>35.7061</ele>
        <time>2012-10-05T20:02:51Z</time>
      </trkpt>
      <trkpt lat="59.9598706" lon="17.7060187">
        <ele>36.1868</ele>
        <time>2012-10-05T20:02:52Z</time>
      </trkpt>
      <trkpt lat="59.9598504" lon="17.7059929">
        <ele>36.1868</ele>
        <time>2012-10-05T20:02:53Z</time>
      </trkpt>
      <trkpt lat="59.9598315" lon="17.7059857">
        <ele>36.6675</ele>
        <time>2012-10-05T20:02:54Z</time>
      </trkpt>
      <trkpt lat="59.9598064" lon="17.7059746">
        <ele>37.6287</ele>
        <time>2012-10-05T20:02:55Z</time>
      </trkpt>
      <trkpt lat="59.9597796" lon="17.7059432">
        <ele>37.6287</ele>
        <time>2012-10-05T20:02:56Z</time>
      </trkpt>
      <trkpt lat="59.9597526" lon="17.7058986">
        <ele>38.1094</ele>
        <time>2012-10-05T20:02:57Z</time>
      </trkpt>
      <trkpt lat="59.9597317" lon="17.7058603">
        <ele>38.5901</ele>
        <time>2012-10-05T20:02:58Z</time>
      </trkpt>
      <trkpt lat="59.9597117" lon="17.7058251">
        <ele>39.0707</ele>
        <time>2012-10-05T20:02:59Z</time>
      </trkpt>
      <trkpt lat="59.9597086" lon="17.7057888">
        <ele>39.0707</ele>
        <time>2012-10-05T20:03:00Z</time>
      </trkpt>
      <trkpt lat="59.9597066" lon="17.7057463">
        <ele>39.0707</ele>
        <time>2012-10-05T20:03:01Z</time>
      </trkpt>
      <trkpt lat="59.9597007" lon="17.7056992">
        <ele>39.5513</ele>
        <time>2012-10-05T20:03:02Z</time>
      </trkpt>
      <trkpt lat="59.9596954" lon="17.7056478">
        <ele>39.5513</ele>
        <time>2012-10-05T20:03:03Z</time>
      </trkpt>
      <trkpt lat="59.9596936" lon="17.7055848">
        <ele>39.0707</ele>
        <time>2012-10-05T20:03:04Z</time>
      </trkpt>
      <trkpt lat="59.9596889" lon="17.7055218">
        <ele>39.0707</ele>
        <time>2012-10-05T20:03:05Z</time>
      </trkpt>
      <trkpt lat="59.9596941" lon="17.7054734">
        <ele>38.5901</ele>
        <time>2012-10-05T20:03:06Z</time>
      </trkpt>
      <trkpt lat="59.9597059" lon="17.7054177">
        <ele>38.5901</ele>
        <time>2012-10-05T20:03:07Z</time>
      </trkpt>
      <trkpt lat="59.9597261" lon="17.7053683">
        <ele>38.5901</ele>
        <time>2012-10-05T20:03:08Z</time>
      </trkpt>
      <trkpt lat="59.9597514" lon="17.7053287">
        <ele>38.5901</ele>
        <time>2012-10-05T20:03:09Z</time>
      </trkpt>
      <trkpt lat="59.9597662" lon="17.7052986">
        <ele>38.1094</ele>
        <time>2012-10-05T20:03:10Z</time>
      </trkpt>
      <trkpt lat="59.9597821" lon="17.7052496">
        <ele>38.5901</ele>
        <time>2012-10-05T20:03:11Z</time>
      </trkpt>
      <trkpt lat="59.9598003" lon="17.7051978">
        <ele>38.5901</ele>
        <time>2012-10-05T20:03:12Z</time>
      </trkpt>
      <trkpt lat="59.9598153" lon="17.7051387">
        <ele>38.5901</ele>
        <time>2012-10-05T20:03:13Z</time>
      </trkpt>
      <trkpt lat="59.9598288" lon="17.7050888">
        <ele>38.1094</ele>
        <time>2012-10-05T20:03:14Z</time>
      </trkpt>
      <trkpt lat="59.9598462" lon="17.7050383">
        <ele>38.1094</ele>
        <time>2012-10-05T20:03:15Z</time>
      </trkpt>
      <trkpt lat="59.9598613" lon="17.7049911">
        <ele>38.1094</ele>
        <time>2012-10-05T20:03:16Z</time>
      </trkpt>
      <trkpt lat="59.9598767" lon="17.7049449">
        <ele>38.5901</ele>
        <time>2012-10-05T20:03:17Z</time>
      </trkpt>
      <trkpt lat="59.9598987" lon="17.7049099">
        <ele>39.0707</ele>
        <time>2012-10-05T20:03:18Z</time>
      </trkpt>
      <trkpt lat="59.959928" lon="17.7048751">
        <ele>39.5513</ele>
        <time>2012-10-05T20:03:19Z</time>
      </trkpt>
      <trkpt lat="59.9599563" lon="17.7048412">
        <ele>40.5128</ele>
        <time>2012-10-05T20:03:20Z</time>
      </trkpt>
      <trkpt lat="59.9599868" lon="17.7048137">
        <ele>41.9547</ele>
        <time>2012-10-05T20:03:21Z</time>
      </trkpt>
      <trkpt lat="59.9600173" lon="17.7047914">
        <ele>43.8773</ele>
        <time>2012-10-05T20:03:22Z</time>
      </trkpt>
      <trkpt lat="59.9600437" lon="17.7047684">
        <ele>45.3192</ele>
        <time>2012-10-05T20:03:23Z</time>
      </trkpt>
      <trkpt lat="59.9600713" lon="17.7047612">
        <ele>45.3192</ele>
        <time>2012-10-05T20:03:24Z</time>
      </trkpt>
      <trkpt lat="59.9600998" lon="17.704759">
        <ele>45.3192</ele>
        <time>2012-10-05T20:03:25Z</time>
      </trkpt>
      <trkpt lat="59.9601265" lon="17.7047602">
        <ele>45.3192</ele>
        <time>2012-10-05T20:03:26Z</time>
      </trkpt>
      <trkpt lat="59.9601541" lon="17.7047595">
        <ele>45.3192</ele>
        <time>2012-10-05T20:03:27Z</time>
      </trkpt>
      <trkpt lat="59.9601773" lon="17.7047435">
        <ele>44.358</ele>
        <time>2012-10-05T20:03:28Z</time>
      </trkpt>
      <trkpt lat="59.9601998" lon="17.7047238">
        <ele>44.358</ele>
        <time>2012-10-05T20:03:29Z</time>
      </trkpt>
      <trkpt lat="59.9602254" lon="17.7047124">
        <ele>44.358</ele>
        <time>2012-10-05T20:03:30Z</time>
      </trkpt>
      <trkpt lat="59.9602526" lon="17.7047149">
        <ele>43.8773</ele>
        <time>2012-10-05T20:03:31Z</time>
      </trkpt>
      <trkpt lat="59.960282" lon="17.7047262">
        <ele>43.8773</ele>
        <time>2012-10-05T20:03:32Z</time>
      </trkpt>
      <trkpt lat="59.9603096" lon="17.7047389">
        <ele>43.3966</ele>
        <time>2012-10-05T20:03:33Z</time>
      </trkpt>
      <trkpt lat="59.9603378" lon="17.704758">
        <ele>43.3966</ele>
        <time>2012-10-05T20:03:34Z</time>
      </trkpt>
      <trkpt lat="59.9603635" lon="17.7047781">
        <ele>42.916</ele>
        <time>2012-10-05T20:03:35Z</time>
      </trkpt>
      <trkpt lat="59.9603872" lon="17.7047835">
        <ele>42.916</ele>
        <time>2012-10-05T20:03:36Z</time>
      </trkpt>
      <trkpt lat="59.9604078" lon="17.7047702">
        <ele>42.916</ele>
        <time>2012-10-05T20:03:37Z</time>
      </trkpt>
      <trkpt lat="59.9604331" lon="17.7047594">
        <ele>42.4354</ele>
        <time>2012-10-05T20:03:38Z</time>
      </trkpt>
      <trkpt lat="59.9604608" lon="17.704764">
        <ele>42.4354</ele>
        <time>2012-10-05T20:03:39Z</time>
      </trkpt>
      <trkpt lat="59.960486" lon="17.7047792">
        <ele>42.4354</ele>
        <time>2012-10-05T20:03:40Z</time>
      </trkpt>
      <trkpt lat="59.9605099" lon="17.7048019">
        <ele>41.9547</ele>
        <time>2012-10-05T20:03:41Z</time>
      </trkpt>
      <trkpt lat="59.9605308" lon="17.7048277">
        <ele>41.9547</ele>
        <time>2012-10-05T20:03:42Z</time>
      </trkpt>
      <trkpt lat="59.9605503" lon="17.7048531">
        <ele>41.474</ele>
        <time>2012-10-05T20:03:43Z</time>
      </trkpt>
      <trkpt lat="59.9605704" lon="17.7048843">
        <ele>40.9934</ele>
        <time>2012-10-05T20:03:44Z</time>
      </trkpt>
      <trkpt lat="59.9605906" lon="17.704917">
        <ele>40.5128</ele>
        <time>2012-10-05T20:03:45Z</time>
      </trkpt>
      <trkpt lat="59.9606107" lon="17.7049434">
        <ele>40.5128</ele>
        <time>2012-10-05T20:03:46Z</time>
      </trkpt>
      <trkpt lat="59.9606318" lon="17.7049728">
        <ele>40.0321</ele>
        <time>2012-10-05T20:03:47Z</time>
      </trkpt>
      <trkpt lat="59.9606493" lon="17.7049997">
        <ele>39.5513</ele>
        <time>2012-10-05T20:03:48Z</time>
      </trkpt>
      <trkpt lat="59.9606695" lon="17.7050214">
        <ele>38.5901</ele>
        <time>2012-10-05T20:03:49Z</time>
      </trkpt>
      <trkpt lat="59.9606862" lon="17.7050486">
        <ele>38.1094</ele>
        <time>2012-10-05T20:03:50Z</time>
      </trkpt>
      <trkpt lat="59.9606989" lon="17.7050717">
        <ele>37.1481</ele>
        <time>2012-10-05T20:03:51Z</time>
      </trkpt>
      <trkpt lat="59.9607135" lon="17.7050915">
        <ele>36.6675</ele>
        <time>2012-10-05T20:03:52Z</time>
      </trkpt>
      <trkpt lat="59.9607336" lon="17.7051205">
        <ele>36.6675</ele>
        <time>2012-10-05T20:03:53Z</time>
      </trkpt>
      <trkpt lat="59.9607546" lon="17.70515">
        <ele>36.1868</ele>
        <time>2012-10-05T20:03:54Z</time>
      </trkpt>
      <trkpt lat="59.9607701" lon="17.7051734">
        <ele>35.7061</ele>
        <time>2012-10-05T20:03:55Z</time>
      </trkpt>
      <trkpt lat="59.9607928" lon="17.7051956">
        <ele>36.1868</ele>
        <time>2012-10-05T20:03:56Z</time>
      </trkpt>
      <trkpt lat="59.9608119" lon="17.7052259">
        <ele>36.1868</ele>
        <time>2012-10-05T20:03:57Z</time>
      </trkpt>
      <trkpt lat="59.9608336" lon="17.7052522">
        <ele>36.1868</ele>
        <time>2012-10-05T20:03:58Z</time>
      </trkpt>
      <trkpt lat="59.9608537" lon="17.7052822">
        <ele>36.6675</ele>
        <time>2012-10-05T20:03:59Z</time>
      </trkpt>
      <trkpt lat="59.9608734" lon="17.7053127">
        <ele>35.7061</ele>
        <time>2012-10-05T20:04:00Z</time>
      </trkpt>
      <trkpt lat="59.9608965" lon="17.7053449">
        <ele>35.7061</ele>
        <time>2012-10-05T20:04:01Z</time>
      </trkpt>
      <trkpt lat="59.9609146" lon="17.7053775">
        <ele>36.6675</ele>
        <time>2012-10-05T20:04:02Z</time>
      </trkpt>
      <trkpt lat="59.9609386" lon="17.7054063">
        <ele>37.1481</ele>
        <time>2012-10-05T20:04:03Z</time>
      </trkpt>
      <trkpt lat="59.9609648" lon="17.7054398">
        <ele>37.6287</ele>
        <time>2012-10-05T20:04:04Z</time>
      </trkpt>
      <trkpt lat="59.960987" lon="17.7054702">
        <ele>38.1094</ele>
        <time>2012-10-05T20:04:05Z</time>
      </trkpt>
      <trkpt lat="59.9610143" lon="17.7054977">
        <ele>38.5901</ele>
        <time>2012-10-05T20:04:06Z</time>
      </trkpt>
      <trkpt lat="59.9610347" lon="17.7055296">
        <ele>39.0707</ele>
        <time>2012-10-05T20:04:07Z</time>
      </trkpt>
      <trkpt lat="59.9610528" lon="17.7055572">
        <ele>39.5513</ele>
        <time>2012-10-05T20:04:08Z</time>
      </trkpt>
      <trkpt lat="59.9610695" lon="17.70559">
        <ele>39.0707</ele>
        <time>2012-10-05T20:04:09Z</time>
      </trkpt>
      <trkpt lat="59.9610889" lon="17.7056242">
        <ele>39.0707</ele>
        <time>2012-10-05T20:04:10Z</time>
      </trkpt>
      <trkpt lat="59.9611039" lon="17.7056541">
        <ele>38.1094</ele>
        <time>2012-10-05T20:04:11Z</time>
      </trkpt>
      <trkpt lat="59.9611186" lon="17.7056877">
        <ele>37.1481</ele>
        <time>2012-10-05T20:04:12Z</time>
      </trkpt>
      <trkpt lat="59.9611367" lon="17.7057204">
        <ele>37.1481</ele>
        <time>2012-10-05T20:04:13Z</time>
      </trkpt>
      <trkpt lat="59.9611563" lon="17.705752">
        <ele>37.1481</ele>
        <time>2012-10-05T20:04:14Z</time>
      </trkpt>
      <trkpt lat="59.9611781" lon="17.705785">
        <ele>37.1481</ele>
        <time>2012-10-05T20:04:15Z</time>
      </trkpt>
      <trkpt lat="59.9611999" lon="17.7058173">
        <ele>37.1481</ele>
        <time>2012-10-05T20:04:16Z</time>
      </trkpt>
      <trkpt lat="59.9612171" lon="17.7058508">
        <ele>37.6287</ele>
        <time>2012-10-05T20:04:17Z</time>
      </trkpt>
      <trkpt lat="59.9612353" lon="17.7058884">
        <ele>37.6287</ele>
        <time>2012-10-05T20:04:18Z</time>
      </trkpt>
      <trkpt lat="59.9612551" lon="17.7059174">
        <ele>37.1481</ele>
        <time>2012-10-05T20:04:19Z</time>
      </trkpt>
      <trkpt lat="59.9612761" lon="17.705948">
        <ele>37.1481</ele>
        <time>2012-10-05T20:04:20Z</time>
      </trkpt>
      <trkpt lat="59.9612982" lon="17.7059836">
        <ele>37.1481</ele>
        <time>2012-10-05T20:04:21Z</time>
      </trkpt>
      <trkpt lat="59.961318" lon="17.7060179">
        <ele>37.1481</ele>
        <time>2012-10-05T20:04:22Z</time>
      </trkpt>
      <trkpt lat="59.961336" lon="17.7060577">
        <ele>37.1481</ele>
        <time>2012-10-05T20:04:23Z</time>
      </trkpt>
      <trkpt lat="59.9613546" lon="17.7060961">
        <ele>37.1481</ele>
        <time>2012-10-05T20:04:24Z</time>
      </trkpt>
      <trkpt lat="59.9613736" lon="17.7061286">
        <ele>37.1481</ele>
        <time>2012-10-05T20:04:25Z</time>
      </trkpt>
      <trkpt lat="59.9613884" lon="17.7061617">
        <ele>37.6287</ele>
        <time>2012-10-05T20:04:26Z</time>
      </trkpt>
      <trkpt lat="59.961405" lon="17.7061939">
        <ele>37.6287</ele>
        <time>2012-10-05T20:04:27Z</time>
      </trkpt>
      <trkpt lat="59.9614241" lon="17.7062258">
        <ele>37.6287</ele>
        <time>2012-10-05T20:04:28Z</time>
      </trkpt>
      <trkpt lat="59.9614459" lon="17.7062596">
        <ele>37.6287</ele>
        <time>2012-10-05T20:04:29Z</time>
      </trkpt>
      <trkpt lat="59.9614673" lon="17.7062944">
        <ele>37.6287</ele>
        <time>2012-10-05T20:04:30Z</time>
      </trkpt>
      <trkpt lat="59.961489" lon="17.7063275">
        <ele>37.6287</ele>
        <time>2012-10-05T20:04:31Z</time>
      </trkpt>
      <trkpt lat="59.9615077" lon="17.7063597">
        <ele>37.6287</ele>
        <time>2012-10-05T20:04:32Z</time>
      </trkpt>
      <trkpt lat="59.9615238" lon="17.7063849">
        <ele>37.1481</ele>
        <time>2012-10-05T20:04:33Z</time>
      </trkpt>
      <trkpt lat="59.9615417" lon="17.7064078">
        <ele>37.1481</ele>
        <time>2012-10-05T20:04:34Z</time>
      </trkpt>
      <trkpt lat="59.9615616" lon="17.7064353">
        <ele>37.1481</ele>
        <time>2012-10-05T20:04:35Z</time>
      </trkpt>
      <trkpt lat="59.9615826" lon="17.7064613">
        <ele>37.1481</ele>
        <time>2012-10-05T20:04:36Z</time>
      </trkpt>
      <trkpt lat="59.9616048" lon="17.7064917">
        <ele>37.6287</ele>
        <time>2012-10-05T20:04:37Z</time>
      </trkpt>
      <trkpt lat="59.9616237" lon="17.7065266">
        <ele>37.6287</ele>
        <time>2012-10-05T20:04:38Z</time>
      </trkpt>
      <trkpt lat="59.9616397" lon="17.7065524">
        <ele>36.6675</ele>
        <time>2012-10-05T20:04:39Z</time>
      </trkpt>
      <trkpt lat="59.9616564" lon="17.7065755">
        <ele>35.2255</ele>
        <time>2012-10-05T20:04:40Z</time>
      </trkpt>
      <trkpt lat="59.9616768" lon="17.706603">
        <ele>34.2642</ele>
        <time>2012-10-05T20:04:41Z</time>
      </trkpt>
      <trkpt lat="59.9616942" lon="17.7066336">
        <ele>34.2642</ele>
        <time>2012-10-05T20:04:42Z</time>
      </trkpt>
      <trkpt lat="59.9617112" lon="17.70666">
        <ele>33.7834</ele>
        <time>2012-10-05T20:04:43Z</time>
      </trkpt>
      <trkpt lat="59.9617299" lon="17.7066845">
        <ele>33.7834</ele>
        <time>2012-10-05T20:04:44Z</time>
      </trkpt>
      <trkpt lat="59.961753" lon="17.7067089">
        <ele>34.2642</ele>
        <time>2012-10-05T20:04:45Z</time>
      </trkpt>
      <trkpt lat="59.9617728" lon="17.7067361">
        <ele>33.7834</ele>
        <time>2012-10-05T20:04:46Z</time>
      </trkpt>
      <trkpt lat="59.9617915" lon="17.7067651">
        <ele>33.3029</ele>
        <time>2012-10-05T20:04:47Z</time>
      </trkpt>
      <trkpt lat="59.961807" lon="17.7067938">
        <ele>32.8223</ele>
        <time>2012-10-05T20:04:48Z</time>
      </trkpt>
      <trkpt lat="59.9618263" lon="17.7068202">
        <ele>32.3416</ele>
        <time>2012-10-05T20:04:49Z</time>
      </trkpt>
      <trkpt lat="59.9618486" lon="17.7068449">
        <ele>31.8607</ele>
        <time>2012-10-05T20:04:50Z</time>
      </trkpt>
      <trkpt lat="59.9618702" lon="17.706864">
        <ele>31.3801</ele>
        <time>2012-10-05T20:04:51Z</time>
      </trkpt>
      <trkpt lat="59.9618889" lon="17.7068865">
        <ele>30.4188</ele>
        <time>2012-10-05T20:04:52Z</time>
      </trkpt>
      <trkpt lat="59.9619117" lon="17.7069123">
        <ele>30.4188</ele>
        <time>2012-10-05T20:04:53Z</time>
      </trkpt>
      <trkpt lat="59.9619307" lon="17.7069311">
        <ele>29.9381</ele>
        <time>2012-10-05T20:04:54Z</time>
      </trkpt>
      <trkpt lat="59.961949" lon="17.7069482">
        <ele>29.4575</ele>
        <time>2012-10-05T20:04:55Z</time>
      </trkpt>
      <trkpt lat="59.9619706" lon="17.706965">
        <ele>29.4575</ele>
        <time>2012-10-05T20:04:56Z</time>
      </trkpt>
      <trkpt lat="59.9619925" lon="17.7069824">
        <ele>28.9769</ele>
        <time>2012-10-05T20:04:57Z</time>
      </trkpt>
      <trkpt lat="59.9620148" lon="17.7069984">
        <ele>28.9769</ele>
        <time>2012-10-05T20:04:58Z</time>
      </trkpt>
      <trkpt lat="59.9620386" lon="17.707017">
        <ele>28.9769</ele>
        <time>2012-10-05T20:04:59Z</time>
      </trkpt>
      <trkpt lat="59.9620582" lon="17.7070335">
        <ele>28.0155</ele>
        <time>2012-10-05T20:05:00Z</time>
      </trkpt>
      <trkpt lat="59.9620773" lon="17.707049">
        <ele>27.5349</ele>
        <time>2012-10-05T20:05:01Z</time>
      </trkpt>
      <trkpt lat="59.9621014" lon="17.7070683">
        <ele>27.5349</ele>
        <time>2012-10-05T20:05:02Z</time>
      </trkpt>
      <trkpt lat="59.9621262" lon="17.7070858">
        <ele>28.9769</ele>
        <time>2012-10-05T20:05:03Z</time>
      </trkpt>
      <trkpt lat="59.9621495" lon="17.7070993">
        <ele>29.4575</ele>
        <time>2012-10-05T20:05:04Z</time>
      </trkpt>
      <trkpt lat="59.9621753" lon="17.7071169">
        <ele>29.9381</ele>
        <time>2012-10-05T20:05:05Z</time>
      </trkpt>
      <trkpt lat="59.9621996" lon="17.7071356">
        <ele>29.9381</ele>
        <time>2012-10-05T20:05:06Z</time>
      </trkpt>
      <trkpt lat="59.9622214" lon="17.7071499">
        <ele>30.4188</ele>
        <time>2012-10-05T20:05:07Z</time>
      </trkpt>
      <trkpt lat="59.9622415" lon="17.707164">
        <ele>29.4575</ele>
        <time>2012-10-05T20:05:08Z</time>
      </trkpt>
      <trkpt lat="59.9622655" lon="17.7071785">
        <ele>28.9769</ele>
        <time>2012-10-05T20:05:09Z</time>
      </trkpt>
      <trkpt lat="59.9622881" lon="17.7071893">
        <ele>28.4962</ele>
        <time>2012-10-05T20:05:10Z</time>
      </trkpt>
      <trkpt lat="59.9623111" lon="17.7072">
        <ele>27.5349</ele>
        <time>2012-10-05T20:05:11Z</time>
      </trkpt>
      <trkpt lat="59.9623344" lon="17.7072135">
        <ele>27.5349</ele>
        <time>2012-10-05T20:05:12Z</time>
      </trkpt>
      <trkpt lat="59.9623629" lon="17.7072216">
        <ele>28.0155</ele>
        <time>2012-10-05T20:05:13Z</time>
      </trkpt>
      <trkpt lat="59.9623887" lon="17.7072294">
        <ele>28.0155</ele>
        <time>2012-10-05T20:05:14Z</time>
      </trkpt>
      <trkpt lat="59.9624152" lon="17.7072354">
        <ele>28.4962</ele>
        <time>2012-10-05T20:05:15Z</time>
      </trkpt>
      <trkpt lat="59.9624411" lon="17.7072383">
        <ele>28.0155</ele>
        <time>2012-10-05T20:05:16Z</time>
      </trkpt>
      <trkpt lat="59.9624675" lon="17.7072442">
        <ele>28.4962</ele>
        <time>2012-10-05T20:05:17Z</time>
      </trkpt>
      <trkpt lat="59.9624896" lon="17.7072526">
        <ele>28.4962</ele>
        <time>2012-10-05T20:05:18Z</time>
      </trkpt>
      <trkpt lat="59.9625109" lon="17.7072583">
        <ele>28.0155</ele>
        <time>2012-10-05T20:05:19Z</time>
      </trkpt>
      <trkpt lat="59.9625346" lon="17.7072624">
        <ele>27.5349</ele>
        <time>2012-10-05T20:05:20Z</time>
      </trkpt>
      <trkpt lat="59.9625602" lon="17.7072662">
        <ele>28.0155</ele>
        <time>2012-10-05T20:05:21Z</time>
      </trkpt>
      <trkpt lat="59.9625825" lon="17.7072712">
        <ele>28.0155</ele>
        <time>2012-10-05T20:05:22Z</time>
      </trkpt>
      <trkpt lat="59.9626051" lon="17.7072785">
        <ele>27.5349</ele>
        <time>2012-10-05T20:05:23Z</time>
      </trkpt>
      <trkpt lat="59.9626291" lon="17.7072873">
        <ele>27.5349</ele>
        <time>2012-10-05T20:05:24Z</time>
      </trkpt>
      <trkpt lat="59.9626488" lon="17.707294">
        <ele>27.0543</ele>
        <time>2012-10-05T20:05:25Z</time>
      </trkpt>
      <trkpt lat="59.962675" lon="17.7072973">
        <ele>28.0155</ele>
        <time>2012-10-05T20:05:26Z</time>
      </trkpt>
      <trkpt lat="59.9627027" lon="17.7073002">
        <ele>28.0155</ele>
        <time>2012-10-05T20:05:27Z</time>
      </trkpt>
      <trkpt lat="59.9627317" lon="17.7072973">
        <ele>28.4962</ele>
        <time>2012-10-05T20:05:28Z</time>
      </trkpt>
      <trkpt lat="59.9627594" lon="17.7072986">
        <ele>28.4962</ele>
        <time>2012-10-05T20:05:29Z</time>
      </trkpt>
      <trkpt lat="59.9627877" lon="17.707303">
        <ele>28.9769</ele>
        <time>2012-10-05T20:05:30Z</time>
      </trkpt>
      <trkpt lat="59.9628135" lon="17.7073064">
        <ele>28.9769</ele>
        <time>2012-10-05T20:05:31Z</time>
      </trkpt>
      <trkpt lat="59.9628384" lon="17.7073012">
        <ele>29.4575</ele>
        <time>2012-10-05T20:05:32Z</time>
      </trkpt>
      <trkpt lat="59.9628654" lon="17.7072996">
        <ele>29.4575</ele>
        <time>2012-10-05T20:05:33Z</time>
      </trkpt>
      <trkpt lat="59.962896" lon="17.7073059">
        <ele>29.9381</ele>
        <time>2012-10-05T20:05:34Z</time>
      </trkpt>
      <trkpt lat="59.962924" lon="17.7073069">
        <ele>30.4188</ele>
        <time>2012-10-05T20:05:35Z</time>
      </trkpt>
      <trkpt lat="59.9629481" lon="17.7073072">
        <ele>30.4188</ele>
        <time>2012-10-05T20:05:36Z</time>
      </trkpt>
      <trkpt lat="59.9629726" lon="17.7073067">
        <ele>30.4188</ele>
        <time>2012-10-05T20:05:37Z</time>
      </trkpt>
      <trkpt lat="59.9629974" lon="17.7073018">
        <ele>29.9381</ele>
        <time>2012-10-05T20:05:38Z</time>
      </trkpt>
      <trkpt lat="59.9630201" lon="17.7072967">
        <ele>29.4575</ele>
        <time>2012-10-05T20:05:39Z</time>
      </trkpt>
      <trkpt lat="59.96304" lon="17.7072925">
        <ele>28.4962</ele>
        <time>2012-10-05T20:05:40Z</time>
      </trkpt>
      <trkpt lat="59.9630652" lon="17.7072888">
        <ele>28.0155</ele>
        <time>2012-10-05T20:05:41Z</time>
      </trkpt>
      <trkpt lat="59.9630912" lon="17.7072815">
        <ele>28.0155</ele>
        <time>2012-10-05T20:05:42Z</time>
      </trkpt>
      <trkpt lat="59.963116" lon="17.7072714">
        <ele>28.4962</ele>
        <time>2012-10-05T20:05:43Z</time>
      </trkpt>
      <trkpt lat="59.9631431" lon="17.7072686">
        <ele>28.4962</ele>
        <time>2012-10-05T20:05:44Z</time>
      </trkpt>
      <trkpt lat="59.96317" lon="17.7072717">
        <ele>28.0155</ele>
        <time>2012-10-05T20:05:45Z</time>
      </trkpt>
      <trkpt lat="59.9631938" lon="17.7072735">
        <ele>28.0155</ele>
        <time>2012-10-05T20:05:46Z</time>
      </trkpt>
      <trkpt lat="59.9632205" lon="17.707274">
        <ele>27.5349</ele>
        <time>2012-10-05T20:05:47Z</time>
      </trkpt>
      <trkpt lat="59.9632429" lon="17.7072729">
        <ele>27.0543</ele>
        <time>2012-10-05T20:05:48Z</time>
      </trkpt>
      <trkpt lat="59.9632652" lon="17.7072704">
        <ele>27.0543</ele>
        <time>2012-10-05T20:05:49Z</time>
      </trkpt>
      <trkpt lat="59.963294" lon="17.7072691">
        <ele>27.0543</ele>
        <time>2012-10-05T20:05:50Z</time>
      </trkpt>
      <trkpt lat="59.9633211" lon="17.707271">
        <ele>27.0543</ele>
        <time>2012-10-05T20:05:51Z</time>
      </trkpt>
      <trkpt lat="59.9633446" lon="17.707276">
        <ele>26.5736</ele>
        <time>2012-10-05T20:05:52Z</time>
      </trkpt>
      <trkpt lat="59.9633738" lon="17.7072878">
        <ele>26.5736</ele>
        <time>2012-10-05T20:05:53Z</time>
      </trkpt>
      <trkpt lat="59.9634031" lon="17.7072988">
        <ele>26.5736</ele>
        <time>2012-10-05T20:05:54Z</time>
      </trkpt>
      <trkpt lat="59.9634278" lon="17.7073015">
        <ele>26.0929</ele>
        <time>2012-10-05T20:05:55Z</time>
      </trkpt>
      <trkpt lat="59.9634553" lon="17.707293">
        <ele>27.0543</ele>
        <time>2012-10-05T20:05:56Z</time>
      </trkpt>
      <trkpt lat="59.9634811" lon="17.7072848">
        <ele>27.0543</ele>
        <time>2012-10-05T20:05:57Z</time>
      </trkpt>
      <trkpt lat="59.9635014" lon="17.7072767">
        <ele>27.0543</ele>
        <time>2012-10-05T20:05:58Z</time>
      </trkpt>
      <trkpt lat="59.9635273" lon="17.7072698">
        <ele>27.5349</ele>
        <time>2012-10-05T20:05:59Z</time>
      </trkpt>
      <trkpt lat="59.9635546" lon="17.7072682">
        <ele>27.5349</ele>
        <time>2012-10-05T20:06:00Z</time>
      </trkpt>
      <trkpt lat="59.963577" lon="17.7072683">
        <ele>27.5349</ele>
        <time>2012-10-05T20:06:01Z</time>
      </trkpt>
      <trkpt lat="59.9636015" lon="17.7072717">
        <ele>28.0155</ele>
        <time>2012-10-05T20:06:02Z</time>
      </trkpt>
      <trkpt lat="59.9636247" lon="17.7072751">
        <ele>27.5349</ele>
        <time>2012-10-05T20:06:03Z</time>
      </trkpt>
      <trkpt lat="59.963649" lon="17.7072758">
        <ele>28.0155</ele>
        <time>2012-10-05T20:06:04Z</time>
      </trkpt>
      <trkpt lat="59.9636743" lon="17.7072749">
        <ele>28.0155</ele>
        <time>2012-10-05T20:06:05Z</time>
      </trkpt>
      <trkpt lat="59.9637027" lon="17.7072754">
        <ele>28.0155</ele>
        <time>2012-10-05T20:06:06Z</time>
      </trkpt>
      <trkpt lat="59.9637269" lon="17.7072765">
        <ele>28.0155</ele>
        <time>2012-10-05T20:06:07Z</time>
      </trkpt>
      <trkpt lat="59.9637523" lon="17.7072807">
        <ele>28.0155</ele>
        <time>2012-10-05T20:06:08Z</time>
      </trkpt>
      <trkpt lat="59.9637784" lon="17.7072794">
        <ele>28.9769</ele>
        <time>2012-10-05T20:06:09Z</time>
      </trkpt>
      <trkpt lat="59.9638008" lon="17.7072789">
        <ele>28.4962</ele>
        <time>2012-10-05T20:06:10Z</time>
      </trkpt>
      <trkpt lat="59.9638283" lon="17.7072842">
        <ele>28.4962</ele>
        <time>2012-10-05T20:06:11Z</time>
      </trkpt>
      <trkpt lat="59.9638527" lon="17.707291">
        <ele>28.0155</ele>
        <time>2012-10-05T20:06:12Z</time>
      </trkpt>
      <trkpt lat="59.9638771" lon="17.707295">
        <ele>28.0155</ele>
        <time>2012-10-05T20:06:13Z</time>
      </trkpt>
      <trkpt lat="59.9639045" lon="17.7072984">
        <ele>28.0155</ele>
        <time>2012-10-05T20:06:14Z</time>
      </trkpt>
      <trkpt lat="59.9639268" lon="17.7073009">
        <ele>27.5349</ele>
        <time>2012-10-05T20:06:15Z</time>
      </trkpt>
      <trkpt lat="59.9639502" lon="17.7072999">
        <ele>27.0543</ele>
        <time>2012-10-05T20:06:16Z</time>
      </trkpt>
      <trkpt lat="59.9639763" lon="17.7073008">
        <ele>27.0543</ele>
        <time>2012-10-05T20:06:17Z</time>
      </trkpt>
      <trkpt lat="59.9640022" lon="17.7073082">
        <ele>26.5736</ele>
        <time>2012-10-05T20:06:18Z</time>
      </trkpt>
      <trkpt lat="59.9640308" lon="17.7073128">
        <ele>27.0543</ele>
        <time>2012-10-05T20:06:19Z</time>
      </trkpt>
      <trkpt lat="59.9640568" lon="17.707318">
        <ele>27.0543</ele>
        <time>2012-10-05T20:06:20Z</time>
      </trkpt>
      <trkpt lat="59.9640807" lon="17.7073207">
        <ele>27.5349</ele>
        <time>2012-10-05T20:06:21Z</time>
      </trkpt>
      <trkpt lat="59.9641091" lon="17.7073247">
        <ele>28.0155</ele>
        <time>2012-10-05T20:06:22Z</time>
      </trkpt>
      <trkpt lat="59.9641372" lon="17.7073342">
        <ele>28.0155</ele>
        <time>2012-10-05T20:06:23Z</time>
      </trkpt>
      <trkpt lat="59.964163" lon="17.7073383">
        <ele>28.0155</ele>
        <time>2012-10-05T20:06:24Z</time>
      </trkpt>
      <trkpt lat="59.9641898" lon="17.7073404">
        <ele>28.4962</ele>
        <time>2012-10-05T20:06:25Z</time>
      </trkpt>
      <trkpt lat="59.9642135" lon="17.7073475">
        <ele>28.4962</ele>
        <time>2012-10-05T20:06:26Z</time>
      </trkpt>
      <trkpt lat="59.9642382" lon="17.7073563">
        <ele>28.0155</ele>
        <time>2012-10-05T20:06:27Z</time>
      </trkpt>
      <trkpt lat="59.9642655" lon="17.7073651">
        <ele>28.4962</ele>
        <time>2012-10-05T20:06:28Z</time>
      </trkpt>
      <trkpt lat="59.9642922" lon="17.707379">
        <ele>28.4962</ele>
        <time>2012-10-05T20:06:29Z</time>
      </trkpt>
      <trkpt lat="59.9643157" lon="17.707391">
        <ele>28.4962</ele>
        <time>2012-10-05T20:06:30Z</time>
      </trkpt>
      <trkpt lat="59.9643405" lon="17.7073993">
        <ele>28.9769</ele>
        <time>2012-10-05T20:06:31Z</time>
      </trkpt>
      <trkpt lat="59.9643609" lon="17.7074086">
        <ele>28.0155</ele>
        <time>2012-10-05T20:06:32Z</time>
      </trkpt>
      <trkpt lat="59.9643865" lon="17.7074143">
        <ele>28.0155</ele>
        <time>2012-10-05T20:06:33Z</time>
      </trkpt>
      <trkpt lat="59.9644131" lon="17.7074152">
        <ele>28.0155</ele>
        <time>2012-10-05T20:06:34Z</time>
      </trkpt>
      <trkpt lat="59.9644405" lon="17.7074233">
        <ele>28.0155</ele>
        <time>2012-10-05T20:06:35Z</time>
      </trkpt>
      <trkpt lat="59.964465" lon="17.70743">
        <ele>28.0155</ele>
        <time>2012-10-05T20:06:36Z</time>
      </trkpt>
      <trkpt lat="59.9644881" lon="17.7074341">
        <ele>27.0543</ele>
        <time>2012-10-05T20:06:37Z</time>
      </trkpt>
      <trkpt lat="59.9645122" lon="17.7074382">
        <ele>26.5736</ele>
        <time>2012-10-05T20:06:38Z</time>
      </trkpt>
      <trkpt lat="59.964539" lon="17.7074506">
        <ele>27.0543</ele>
        <time>2012-10-05T20:06:39Z</time>
      </trkpt>
      <trkpt lat="59.9645622" lon="17.7074704">
        <ele>27.5349</ele>
        <time>2012-10-05T20:06:40Z</time>
      </trkpt>
      <trkpt lat="59.9645872" lon="17.7074874">
        <ele>28.0155</ele>
        <time>2012-10-05T20:06:41Z</time>
      </trkpt>
      <trkpt lat="59.96461" lon="17.7074993">
        <ele>28.4962</ele>
        <time>2012-10-05T20:06:42Z</time>
      </trkpt>
      <trkpt lat="59.9646267" lon="17.7075108">
        <ele>27.5349</ele>
        <time>2012-10-05T20:06:43Z</time>
      </trkpt>
      <trkpt lat="59.9646466" lon="17.7075174">
        <ele>27.0543</ele>
        <time>2012-10-05T20:06:44Z</time>
      </trkpt>
      <trkpt lat="59.9646715" lon="17.7075293">
        <ele>27.0543</ele>
        <time>2012-10-05T20:06:45Z</time>
      </trkpt>
      <trkpt lat="59.9646944" lon="17.7075471">
        <ele>27.0543</ele>
        <time>2012-10-05T20:06:46Z</time>
      </trkpt>
      <trkpt lat="59.9647189" lon="17.7075661">
        <ele>27.5349</ele>
        <time>2012-10-05T20:06:47Z</time>
      </trkpt>
      <trkpt lat="59.9647489" lon="17.7075823">
        <ele>28.4962</ele>
        <time>2012-10-05T20:06:48Z</time>
      </trkpt>
      <trkpt lat="59.9647746" lon="17.7075989">
        <ele>28.4962</ele>
        <time>2012-10-05T20:06:49Z</time>
      </trkpt>
      <trkpt lat="59.964801" lon="17.7076134">
        <ele>29.4575</ele>
        <time>2012-10-05T20:06:50Z</time>
      </trkpt>
      <trkpt lat="59.9648192" lon="17.7076262">
        <ele>29.4575</ele>
        <time>2012-10-05T20:06:51Z</time>
      </trkpt>
      <trkpt lat="59.9648419" lon="17.7076433">
        <ele>29.9381</ele>
        <time>2012-10-05T20:06:52Z</time>
      </trkpt>
      <trkpt lat="59.9648605" lon="17.7076625">
        <ele>28.9769</ele>
        <time>2012-10-05T20:06:53Z</time>
      </trkpt>
      <trkpt lat="59.9648838" lon="17.7076821">
        <ele>28.9769</ele>
        <time>2012-10-05T20:06:54Z</time>
      </trkpt>
      <trkpt lat="59.9649092" lon="17.7077008">
        <ele>28.9769</ele>
        <time>2012-10-05T20:06:55Z</time>
      </trkpt>
      <trkpt lat="59.96493" lon="17.7077153">
        <ele>28.0155</ele>
        <time>2012-10-05T20:06:56Z</time>
      </trkpt>
      <trkpt lat="59.964952" lon="17.7077356">
        <ele>28.4962</ele>
        <time>2012-10-05T20:06:57Z</time>
      </trkpt>
      <trkpt lat="59.9649743" lon="17.7077577">
        <ele>28.9769</ele>
        <time>2012-10-05T20:06:58Z</time>
      </trkpt>
      <trkpt lat="59.9650006" lon="17.7077806">
        <ele>28.9769</ele>
        <time>2012-10-05T20:06:59Z</time>
      </trkpt>
      <trkpt lat="59.9650248" lon="17.7078076">
        <ele>29.4575</ele>
        <time>2012-10-05T20:07:00Z</time>
      </trkpt>
      <trkpt lat="59.9650457" lon="17.7078236">
        <ele>29.9381</ele>
        <time>2012-10-05T20:07:01Z</time>
      </trkpt>
      <trkpt lat="59.9650668" lon="17.7078354">
        <ele>29.4575</ele>
        <time>2012-10-05T20:07:02Z</time>
      </trkpt>
      <trkpt lat="59.9650902" lon="17.7078495">
        <ele>29.4575</ele>
        <time>2012-10-05T20:07:03Z</time>
      </trkpt>
      <trkpt lat="59.9651135" lon="17.7078627">
        <ele>29.4575</ele>
        <time>2012-10-05T20:07:04Z</time>
      </trkpt>
      <trkpt lat="59.9651337" lon="17.7078733">
        <ele>28.9769</ele>
        <time>2012-10-05T20:07:05Z</time>
      </trkpt>
      <trkpt lat="59.965158" lon="17.7078912">
        <ele>29.9381</ele>
        <time>2012-10-05T20:07:06Z</time>
      </trkpt>
      <trkpt lat="59.9651806" lon="17.707911">
        <ele>29.9381</ele>
        <time>2012-10-05T20:07:07Z</time>
      </trkpt>
      <trkpt lat="59.9652073" lon="17.7079318">
        <ele>30.4188</ele>
        <time>2012-10-05T20:07:08Z</time>
      </trkpt>
      <trkpt lat="59.9652322" lon="17.7079526">
        <ele>30.8995</ele>
        <time>2012-10-05T20:07:09Z</time>
      </trkpt>
      <trkpt lat="59.965256" lon="17.7079729">
        <ele>31.3801</ele>
        <time>2012-10-05T20:07:10Z</time>
      </trkpt>
      <trkpt lat="59.9652783" lon="17.7079912">
        <ele>31.3801</ele>
        <time>2012-10-05T20:07:11Z</time>
      </trkpt>
      <trkpt lat="59.9653008" lon="17.7080141">
        <ele>31.8607</ele>
        <time>2012-10-05T20:07:12Z</time>
      </trkpt>
      <trkpt lat="59.9653226" lon="17.7080365">
        <ele>31.3801</ele>
        <time>2012-10-05T20:07:13Z</time>
      </trkpt>
      <trkpt lat="59.965343" lon="17.7080547">
        <ele>31.3801</ele>
        <time>2012-10-05T20:07:14Z</time>
      </trkpt>
      <trkpt lat="59.9653627" lon="17.7080779">
        <ele>31.3801</ele>
        <time>2012-10-05T20:07:15Z</time>
      </trkpt>
      <trkpt lat="59.9653852" lon="17.7081031">
        <ele>31.3801</ele>
        <time>2012-10-05T20:07:16Z</time>
      </trkpt>
      <trkpt lat="59.9654067" lon="17.7081235">
        <ele>31.3801</ele>
        <time>2012-10-05T20:07:17Z</time>
      </trkpt>
      <trkpt lat="59.9654303" lon="17.7081494">
        <ele>31.3801</ele>
        <time>2012-10-05T20:07:18Z</time>
      </trkpt>
      <trkpt lat="59.9654565" lon="17.7081799">
        <ele>31.8607</ele>
        <time>2012-10-05T20:07:19Z</time>
      </trkpt>
      <trkpt lat="59.9654798" lon="17.7082008">
        <ele>32.3416</ele>
        <time>2012-10-05T20:07:20Z</time>
      </trkpt>
      <trkpt lat="59.9655019" lon="17.7082148">
        <ele>31.8607</ele>
        <time>2012-10-05T20:07:21Z</time>
      </trkpt>
      <trkpt lat="59.9655289" lon="17.708229">
        <ele>32.3416</ele>
        <time>2012-10-05T20:07:22Z</time>
      </trkpt>
      <trkpt lat="59.9655538" lon="17.7082374">
        <ele>32.3416</ele>
        <time>2012-10-05T20:07:23Z</time>
      </trkpt>
      <trkpt lat="59.9655802" lon="17.7082466">
        <ele>32.3416</ele>
        <time>2012-10-05T20:07:24Z</time>
      </trkpt>
      <trkpt lat="59.9656076" lon="17.7082606">
        <ele>32.3416</ele>
        <time>2012-10-05T20:07:25Z</time>
      </trkpt>
      <trkpt lat="59.9656331" lon="17.7082727">
        <ele>32.3416</ele>
        <time>2012-10-05T20:07:26Z</time>
      </trkpt>
      <trkpt lat="59.9656568" lon="17.7082898">
        <ele>32.8223</ele>
        <time>2012-10-05T20:07:27Z</time>
      </trkpt>
      <trkpt lat="59.9656766" lon="17.7083194">
        <ele>32.3416</ele>
        <time>2012-10-05T20:07:28Z</time>
      </trkpt>
      <trkpt lat="59.9656957" lon="17.7083447">
        <ele>31.8607</ele>
        <time>2012-10-05T20:07:29Z</time>
      </trkpt>
      <trkpt lat="59.9657175" lon="17.7083684">
        <ele>31.8607</ele>
        <time>2012-10-05T20:07:30Z</time>
      </trkpt>
      <trkpt lat="59.9657396" lon="17.7083995">
        <ele>31.8607</ele>
        <time>2012-10-05T20:07:31Z</time>
      </trkpt>
      <trkpt lat="59.9657574" lon="17.7084272">
        <ele>31.3801</ele>
        <time>2012-10-05T20:07:32Z</time>
      </trkpt>
      <trkpt lat="59.9657744" lon="17.7084571">
        <ele>31.3801</ele>
        <time>2012-10-05T20:07:33Z</time>
      </trkpt>
      <trkpt lat="59.9657929" lon="17.7084954">
        <ele>31.8607</ele>
        <time>2012-10-05T20:07:34Z</time>
      </trkpt>
      <trkpt lat="59.9658111" lon="17.7085347">
        <ele>31.3801</ele>
        <time>2012-10-05T20:07:35Z</time>
      </trkpt>
      <trkpt lat="59.9658273" lon="17.708575">
        <ele>31.3801</ele>
        <time>2012-10-05T20:07:36Z</time>
      </trkpt>
      <trkpt lat="59.9658442" lon="17.7086155">
        <ele>30.8995</ele>
        <time>2012-10-05T20:07:37Z</time>
      </trkpt>
      <trkpt lat="59.9658599" lon="17.708655">
        <ele>30.8995</ele>
        <time>2012-10-05T20:07:38Z</time>
      </trkpt>
      <trkpt lat="59.965875" lon="17.7086955">
        <ele>30.8995</ele>
        <time>2012-10-05T20:07:39Z</time>
      </trkpt>
      <trkpt lat="59.9658916" lon="17.7087363">
        <ele>30.8995</ele>
        <time>2012-10-05T20:07:40Z</time>
      </trkpt>
      <trkpt lat="59.965906" lon="17.7087757">
        <ele>30.4188</ele>
        <time>2012-10-05T20:07:41Z</time>
      </trkpt>
      <trkpt lat="59.9659191" lon="17.7088202">
        <ele>29.9381</ele>
        <time>2012-10-05T20:07:42Z</time>
      </trkpt>
      <trkpt lat="59.9659323" lon="17.7088684">
        <ele>29.9381</ele>
        <time>2012-10-05T20:07:43Z</time>
      </trkpt>
      <trkpt lat="59.9659465" lon="17.7089156">
        <ele>29.4575</ele>
        <time>2012-10-05T20:07:44Z</time>
      </trkpt>
      <trkpt lat="59.9659589" lon="17.7089569">
        <ele>29.4575</ele>
        <time>2012-10-05T20:07:45Z</time>
      </trkpt>
      <trkpt lat="59.9659738" lon="17.7090005">
        <ele>29.4575</ele>
        <time>2012-10-05T20:07:46Z</time>
      </trkpt>
      <trkpt lat="59.9659869" lon="17.7090445">
        <ele>29.4575</ele>
        <time>2012-10-05T20:07:47Z</time>
      </trkpt>
      <trkpt lat="59.9659987" lon="17.7090869">
        <ele>29.4575</ele>
        <time>2012-10-05T20:07:48Z</time>
      </trkpt>
      <trkpt lat="59.9660124" lon="17.7091322">
        <ele>28.9769</ele>
        <time>2012-10-05T20:07:49Z</time>
      </trkpt>
      <trkpt lat="59.9660296" lon="17.7091772">
        <ele>29.4575</ele>
        <time>2012-10-05T20:07:50Z</time>
      </trkpt>
      <trkpt lat="59.9660469" lon="17.7092222">
        <ele>29.9381</ele>
        <time>2012-10-05T20:07:51Z</time>
      </trkpt>
      <trkpt lat="59.9660638" lon="17.7092668">
        <ele>29.9381</ele>
        <time>2012-10-05T20:07:52Z</time>
      </trkpt>
      <trkpt lat="59.9660749" lon="17.7093073">
        <ele>30.4188</ele>
        <time>2012-10-05T20:07:53Z</time>
      </trkpt>
      <trkpt lat="59.9660863" lon="17.7093512">
        <ele>29.9381</ele>
        <time>2012-10-05T20:07:54Z</time>
      </trkpt>
      <trkpt lat="59.9661006" lon="17.7093999">
        <ele>30.4188</ele>
        <time>2012-10-05T20:07:55Z</time>
      </trkpt>
      <trkpt lat="59.9661148" lon="17.709445">
        <ele>30.8995</ele>
        <time>2012-10-05T20:07:56Z</time>
      </trkpt>
      <trkpt lat="59.9661266" lon="17.7094858">
        <ele>30.8995</ele>
        <time>2012-10-05T20:07:57Z</time>
      </trkpt>
      <trkpt lat="59.9661366" lon="17.7095299">
        <ele>30.8995</ele>
        <time>2012-10-05T20:07:58Z</time>
      </trkpt>
      <trkpt lat="59.9661516" lon="17.709575">
        <ele>31.3801</ele>
        <time>2012-10-05T20:07:59Z</time>
      </trkpt>
      <trkpt lat="59.9661685" lon="17.7096189">
        <ele>31.8607</ele>
        <time>2012-10-05T20:08:00Z</time>
      </trkpt>
      <trkpt lat="59.9661838" lon="17.7096701">
        <ele>32.3416</ele>
        <time>2012-10-05T20:08:01Z</time>
      </trkpt>
      <trkpt lat="59.9661955" lon="17.709717">
        <ele>32.8223</ele>
        <time>2012-10-05T20:08:02Z</time>
      </trkpt>
      <trkpt lat="59.9662051" lon="17.709763">
        <ele>33.3029</ele>
        <time>2012-10-05T20:08:03Z</time>
      </trkpt>
      <trkpt lat="59.9662198" lon="17.7098101">
        <ele>33.3029</ele>
        <time>2012-10-05T20:08:04Z</time>
      </trkpt>
      <trkpt lat="59.966236" lon="17.7098525">
        <ele>33.3029</ele>
        <time>2012-10-05T20:08:05Z</time>
      </trkpt>
      <trkpt lat="59.9662512" lon="17.7099014">
        <ele>33.3029</ele>
        <time>2012-10-05T20:08:06Z</time>
      </trkpt>
      <trkpt lat="59.9662602" lon="17.7099478">
        <ele>33.3029</ele>
        <time>2012-10-05T20:08:07Z</time>
      </trkpt>
      <trkpt lat="59.9662707" lon="17.7099857">
        <ele>34.2642</ele>
        <time>2012-10-05T20:08:08Z</time>
      </trkpt>
      <trkpt lat="59.9662825" lon="17.7100342">
        <ele>34.7449</ele>
        <time>2012-10-05T20:08:09Z</time>
      </trkpt>
      <trkpt lat="59.9662954" lon="17.7100838">
        <ele>35.2255</ele>
        <time>2012-10-05T20:08:10Z</time>
      </trkpt>
      <trkpt lat="59.9663089" lon="17.7101223">
        <ele>35.7061</ele>
        <time>2012-10-05T20:08:11Z</time>
      </trkpt>
      <trkpt lat="59.9663231" lon="17.7101634">
        <ele>35.7061</ele>
        <time>2012-10-05T20:08:12Z</time>
      </trkpt>
      <trkpt lat="59.96634" lon="17.7102129">
        <ele>36.6675</ele>
        <time>2012-10-05T20:08:13Z</time>
      </trkpt>
      <trkpt lat="59.9663552" lon="17.7102546">
        <ele>36.6675</ele>
        <time>2012-10-05T20:08:14Z</time>
      </trkpt>
      <trkpt lat="59.9663717" lon="17.7102958">
        <ele>37.1481</ele>
        <time>2012-10-05T20:08:15Z</time>
      </trkpt>
      <trkpt lat="59.9663884" lon="17.7103424">
        <ele>37.6287</ele>
        <time>2012-10-05T20:08:16Z</time>
      </trkpt>
      <trkpt lat="59.966404" lon="17.7103881">
        <ele>38.1094</ele>
        <time>2012-10-05T20:08:17Z</time>
      </trkpt>
      <trkpt lat="59.9664178" lon="17.7104319">
        <ele>38.1094</ele>
        <time>2012-10-05T20:08:18Z</time>
      </trkpt>
      <trkpt lat="59.9664308" lon="17.7104773">
        <ele>38.1094</ele>
        <time>2012-10-05T20:08:19Z</time>
      </trkpt>
      <trkpt lat="59.9664454" lon="17.7105219">
        <ele>39.0707</ele>
        <time>2012-10-05T20:08:20Z</time>
      </trkpt>
      <trkpt lat="59.9664582" lon="17.7105654">
        <ele>39.0707</ele>
        <time>2012-10-05T20:08:21Z</time>
      </trkpt>
      <trkpt lat="59.9664712" lon="17.7106078">
        <ele>39.5513</ele>
        <time>2012-10-05T20:08:22Z</time>
      </trkpt>
      <trkpt lat="59.9664853" lon="17.7106509">
        <ele>40.0321</ele>
        <time>2012-10-05T20:08:23Z</time>
      </trkpt>
      <trkpt lat="59.9665014" lon="17.710696">
        <ele>40.5128</ele>
        <time>2012-10-05T20:08:24Z</time>
      </trkpt>
      <trkpt lat="59.9665169" lon="17.7107375">
        <ele>40.9934</ele>
        <time>2012-10-05T20:08:25Z</time>
      </trkpt>
      <trkpt lat="59.9665282" lon="17.7107794">
        <ele>41.474</ele>
        <time>2012-10-05T20:08:26Z</time>
      </trkpt>
      <trkpt lat="59.9665376" lon="17.710823">
        <ele>41.9547</ele>
        <time>2012-10-05T20:08:27Z</time>
      </trkpt>
      <trkpt lat="59.9665473" lon="17.7108642">
        <ele>41.9547</ele>
        <time>2012-10-05T20:08:28Z</time>
      </trkpt>
      <trkpt lat="59.9665557" lon="17.7109">
        <ele>41.474</ele>
        <time>2012-10-05T20:08:29Z</time>
      </trkpt>
      <trkpt lat="59.9665651" lon="17.7109352">
        <ele>41.474</ele>
        <time>2012-10-05T20:08:30Z</time>
      </trkpt>
      <trkpt lat="59.9665767" lon="17.7109661">
        <ele>40.9934</ele>
        <time>2012-10-05T20:08:31Z</time>
      </trkpt>
      <trkpt lat="59.9665872" lon="17.7109994">
        <ele>40.9934</ele>
        <time>2012-10-05T20:08:32Z</time>
      </trkpt>
      <trkpt lat="59.9665958" lon="17.7110351">
        <ele>40.0321</ele>
        <time>2012-10-05T20:08:33Z</time>
      </trkpt>
      <trkpt lat="59.9666073" lon="17.7110687">
        <ele>40.0321</ele>
        <time>2012-10-05T20:08:34Z</time>
      </trkpt>
      <trkpt lat="59.9666195" lon="17.7111077">
        <ele>40.0321</ele>
        <time>2012-10-05T20:08:35Z</time>
      </trkpt>
      <trkpt lat="59.9666337" lon="17.7111488">
        <ele>40.0321</ele>
        <time>2012-10-05T20:08:36Z</time>
      </trkpt>
      <trkpt lat="59.9666441" lon="17.711186">
        <ele>39.5513</ele>
        <time>2012-10-05T20:08:37Z</time>
      </trkpt>
      <trkpt lat="59.9666503" lon="17.7112319">
        <ele>39.0707</ele>
        <time>2012-10-05T20:08:38Z</time>
      </trkpt>
      <trkpt lat="59.9666578" lon="17.7112761">
        <ele>39.0707</ele>
        <time>2012-10-05T20:08:39Z</time>
      </trkpt>
      <trkpt lat="59.9666625" lon="17.7113181">
        <ele>38.5901</ele>
        <time>2012-10-05T20:08:40Z</time>
      </trkpt>
      <trkpt lat="59.9666675" lon="17.7113655">
        <ele>38.5901</ele>
        <time>2012-10-05T20:08:41Z</time>
      </trkpt>
      <trkpt lat="59.9666789" lon="17.7114206">
        <ele>38.5901</ele>
        <time>2012-10-05T20:08:42Z</time>
      </trkpt>
      <trkpt lat="59.9666884" lon="17.7114806">
        <ele>38.1094</ele>
        <time>2012-10-05T20:08:43Z</time>
      </trkpt>
      <trkpt lat="59.9666923" lon="17.7115414">
        <ele>37.6287</ele>
        <time>2012-10-05T20:08:44Z</time>
      </trkpt>
      <trkpt lat="59.9666991" lon="17.7115968">
        <ele>38.1094</ele>
        <time>2012-10-05T20:08:45Z</time>
      </trkpt>
      <trkpt lat="59.9667136" lon="17.7116527">
        <ele>38.1094</ele>
        <time>2012-10-05T20:08:46Z</time>
      </trkpt>
      <trkpt lat="59.9667301" lon="17.7117129">
        <ele>38.1094</ele>
        <time>2012-10-05T20:08:47Z</time>
      </trkpt>
      <trkpt lat="59.9667453" lon="17.7117637">
        <ele>37.6287</ele>
        <time>2012-10-05T20:08:48Z</time>
      </trkpt>
      <trkpt lat="59.9667571" lon="17.7118066">
        <ele>37.1481</ele>
        <time>2012-10-05T20:08:49Z</time>
      </trkpt>
      <trkpt lat="59.9667673" lon="17.7118499">
        <ele>36.6675</ele>
        <time>2012-10-05T20:08:50Z</time>
      </trkpt>
      <trkpt lat="59.9667779" lon="17.7118952">
        <ele>36.1868</ele>
        <time>2012-10-05T20:08:51Z</time>
      </trkpt>
      <trkpt lat="59.966789" lon="17.7119407">
        <ele>35.7061</ele>
        <time>2012-10-05T20:08:52Z</time>
      </trkpt>
      <trkpt lat="59.9668026" lon="17.7119821">
        <ele>35.2255</ele>
        <time>2012-10-05T20:08:53Z</time>
      </trkpt>
      <trkpt lat="59.9668193" lon="17.7120234">
        <ele>35.2255</ele>
        <time>2012-10-05T20:08:54Z</time>
      </trkpt>
      <trkpt lat="59.9668368" lon="17.7120666">
        <ele>34.7449</ele>
        <time>2012-10-05T20:08:55Z</time>
      </trkpt>
      <trkpt lat="59.9668509" lon="17.7121066">
        <ele>34.7449</ele>
        <time>2012-10-05T20:08:56Z</time>
      </trkpt>
      <trkpt lat="59.9668623" lon="17.7121457">
        <ele>33.7834</ele>
        <time>2012-10-05T20:08:57Z</time>
      </trkpt>
      <trkpt lat="59.9668774" lon="17.7121888">
        <ele>33.7834</ele>
        <time>2012-10-05T20:08:58Z</time>
      </trkpt>
      <trkpt lat="59.9668918" lon="17.7122302">
        <ele>33.7834</ele>
        <time>2012-10-05T20:08:59Z</time>
      </trkpt>
      <trkpt lat="59.9669072" lon="17.71227">
        <ele>33.7834</ele>
        <time>2012-10-05T20:09:00Z</time>
      </trkpt>
      <trkpt lat="59.9669208" lon="17.7123122">
        <ele>33.7834</ele>
        <time>2012-10-05T20:09:01Z</time>
      </trkpt>
      <trkpt lat="59.9669305" lon="17.7123525">
        <ele>33.3029</ele>
        <time>2012-10-05T20:09:02Z</time>
      </trkpt>
      <trkpt lat="59.9669441" lon="17.7123915">
        <ele>33.7834</ele>
        <time>2012-10-05T20:09:03Z</time>
      </trkpt>
      <trkpt lat="59.966961" lon="17.7124327">
        <ele>34.2642</ele>
        <time>2012-10-05T20:09:04Z</time>
      </trkpt>
      <trkpt lat="59.9669748" lon="17.7124742">
        <ele>34.2642</ele>
        <time>2012-10-05T20:09:05Z</time>
      </trkpt>
      <trkpt lat="59.966984" lon="17.7125122">
        <ele>34.2642</ele>
        <time>2012-10-05T20:09:06Z</time>
      </trkpt>
      <trkpt lat="59.9669954" lon="17.7125529">
        <ele>34.2642</ele>
        <time>2012-10-05T20:09:07Z</time>
      </trkpt>
      <trkpt lat="59.9670094" lon="17.7126006">
        <ele>34.7449</ele>
        <time>2012-10-05T20:09:08Z</time>
      </trkpt>
      <trkpt lat="59.9670207" lon="17.7126452">
        <ele>34.7449</ele>
        <time>2012-10-05T20:09:09Z</time>
      </trkpt>
      <trkpt lat="59.967033" lon="17.7126913">
        <ele>34.7449</ele>
        <time>2012-10-05T20:09:10Z</time>
      </trkpt>
      <trkpt lat="59.9670446" lon="17.712741">
        <ele>34.7449</ele>
        <time>2012-10-05T20:09:11Z</time>
      </trkpt>
      <trkpt lat="59.9670532" lon="17.7127844">
        <ele>34.7449</ele>
        <time>2012-10-05T20:09:12Z</time>
      </trkpt>
      <trkpt lat="59.9670638" lon="17.7128265">
        <ele>35.2255</ele>
        <time>2012-10-05T20:09:13Z</time>
      </trkpt>
      <trkpt lat="59.9670748" lon="17.7128719">
        <ele>35.2255</ele>
        <time>2012-10-05T20:09:14Z</time>
      </trkpt>
      <trkpt lat="59.967083" lon="17.7129135">
        <ele>35.2255</ele>
        <time>2012-10-05T20:09:15Z</time>
      </trkpt>
      <trkpt lat="59.9670897" lon="17.7129519">
        <ele>34.7449</ele>
        <time>2012-10-05T20:09:16Z</time>
      </trkpt>
      <trkpt lat="59.9670984" lon="17.7129948">
        <ele>35.2255</ele>
        <time>2012-10-05T20:09:17Z</time>
      </trkpt>
      <trkpt lat="59.9671069" lon="17.7130331">
        <ele>35.2255</ele>
        <time>2012-10-05T20:09:18Z</time>
      </trkpt>
      <trkpt lat="59.9671157" lon="17.7130694">
        <ele>35.7061</ele>
        <time>2012-10-05T20:09:19Z</time>
      </trkpt>
      <trkpt lat="59.9671191" lon="17.7131069">
        <ele>35.2255</ele>
        <time>2012-10-05T20:09:20Z</time>
      </trkpt>
      <trkpt lat="59.9671248" lon="17.7131492">
        <ele>35.2255</ele>
        <time>2012-10-05T20:09:21Z</time>
      </trkpt>
      <trkpt lat="59.9671328" lon="17.7131891">
        <ele>35.2255</ele>
        <time>2012-10-05T20:09:22Z</time>
      </trkpt>
      <trkpt lat="59.9671415" lon="17.7132295">
        <ele>35.2255</ele>
        <time>2012-10-05T20:09:23Z</time>
      </trkpt>
      <trkpt lat="59.9671511" lon="17.7132745">
        <ele>35.2255</ele>
        <time>2012-10-05T20:09:24Z</time>
      </trkpt>
      <trkpt lat="59.9671597" lon="17.7133213">
        <ele>35.7061</ele>
        <time>2012-10-05T20:09:25Z</time>
      </trkpt>
      <trkpt lat="59.9671705" lon="17.7133663">
        <ele>35.7061</ele>
        <time>2012-10-05T20:09:26Z</time>
      </trkpt>
      <trkpt lat="59.9671797" lon="17.7134102">
        <ele>35.7061</ele>
        <time>2012-10-05T20:09:27Z</time>
      </trkpt>
      <trkpt lat="59.9671854" lon="17.7134506">
        <ele>35.2255</ele>
        <time>2012-10-05T20:09:28Z</time>
      </trkpt>
      <trkpt lat="59.9671924" lon="17.7134876">
        <ele>35.2255</ele>
        <time>2012-10-05T20:09:29Z</time>
      </trkpt>
      <trkpt lat="59.9671981" lon="17.7135284">
        <ele>34.7449</ele>
        <time>2012-10-05T20:09:30Z</time>
      </trkpt>
      <trkpt lat="59.9672012" lon="17.7135727">
        <ele>34.2642</ele>
        <time>2012-10-05T20:09:31Z</time>
      </trkpt>
      <trkpt lat="59.9672067" lon="17.7136168">
        <ele>34.2642</ele>
        <time>2012-10-05T20:09:32Z</time>
      </trkpt>
      <trkpt lat="59.9672146" lon="17.7136605">
        <ele>34.2642</ele>
        <time>2012-10-05T20:09:33Z</time>
      </trkpt>
      <trkpt lat="59.9672206" lon="17.713704">
        <ele>34.2642</ele>
        <time>2012-10-05T20:09:34Z</time>
      </trkpt>
      <trkpt lat="59.9672242" lon="17.7137396">
        <ele>33.7834</ele>
        <time>2012-10-05T20:09:35Z</time>
      </trkpt>
      <trkpt lat="59.9672285" lon="17.7137719">
        <ele>33.7834</ele>
        <time>2012-10-05T20:09:36Z</time>
      </trkpt>
      <trkpt lat="59.9672326" lon="17.7138127">
        <ele>33.7834</ele>
        <time>2012-10-05T20:09:37Z</time>
      </trkpt>
      <trkpt lat="59.96724" lon="17.7138558">
        <ele>33.7834</ele>
        <time>2012-10-05T20:09:38Z</time>
      </trkpt>
      <trkpt lat="59.9672477" lon="17.7138929">
        <ele>33.3029</ele>
        <time>2012-10-05T20:09:39Z</time>
      </trkpt>
      <trkpt lat="59.9672538" lon="17.713931">
        <ele>32.8223</ele>
        <time>2012-10-05T20:09:40Z</time>
      </trkpt>
      <trkpt lat="59.9672602" lon="17.7139723">
        <ele>32.8223</ele>
        <time>2012-10-05T20:09:41Z</time>
      </trkpt>
      <trkpt lat="59.9672669" lon="17.7140125">
        <ele>32.3416</ele>
        <time>2012-10-05T20:09:42Z</time>
      </trkpt>
      <trkpt lat="59.9672744" lon="17.7140535">
        <ele>32.3416</ele>
        <time>2012-10-05T20:09:43Z</time>
      </trkpt>
      <trkpt lat="59.9672807" lon="17.7140985">
        <ele>32.8223</ele>
        <time>2012-10-05T20:09:44Z</time>
      </trkpt>
      <trkpt lat="59.967286" lon="17.7141418">
        <ele>31.8607</ele>
        <time>2012-10-05T20:09:45Z</time>
      </trkpt>
      <trkpt lat="59.967291" lon="17.7141826">
        <ele>31.3801</ele>
        <time>2012-10-05T20:09:46Z</time>
      </trkpt>
      <trkpt lat="59.9672948" lon="17.7142218">
        <ele>30.8995</ele>
        <time>2012-10-05T20:09:47Z</time>
      </trkpt>
      <trkpt lat="59.9672986" lon="17.7142658">
        <ele>30.8995</ele>
        <time>2012-10-05T20:09:48Z</time>
      </trkpt>
      <trkpt lat="59.9673016" lon="17.7143095">
        <ele>30.4188</ele>
        <time>2012-10-05T20:09:49Z</time>
      </trkpt>
      <trkpt lat="59.9673005" lon="17.7143479">
        <ele>30.4188</ele>
        <time>2012-10-05T20:09:50Z</time>
      </trkpt>
      <trkpt lat="59.9673027" lon="17.7143869">
        <ele>29.9381</ele>
        <time>2012-10-05T20:09:51Z</time>
      </trkpt>
      <trkpt lat="59.9673082" lon="17.7144302">
        <ele>29.9381</ele>
        <time>2012-10-05T20:09:52Z</time>
      </trkpt>
      <trkpt lat="59.9673153" lon="17.7144727">
        <ele>29.4575</ele>
        <time>2012-10-05T20:09:53Z</time>
      </trkpt>
      <trkpt lat="59.9673237" lon="17.7145142">
        <ele>29.4575</ele>
        <time>2012-10-05T20:09:54Z</time>
      </trkpt>
      <trkpt lat="59.9673343" lon="17.7145556">
        <ele>29.4575</ele>
        <time>2012-10-05T20:09:55Z</time>
      </trkpt>
      <trkpt lat="59.9673469" lon="17.7146005">
        <ele>28.9769</ele>
        <time>2012-10-05T20:09:56Z</time>
      </trkpt>
      <trkpt lat="59.9673539" lon="17.7146447">
        <ele>28.9769</ele>
        <time>2012-10-05T20:09:57Z</time>
      </trkpt>
      <trkpt lat="59.9673627" lon="17.7146863">
        <ele>28.9769</ele>
        <time>2012-10-05T20:09:58Z</time>
      </trkpt>
      <trkpt lat="59.9673709" lon="17.714728">
        <ele>28.4962</ele>
        <time>2012-10-05T20:09:59Z</time>
      </trkpt>
      <trkpt lat="59.9673807" lon="17.7147728">
        <ele>28.4962</ele>
        <time>2012-10-05T20:10:00Z</time>
      </trkpt>
      <trkpt lat="59.9673876" lon="17.7148207">
        <ele>28.0155</ele>
        <time>2012-10-05T20:10:01Z</time>
      </trkpt>
      <trkpt lat="59.9673977" lon="17.7148689">
        <ele>28.0155</ele>
        <time>2012-10-05T20:10:02Z</time>
      </trkpt>
      <trkpt lat="59.9674061" lon="17.7149167">
        <ele>28.0155</ele>
        <time>2012-10-05T20:10:03Z</time>
      </trkpt>
      <trkpt lat="59.967411" lon="17.7149637">
        <ele>28.0155</ele>
        <time>2012-10-05T20:10:04Z</time>
      </trkpt>
      <trkpt lat="59.9674193" lon="17.7150083">
        <ele>28.0155</ele>
        <time>2012-10-05T20:10:05Z</time>
      </trkpt>
      <trkpt lat="59.967427" lon="17.7150579">
        <ele>28.0155</ele>
        <time>2012-10-05T20:10:06Z</time>
      </trkpt>
      <trkpt lat="59.9674289" lon="17.7151087">
        <ele>28.0155</ele>
        <time>2012-10-05T20:10:07Z</time>
      </trkpt>
      <trkpt lat="59.9674386" lon="17.715156">
        <ele>28.9769</ele>
        <time>2012-10-05T20:10:08Z</time>
      </trkpt>
      <trkpt lat="59.9674399" lon="17.7152068">
        <ele>28.4962</ele>
        <time>2012-10-05T20:10:09Z</time>
      </trkpt>
      <trkpt lat="59.9674389" lon="17.7152498">
        <ele>28.4962</ele>
        <time>2012-10-05T20:10:10Z</time>
      </trkpt>
      <trkpt lat="59.9674352" lon="17.7152737">
        <ele>27.5349</ele>
        <time>2012-10-05T20:10:11Z</time>
      </trkpt>
      <trkpt lat="59.9674517" lon="17.7153072">
        <ele>28.9769</ele>
        <time>2012-10-05T20:10:12Z</time>
      </trkpt>
      <trkpt lat="59.9674637" lon="17.7153519">
        <ele>29.4575</ele>
        <time>2012-10-05T20:10:13Z</time>
      </trkpt>
      <trkpt lat="59.9674705" lon="17.7154016">
        <ele>29.9381</ele>
        <time>2012-10-05T20:10:14Z</time>
      </trkpt>
      <trkpt lat="59.9674756" lon="17.7154445">
        <ele>30.4188</ele>
        <time>2012-10-05T20:10:15Z</time>
      </trkpt>
      <trkpt lat="59.967477" lon="17.7154842">
        <ele>29.9381</ele>
        <time>2012-10-05T20:10:16Z</time>
      </trkpt>
      <trkpt lat="59.967483" lon="17.7155317">
        <ele>29.9381</ele>
        <time>2012-10-05T20:10:17Z</time>
      </trkpt>
      <trkpt lat="59.9674922" lon="17.7155778">
        <ele>29.9381</ele>
        <time>2012-10-05T20:10:18Z</time>
      </trkpt>
      <trkpt lat="59.9675065" lon="17.7156225">
        <ele>30.4188</ele>
        <time>2012-10-05T20:10:19Z</time>
      </trkpt>
      <trkpt lat="59.9675179" lon="17.7156657">
        <ele>30.4188</ele>
        <time>2012-10-05T20:10:20Z</time>
      </trkpt>
      <trkpt lat="59.9675282" lon="17.7157102">
        <ele>30.8995</ele>
        <time>2012-10-05T20:10:21Z</time>
      </trkpt>
      <trkpt lat="59.9675335" lon="17.7157513">
        <ele>30.8995</ele>
        <time>2012-10-05T20:10:22Z</time>
      </trkpt>
      <trkpt lat="59.9675409" lon="17.7157974">
        <ele>30.8995</ele>
        <time>2012-10-05T20:10:23Z</time>
      </trkpt>
      <trkpt lat="59.9675517" lon="17.7158403">
        <ele>30.8995</ele>
        <time>2012-10-05T20:10:24Z</time>
      </trkpt>
      <trkpt lat="59.9675673" lon="17.7158806">
        <ele>31.3801</ele>
        <time>2012-10-05T20:10:25Z</time>
      </trkpt>
      <trkpt lat="59.9675807" lon="17.7159248">
        <ele>31.8607</ele>
        <time>2012-10-05T20:10:26Z</time>
      </trkpt>
      <trkpt lat="59.9675925" lon="17.7159667">
        <ele>31.8607</ele>
        <time>2012-10-05T20:10:27Z</time>
      </trkpt>
      <trkpt lat="59.967602" lon="17.7160098">
        <ele>32.3416</ele>
        <time>2012-10-05T20:10:28Z</time>
      </trkpt>
      <trkpt lat="59.9676195" lon="17.716062">
        <ele>32.8223</ele>
        <time>2012-10-05T20:10:29Z</time>
      </trkpt>
      <trkpt lat="59.9676357" lon="17.716108">
        <ele>32.3416</ele>
        <time>2012-10-05T20:10:30Z</time>
      </trkpt>
      <trkpt lat="59.96766" lon="17.7161521">
        <ele>33.7834</ele>
        <time>2012-10-05T20:10:31Z</time>
      </trkpt>
      <trkpt lat="59.9676725" lon="17.7161989">
        <ele>33.3029</ele>
        <time>2012-10-05T20:10:32Z</time>
      </trkpt>
      <trkpt lat="59.967686" lon="17.7162407">
        <ele>33.7834</ele>
        <time>2012-10-05T20:10:33Z</time>
      </trkpt>
      <trkpt lat="59.967701" lon="17.716279">
        <ele>33.7834</ele>
        <time>2012-10-05T20:10:34Z</time>
      </trkpt>
      <trkpt lat="59.9677196" lon="17.716322">
        <ele>33.7834</ele>
        <time>2012-10-05T20:10:35Z</time>
      </trkpt>
      <trkpt lat="59.9677378" lon="17.716362">
        <ele>34.2642</ele>
        <time>2012-10-05T20:10:36Z</time>
      </trkpt>
      <trkpt lat="59.967743" lon="17.716408">
        <ele>34.2642</ele>
        <time>2012-10-05T20:10:37Z</time>
      </trkpt>
      <trkpt lat="59.9677557" lon="17.7164531">
        <ele>35.2255</ele>
        <time>2012-10-05T20:10:38Z</time>
      </trkpt>
      <trkpt lat="59.9677708" lon="17.7164914">
        <ele>35.7061</ele>
        <time>2012-10-05T20:10:39Z</time>
      </trkpt>
      <trkpt lat="59.9677875" lon="17.7165328">
        <ele>35.7061</ele>
        <time>2012-10-05T20:10:40Z</time>
      </trkpt>
      <trkpt lat="59.9678052" lon="17.7165716">
        <ele>35.7061</ele>
        <time>2012-10-05T20:10:41Z</time>
      </trkpt>
      <trkpt lat="59.9678222" lon="17.7166079">
        <ele>35.7061</ele>
        <time>2012-10-05T20:10:42Z</time>
      </trkpt>
      <trkpt lat="59.9678422" lon="17.7166474">
        <ele>36.1868</ele>
        <time>2012-10-05T20:10:43Z</time>
      </trkpt>
      <trkpt lat="59.9678585" lon="17.7166857">
        <ele>36.6675</ele>
        <time>2012-10-05T20:10:44Z</time>
      </trkpt>
      <trkpt lat="59.9678758" lon="17.7167235">
        <ele>37.1481</ele>
        <time>2012-10-05T20:10:45Z</time>
      </trkpt>
      <trkpt lat="59.9678926" lon="17.7167616">
        <ele>36.6675</ele>
        <time>2012-10-05T20:10:46Z</time>
      </trkpt>
      <trkpt lat="59.9679123" lon="17.7167953">
        <ele>36.6675</ele>
        <time>2012-10-05T20:10:47Z</time>
      </trkpt>
      <trkpt lat="59.9679308" lon="17.71683">
        <ele>36.1868</ele>
        <time>2012-10-05T20:10:48Z</time>
      </trkpt>
      <trkpt lat="59.9679494" lon="17.7168622">
        <ele>36.1868</ele>
        <time>2012-10-05T20:10:49Z</time>
      </trkpt>
      <trkpt lat="59.9679712" lon="17.7168932">
        <ele>36.6675</ele>
        <time>2012-10-05T20:10:50Z</time>
      </trkpt>
      <trkpt lat="59.9679899" lon="17.716928">
        <ele>36.1868</ele>
        <time>2012-10-05T20:10:51Z</time>
      </trkpt>
      <trkpt lat="59.9680081" lon="17.716959">
        <ele>36.1868</ele>
        <time>2012-10-05T20:10:52Z</time>
      </trkpt>
      <trkpt lat="59.9680247" lon="17.7169892">
        <ele>36.1868</ele>
        <time>2012-10-05T20:10:53Z</time>
      </trkpt>
      <trkpt lat="59.9680435" lon="17.7170219">
        <ele>36.1868</ele>
        <time>2012-10-05T20:10:54Z</time>
      </trkpt>
      <trkpt lat="59.9680637" lon="17.7170473">
        <ele>36.1868</ele>
        <time>2012-10-05T20:10:55Z</time>
      </trkpt>
      <trkpt lat="59.9680831" lon="17.7170727">
        <ele>36.1868</ele>
        <time>2012-10-05T20:10:56Z</time>
      </trkpt>
      <trkpt lat="59.9680968" lon="17.7171051">
        <ele>36.1868</ele>
        <time>2012-10-05T20:10:57Z</time>
      </trkpt>
      <trkpt lat="59.9681105" lon="17.7171359">
        <ele>36.6675</ele>
        <time>2012-10-05T20:10:58Z</time>
      </trkpt>
      <trkpt lat="59.968123" lon="17.7171675">
        <ele>37.1481</ele>
        <time>2012-10-05T20:10:59Z</time>
      </trkpt>
      <trkpt lat="59.9681387" lon="17.7171979">
        <ele>36.6675</ele>
        <time>2012-10-05T20:11:00Z</time>
      </trkpt>
      <trkpt lat="59.9681616" lon="17.7172235">
        <ele>37.1481</ele>
        <time>2012-10-05T20:11:01Z</time>
      </trkpt>
      <trkpt lat="59.9681769" lon="17.7172502">
        <ele>36.6675</ele>
        <time>2012-10-05T20:11:02Z</time>
      </trkpt>
      <trkpt lat="59.9681941" lon="17.7172793">
        <ele>36.1868</ele>
        <time>2012-10-05T20:11:03Z</time>
      </trkpt>
      <trkpt lat="59.9682139" lon="17.7172993">
        <ele>35.7061</ele>
        <time>2012-10-05T20:11:04Z</time>
      </trkpt>
      <trkpt lat="59.968233" lon="17.7173125">
        <ele>34.7449</ele>
        <time>2012-10-05T20:11:05Z</time>
      </trkpt>
      <trkpt lat="59.96825" lon="17.717325">
        <ele>34.2642</ele>
        <time>2012-10-05T20:11:06Z</time>
      </trkpt>
      <trkpt lat="59.9682714" lon="17.7173349">
        <ele>34.2642</ele>
        <time>2012-10-05T20:11:07Z</time>
      </trkpt>
      <trkpt lat="59.9682921" lon="17.7173482">
        <ele>33.7834</ele>
        <time>2012-10-05T20:11:08Z</time>
      </trkpt>
      <trkpt lat="59.9683101" lon="17.7173601">
        <ele>33.3029</ele>
        <time>2012-10-05T20:11:09Z</time>
      </trkpt>
      <trkpt lat="59.9683294" lon="17.7173726">
        <ele>32.8223</ele>
        <time>2012-10-05T20:11:10Z</time>
      </trkpt>
      <trkpt lat="59.9683484" lon="17.7173879">
        <ele>32.3416</ele>
        <time>2012-10-05T20:11:11Z</time>
      </trkpt>
      <trkpt lat="59.9683664" lon="17.717401">
        <ele>31.3801</ele>
        <time>2012-10-05T20:11:12Z</time>
      </trkpt>
      <trkpt lat="59.9683878" lon="17.717414">
        <ele>31.3801</ele>
        <time>2012-10-05T20:11:13Z</time>
      </trkpt>
      <trkpt lat="59.9684016" lon="17.7174302">
        <ele>29.9381</ele>
        <time>2012-10-05T20:11:14Z</time>
      </trkpt>
      <trkpt lat="59.9684192" lon="17.7174413">
        <ele>28.9769</ele>
        <time>2012-10-05T20:11:15Z</time>
      </trkpt>
      <trkpt lat="59.9684436" lon="17.7174466">
        <ele>28.9769</ele>
        <time>2012-10-05T20:11:16Z</time>
      </trkpt>
      <trkpt lat="59.9684684" lon="17.7174554">
        <ele>29.4575</ele>
        <time>2012-10-05T20:11:17Z</time>
      </trkpt>
      <trkpt lat="59.9684892" lon="17.7174653">
        <ele>28.9769</ele>
        <time>2012-10-05T20:11:18Z</time>
      </trkpt>
      <trkpt lat="59.9685166" lon="17.7174751">
        <ele>29.4575</ele>
        <time>2012-10-05T20:11:19Z</time>
      </trkpt>
      <trkpt lat="59.968537" lon="17.7174845">
        <ele>28.4962</ele>
        <time>2012-10-05T20:11:20Z</time>
      </trkpt>
      <trkpt lat="59.9685588" lon="17.7174943">
        <ele>28.4962</ele>
        <time>2012-10-05T20:11:21Z</time>
      </trkpt>
      <trkpt lat="59.9685814" lon="17.717499">
        <ele>28.0155</ele>
        <time>2012-10-05T20:11:22Z</time>
      </trkpt>
      <trkpt lat="59.9686017" lon="17.7175073">
        <ele>27.0543</ele>
        <time>2012-10-05T20:11:23Z</time>
      </trkpt>
      <trkpt lat="59.9686216" lon="17.717512">
        <ele>26.5736</ele>
        <time>2012-10-05T20:11:24Z</time>
      </trkpt>
      <trkpt lat="59.9686457" lon="17.7175181">
        <ele>26.5736</ele>
        <time>2012-10-05T20:11:25Z</time>
      </trkpt>
      <trkpt lat="59.9686681" lon="17.7175284">
        <ele>26.0929</ele>
        <time>2012-10-05T20:11:26Z</time>
      </trkpt>
      <trkpt lat="59.9686884" lon="17.7175353">
        <ele>25.6123</ele>
        <time>2012-10-05T20:11:27Z</time>
      </trkpt>
      <trkpt lat="59.9687067" lon="17.7175395">
        <ele>25.1317</ele>
        <time>2012-10-05T20:11:28Z</time>
      </trkpt>
      <trkpt lat="59.968725" lon="17.7175452">
        <ele>24.1703</ele>
        <time>2012-10-05T20:11:29Z</time>
      </trkpt>
      <trkpt lat="59.9687448" lon="17.7175507">
        <ele>23.209</ele>
        <time>2012-10-05T20:11:30Z</time>
      </trkpt>
      <trkpt lat="59.9687649" lon="17.7175532">
        <ele>23.209</ele>
        <time>2012-10-05T20:11:31Z</time>
      </trkpt>
      <trkpt lat="59.968785" lon="17.7175592">
        <ele>22.7283</ele>
        <time>2012-10-05T20:11:32Z</time>
      </trkpt>
      <trkpt lat="59.9688031" lon="17.717563">
        <ele>21.767</ele>
        <time>2012-10-05T20:11:33Z</time>
      </trkpt>
      <trkpt lat="59.9688229" lon="17.7175568">
        <ele>21.767</ele>
        <time>2012-10-05T20:11:34Z</time>
      </trkpt>
      <trkpt lat="59.9688514" lon="17.717543">
        <ele>23.6896</ele>
        <time>2012-10-05T20:11:35Z</time>
      </trkpt>
      <trkpt lat="59.9688738" lon="17.7175238">
        <ele>24.1703</ele>
        <time>2012-10-05T20:11:36Z</time>
      </trkpt>
      <trkpt lat="59.9688935" lon="17.7175">
        <ele>24.1703</ele>
        <time>2012-10-05T20:11:37Z</time>
      </trkpt>
      <trkpt lat="59.9689162" lon="17.7174751">
        <ele>24.651</ele>
        <time>2012-10-05T20:11:38Z</time>
      </trkpt>
      <trkpt lat="59.9689426" lon="17.717447">
        <ele>25.1317</ele>
        <time>2012-10-05T20:11:39Z</time>
      </trkpt>
      <trkpt lat="59.9689666" lon="17.7174196">
        <ele>25.1317</ele>
        <time>2012-10-05T20:11:40Z</time>
      </trkpt>
      <trkpt lat="59.9689923" lon="17.7174005">
        <ele>26.0929</ele>
        <time>2012-10-05T20:11:41Z</time>
      </trkpt>
      <trkpt lat="59.9690201" lon="17.7173897">
        <ele>26.5736</ele>
        <time>2012-10-05T20:11:42Z</time>
      </trkpt>
      <trkpt lat="59.9690476" lon="17.7173796">
        <ele>27.0543</ele>
        <time>2012-10-05T20:11:43Z</time>
      </trkpt>
      <trkpt lat="59.9690746" lon="17.7173713">
        <ele>27.5349</ele>
        <time>2012-10-05T20:11:44Z</time>
      </trkpt>
      <trkpt lat="59.9691033" lon="17.7173716">
        <ele>28.0155</ele>
        <time>2012-10-05T20:11:45Z</time>
      </trkpt>
      <trkpt lat="59.9691338" lon="17.717377">
        <ele>28.4962</ele>
        <time>2012-10-05T20:11:46Z</time>
      </trkpt>
      <trkpt lat="59.9691636" lon="17.7173803">
        <ele>28.4962</ele>
        <time>2012-10-05T20:11:47Z</time>
      </trkpt>
      <trkpt lat="59.9691912" lon="17.7173903">
        <ele>28.0155</ele>
        <time>2012-10-05T20:11:48Z</time>
      </trkpt>
      <trkpt lat="59.9692172" lon="17.7174019">
        <ele>28.4962</ele>
        <time>2012-10-05T20:11:49Z</time>
      </trkpt>
      <trkpt lat="59.9692382" lon="17.7174067">
        <ele>28.4962</ele>
        <time>2012-10-05T20:11:50Z</time>
      </trkpt>
      <trkpt lat="59.9692613" lon="17.7174176">
        <ele>28.9769</ele>
        <time>2012-10-05T20:11:51Z</time>
      </trkpt>
      <trkpt lat="59.9692882" lon="17.7174296">
        <ele>29.4575</ele>
        <time>2012-10-05T20:11:52Z</time>
      </trkpt>
      <trkpt lat="59.9693138" lon="17.7174346">
        <ele>29.4575</ele>
        <time>2012-10-05T20:11:53Z</time>
      </trkpt>
      <trkpt lat="59.9693388" lon="17.7174424">
        <ele>29.9381</ele>
        <time>2012-10-05T20:11:54Z</time>
      </trkpt>
      <trkpt lat="59.9693621" lon="17.7174544">
        <ele>29.9381</ele>
        <time>2012-10-05T20:11:55Z</time>
      </trkpt>
      <trkpt lat="59.9693845" lon="17.7174642">
        <ele>29.9381</ele>
        <time>2012-10-05T20:11:56Z</time>
      </trkpt>
      <trkpt lat="59.9694088" lon="17.7174736">
        <ele>29.9381</ele>
        <time>2012-10-05T20:11:57Z</time>
      </trkpt>
      <trkpt lat="59.9694319" lon="17.7174835">
        <ele>29.9381</ele>
        <time>2012-10-05T20:11:58Z</time>
      </trkpt>
      <trkpt lat="59.9694537" lon="17.7174933">
        <ele>29.9381</ele>
        <time>2012-10-05T20:11:59Z</time>
      </trkpt>
      <trkpt lat="59.9694782" lon="17.717507">
        <ele>30.8995</ele>
        <time>2012-10-05T20:12:00Z</time>
      </trkpt>
      <trkpt lat="59.9695019" lon="17.7175249">
        <ele>30.8995</ele>
        <time>2012-10-05T20:12:01Z</time>
      </trkpt>
      <trkpt lat="59.9695249" lon="17.7175412">
        <ele>31.3801</ele>
        <time>2012-10-05T20:12:02Z</time>
      </trkpt>
      <trkpt lat="59.9695475" lon="17.7175513">
        <ele>31.3801</ele>
        <time>2012-10-05T20:12:03Z</time>
      </trkpt>
      <trkpt lat="59.9695725" lon="17.7175656">
        <ele>31.3801</ele>
        <time>2012-10-05T20:12:04Z</time>
      </trkpt>
      <trkpt lat="59.9695969" lon="17.7175777">
        <ele>31.8607</ele>
        <time>2012-10-05T20:12:05Z</time>
      </trkpt>
      <trkpt lat="59.9696269" lon="17.7175925">
        <ele>33.3029</ele>
        <time>2012-10-05T20:12:06Z</time>
      </trkpt>
      <trkpt lat="59.9696529" lon="17.7176129">
        <ele>33.7834</ele>
        <time>2012-10-05T20:12:07Z</time>
      </trkpt>
      <trkpt lat="59.9696744" lon="17.7176279">
        <ele>33.7834</ele>
        <time>2012-10-05T20:12:08Z</time>
      </trkpt>
      <trkpt lat="59.9696959" lon="17.717642">
        <ele>33.7834</ele>
        <time>2012-10-05T20:12:09Z</time>
      </trkpt>
      <trkpt lat="59.9697227" lon="17.717659">
        <ele>33.3029</ele>
        <time>2012-10-05T20:12:10Z</time>
      </trkpt>
      <trkpt lat="59.9697507" lon="17.7176735">
        <ele>33.3029</ele>
        <time>2012-10-05T20:12:11Z</time>
      </trkpt>
      <trkpt lat="59.9697743" lon="17.7176925">
        <ele>33.3029</ele>
        <time>2012-10-05T20:12:12Z</time>
      </trkpt>
      <trkpt lat="59.9697995" lon="17.7177087">
        <ele>32.8223</ele>
        <time>2012-10-05T20:12:13Z</time>
      </trkpt>
      <trkpt lat="59.9698211" lon="17.7177332">
        <ele>32.8223</ele>
        <time>2012-10-05T20:12:14Z</time>
      </trkpt>
      <trkpt lat="59.9698419" lon="17.717762">
        <ele>32.8223</ele>
        <time>2012-10-05T20:12:15Z</time>
      </trkpt>
      <trkpt lat="59.9698652" lon="17.7177837">
        <ele>33.3029</ele>
        <time>2012-10-05T20:12:16Z</time>
      </trkpt>
      <trkpt lat="59.9698901" lon="17.7178041">
        <ele>33.3029</ele>
        <time>2012-10-05T20:12:17Z</time>
      </trkpt>
      <trkpt lat="59.969916" lon="17.7178206">
        <ele>32.8223</ele>
        <time>2012-10-05T20:12:18Z</time>
      </trkpt>
      <trkpt lat="59.9699388" lon="17.7178378">
        <ele>33.3029</ele>
        <time>2012-10-05T20:12:19Z</time>
      </trkpt>
      <trkpt lat="59.9699572" lon="17.7178603">
        <ele>32.8223</ele>
        <time>2012-10-05T20:12:20Z</time>
      </trkpt>
      <trkpt lat="59.9699785" lon="17.7178805">
        <ele>32.3416</ele>
        <time>2012-10-05T20:12:21Z</time>
      </trkpt>
      <trkpt lat="59.97" lon="17.7178971">
        <ele>32.3416</ele>
        <time>2012-10-05T20:12:22Z</time>
      </trkpt>
      <trkpt lat="59.9700245" lon="17.7179175">
        <ele>31.8607</ele>
        <time>2012-10-05T20:12:23Z</time>
      </trkpt>
      <trkpt lat="59.9700489" lon="17.7179342">
        <ele>31.8607</ele>
        <time>2012-10-05T20:12:24Z</time>
      </trkpt>
      <trkpt lat="59.9700708" lon="17.7179547">
        <ele>32.3416</ele>
        <time>2012-10-05T20:12:25Z</time>
      </trkpt>
      <trkpt lat="59.9700886" lon="17.71798">
        <ele>31.8607</ele>
        <time>2012-10-05T20:12:26Z</time>
      </trkpt>
      <trkpt lat="59.9701101" lon="17.7180013">
        <ele>31.3801</ele>
        <time>2012-10-05T20:12:27Z</time>
      </trkpt>
      <trkpt lat="59.9701335" lon="17.7180219">
        <ele>31.3801</ele>
        <time>2012-10-05T20:12:28Z</time>
      </trkpt>
      <trkpt lat="59.9701571" lon="17.7180419">
        <ele>31.3801</ele>
        <time>2012-10-05T20:12:29Z</time>
      </trkpt>
      <trkpt lat="59.9701807" lon="17.7180592">
        <ele>31.3801</ele>
        <time>2012-10-05T20:12:30Z</time>
      </trkpt>
      <trkpt lat="59.9702029" lon="17.7180795">
        <ele>31.3801</ele>
        <time>2012-10-05T20:12:31Z</time>
      </trkpt>
      <trkpt lat="59.9702268" lon="17.7180966">
        <ele>30.8995</ele>
        <time>2012-10-05T20:12:32Z</time>
      </trkpt>
      <trkpt lat="59.9702483" lon="17.7181113">
        <ele>30.4188</ele>
        <time>2012-10-05T20:12:33Z</time>
      </trkpt>
      <trkpt lat="59.970268" lon="17.7181329">
        <ele>29.9381</ele>
        <time>2012-10-05T20:12:34Z</time>
      </trkpt>
      <trkpt lat="59.970291" lon="17.7181527">
        <ele>29.9381</ele>
        <time>2012-10-05T20:12:35Z</time>
      </trkpt>
      <trkpt lat="59.9703153" lon="17.7181734">
        <ele>30.4188</ele>
        <time>2012-10-05T20:12:36Z</time>
      </trkpt>
      <trkpt lat="59.9703356" lon="17.7181988">
        <ele>30.4188</ele>
        <time>2012-10-05T20:12:37Z</time>
      </trkpt>
      <trkpt lat="59.9703548" lon="17.7182154">
        <ele>29.9381</ele>
        <time>2012-10-05T20:12:38Z</time>
      </trkpt>
      <trkpt lat="59.9703781" lon="17.7182309">
        <ele>29.9381</ele>
        <time>2012-10-05T20:12:39Z</time>
      </trkpt>
      <trkpt lat="59.9703977" lon="17.718246">
        <ele>28.9769</ele>
        <time>2012-10-05T20:12:40Z</time>
      </trkpt>
      <trkpt lat="59.9704205" lon="17.7182619">
        <ele>28.9769</ele>
        <time>2012-10-05T20:12:41Z</time>
      </trkpt>
      <trkpt lat="59.9704447" lon="17.7182863">
        <ele>28.9769</ele>
        <time>2012-10-05T20:12:42Z</time>
      </trkpt>
      <trkpt lat="59.9704641" lon="17.7183079">
        <ele>28.4962</ele>
        <time>2012-10-05T20:12:43Z</time>
      </trkpt>
      <trkpt lat="59.9704863" lon="17.7183241">
        <ele>28.4962</ele>
        <time>2012-10-05T20:12:44Z</time>
      </trkpt>
      <trkpt lat="59.9705089" lon="17.7183372">
        <ele>28.0155</ele>
        <time>2012-10-05T20:12:45Z</time>
      </trkpt>
      <trkpt lat="59.9705324" lon="17.7183511">
        <ele>27.5349</ele>
        <time>2012-10-05T20:12:46Z</time>
      </trkpt>
      <trkpt lat="59.9705525" lon="17.7183768">
        <ele>27.5349</ele>
        <time>2012-10-05T20:12:47Z</time>
      </trkpt>
      <trkpt lat="59.9705738" lon="17.7184016">
        <ele>27.0543</ele>
        <time>2012-10-05T20:12:48Z</time>
      </trkpt>
      <trkpt lat="59.9706024" lon="17.7184122">
        <ele>26.5736</ele>
        <time>2012-10-05T20:12:49Z</time>
      </trkpt>
      <trkpt lat="59.9706289" lon="17.7184273">
        <ele>26.5736</ele>
        <time>2012-10-05T20:12:50Z</time>
      </trkpt>
      <trkpt lat="59.9706431" lon="17.7184477">
        <ele>26.5736</ele>
        <time>2012-10-05T20:12:51Z</time>
      </trkpt>
      <trkpt lat="59.9706583" lon="17.7184662">
        <ele>26.5736</ele>
        <time>2012-10-05T20:12:52Z</time>
      </trkpt>
      <trkpt lat="59.9706717" lon="17.7184916">
        <ele>26.0929</ele>
        <time>2012-10-05T20:12:53Z</time>
      </trkpt>
      <trkpt lat="59.9706853" lon="17.7185201">
        <ele>26.0929</ele>
        <time>2012-10-05T20:12:54Z</time>
      </trkpt>
      <trkpt lat="59.9706997" lon="17.7185402">
        <ele>25.6123</ele>
        <time>2012-10-05T20:12:55Z</time>
      </trkpt>
      <trkpt lat="59.9707209" lon="17.7185624">
        <ele>26.0929</ele>
        <time>2012-10-05T20:12:56Z</time>
      </trkpt>
      <trkpt lat="59.9707428" lon="17.7185846">
        <ele>26.0929</ele>
        <time>2012-10-05T20:12:57Z</time>
      </trkpt>
      <trkpt lat="59.9707686" lon="17.7186033">
        <ele>26.0929</ele>
        <time>2012-10-05T20:12:58Z</time>
      </trkpt>
      <trkpt lat="59.9707917" lon="17.7186267">
        <ele>26.0929</ele>
        <time>2012-10-05T20:12:59Z</time>
      </trkpt>
      <trkpt lat="59.9708159" lon="17.7186483">
        <ele>26.5736</ele>
        <time>2012-10-05T20:13:00Z</time>
      </trkpt>
      <trkpt lat="59.9708396" lon="17.7186639">
        <ele>26.5736</ele>
        <time>2012-10-05T20:13:01Z</time>
      </trkpt>
      <trkpt lat="59.9708619" lon="17.7186798">
        <ele>26.5736</ele>
        <time>2012-10-05T20:13:02Z</time>
      </trkpt>
      <trkpt lat="59.9708846" lon="17.718698">
        <ele>27.0543</ele>
        <time>2012-10-05T20:13:03Z</time>
      </trkpt>
      <trkpt lat="59.9709053" lon="17.7187173">
        <ele>27.5349</ele>
        <time>2012-10-05T20:13:04Z</time>
      </trkpt>
      <trkpt lat="59.9709313" lon="17.7187333">
        <ele>27.5349</ele>
        <time>2012-10-05T20:13:05Z</time>
      </trkpt>
      <trkpt lat="59.970957" lon="17.7187523">
        <ele>27.0543</ele>
        <time>2012-10-05T20:13:06Z</time>
      </trkpt>
      <trkpt lat="59.9709788" lon="17.7187726">
        <ele>27.0543</ele>
        <time>2012-10-05T20:13:07Z</time>
      </trkpt>
      <trkpt lat="59.9710051" lon="17.7187945">
        <ele>27.5349</ele>
        <time>2012-10-05T20:13:08Z</time>
      </trkpt>
      <trkpt lat="59.9710284" lon="17.7188121">
        <ele>27.0543</ele>
        <time>2012-10-05T20:13:09Z</time>
      </trkpt>
      <trkpt lat="59.9710546" lon="17.7188282">
        <ele>27.0543</ele>
        <time>2012-10-05T20:13:10Z</time>
      </trkpt>
      <trkpt lat="59.9710794" lon="17.7188539">
        <ele>27.0543</ele>
        <time>2012-10-05T20:13:11Z</time>
      </trkpt>
      <trkpt lat="59.9711002" lon="17.718877">
        <ele>27.0543</ele>
        <time>2012-10-05T20:13:12Z</time>
      </trkpt>
      <trkpt lat="59.9711232" lon="17.7188976">
        <ele>27.5349</ele>
        <time>2012-10-05T20:13:13Z</time>
      </trkpt>
      <trkpt lat="59.9711442" lon="17.7189218">
        <ele>27.5349</ele>
        <time>2012-10-05T20:13:14Z</time>
      </trkpt>
      <trkpt lat="59.9711676" lon="17.718943">
        <ele>28.0155</ele>
        <time>2012-10-05T20:13:15Z</time>
      </trkpt>
      <trkpt lat="59.9711913" lon="17.7189623">
        <ele>28.4962</ele>
        <time>2012-10-05T20:13:16Z</time>
      </trkpt>
      <trkpt lat="59.9712181" lon="17.7189861">
        <ele>28.9769</ele>
        <time>2012-10-05T20:13:17Z</time>
      </trkpt>
      <trkpt lat="59.9712357" lon="17.7190119">
        <ele>28.9769</ele>
        <time>2012-10-05T20:13:18Z</time>
      </trkpt>
      <trkpt lat="59.971255" lon="17.7190333">
        <ele>29.4575</ele>
        <time>2012-10-05T20:13:19Z</time>
      </trkpt>
      <trkpt lat="59.9712757" lon="17.7190555">
        <ele>29.9381</ele>
        <time>2012-10-05T20:13:20Z</time>
      </trkpt>
      <trkpt lat="59.9712953" lon="17.7190766">
        <ele>29.9381</ele>
        <time>2012-10-05T20:13:21Z</time>
      </trkpt>
      <trkpt lat="59.9713166" lon="17.7190949">
        <ele>29.9381</ele>
        <time>2012-10-05T20:13:22Z</time>
      </trkpt>
      <trkpt lat="59.9713411" lon="17.7191165">
        <ele>29.9381</ele>
        <time>2012-10-05T20:13:23Z</time>
      </trkpt>
      <trkpt lat="59.9713638" lon="17.7191348">
        <ele>29.9381</ele>
        <time>2012-10-05T20:13:24Z</time>
      </trkpt>
      <trkpt lat="59.971387" lon="17.719153">
        <ele>30.4188</ele>
        <time>2012-10-05T20:13:25Z</time>
      </trkpt>
      <trkpt lat="59.9714103" lon="17.7191752">
        <ele>30.8995</ele>
        <time>2012-10-05T20:13:26Z</time>
      </trkpt>
      <trkpt lat="59.9714317" lon="17.7191959">
        <ele>30.8995</ele>
        <time>2012-10-05T20:13:27Z</time>
      </trkpt>
      <trkpt lat="59.9714517" lon="17.7192147">
        <ele>30.8995</ele>
        <time>2012-10-05T20:13:28Z</time>
      </trkpt>
      <trkpt lat="59.9714784" lon="17.7192374">
        <ele>30.8995</ele>
        <time>2012-10-05T20:13:29Z</time>
      </trkpt>
      <trkpt lat="59.9714998" lon="17.7192566">
        <ele>30.8995</ele>
        <time>2012-10-05T20:13:30Z</time>
      </trkpt>
      <trkpt lat="59.9715224" lon="17.7192752">
        <ele>31.8607</ele>
        <time>2012-10-05T20:13:31Z</time>
      </trkpt>
      <trkpt lat="59.9715441" lon="17.719297">
        <ele>31.8607</ele>
        <time>2012-10-05T20:13:32Z</time>
      </trkpt>
      <trkpt lat="59.9715668" lon="17.719318">
        <ele>32.3416</ele>
        <time>2012-10-05T20:13:33Z</time>
      </trkpt>
      <trkpt lat="59.9715954" lon="17.7193361">
        <ele>32.3416</ele>
        <time>2012-10-05T20:13:34Z</time>
      </trkpt>
      <trkpt lat="59.9716214" lon="17.7193565">
        <ele>31.8607</ele>
        <time>2012-10-05T20:13:35Z</time>
      </trkpt>
      <trkpt lat="59.971642" lon="17.7193742">
        <ele>31.8607</ele>
        <time>2012-10-05T20:13:36Z</time>
      </trkpt>
      <trkpt lat="59.9716646" lon="17.7193932">
        <ele>31.3801</ele>
        <time>2012-10-05T20:13:37Z</time>
      </trkpt>
      <trkpt lat="59.9716865" lon="17.7194152">
        <ele>30.8995</ele>
        <time>2012-10-05T20:13:38Z</time>
      </trkpt>
      <trkpt lat="59.9717133" lon="17.71943">
        <ele>30.4188</ele>
        <time>2012-10-05T20:13:39Z</time>
      </trkpt>
      <trkpt lat="59.9717404" lon="17.7194476">
        <ele>30.4188</ele>
        <time>2012-10-05T20:13:40Z</time>
      </trkpt>
      <trkpt lat="59.9717627" lon="17.7194627">
        <ele>29.9381</ele>
        <time>2012-10-05T20:13:41Z</time>
      </trkpt>
      <trkpt lat="59.9717895" lon="17.7194809">
        <ele>29.9381</ele>
        <time>2012-10-05T20:13:42Z</time>
      </trkpt>
      <trkpt lat="59.9718133" lon="17.7195037">
        <ele>29.4575</ele>
        <time>2012-10-05T20:13:43Z</time>
      </trkpt>
      <trkpt lat="59.9718383" lon="17.7195217">
        <ele>29.4575</ele>
        <time>2012-10-05T20:13:44Z</time>
      </trkpt>
      <trkpt lat="59.9718643" lon="17.7195415">
        <ele>28.9769</ele>
        <time>2012-10-05T20:13:45Z</time>
      </trkpt>
      <trkpt lat="59.971893" lon="17.7195636">
        <ele>28.9769</ele>
        <time>2012-10-05T20:13:46Z</time>
      </trkpt>
      <trkpt lat="59.9719187" lon="17.7195855">
        <ele>29.4575</ele>
        <time>2012-10-05T20:13:47Z</time>
      </trkpt>
      <trkpt lat="59.9719439" lon="17.7196122">
        <ele>29.9381</ele>
        <time>2012-10-05T20:13:48Z</time>
      </trkpt>
      <trkpt lat="59.9719648" lon="17.7196347">
        <ele>29.9381</ele>
        <time>2012-10-05T20:13:49Z</time>
      </trkpt>
      <trkpt lat="59.9719873" lon="17.7196504">
        <ele>29.4575</ele>
        <time>2012-10-05T20:13:50Z</time>
      </trkpt>
      <trkpt lat="59.9720124" lon="17.7196692">
        <ele>29.9381</ele>
        <time>2012-10-05T20:13:51Z</time>
      </trkpt>
      <trkpt lat="59.9720331" lon="17.7196849">
        <ele>29.4575</ele>
        <time>2012-10-05T20:13:52Z</time>
      </trkpt>
      <trkpt lat="59.9720533" lon="17.7197065">
        <ele>29.4575</ele>
        <time>2012-10-05T20:13:53Z</time>
      </trkpt>
      <trkpt lat="59.9720733" lon="17.7197279">
        <ele>29.4575</ele>
        <time>2012-10-05T20:13:54Z</time>
      </trkpt>
      <trkpt lat="59.9720979" lon="17.7197446">
        <ele>29.4575</ele>
        <time>2012-10-05T20:13:55Z</time>
      </trkpt>
      <trkpt lat="59.9721196" lon="17.7197631">
        <ele>29.4575</ele>
        <time>2012-10-05T20:13:56Z</time>
      </trkpt>
      <trkpt lat="59.9721481" lon="17.7197772">
        <ele>28.9769</ele>
        <time>2012-10-05T20:13:57Z</time>
      </trkpt>
      <trkpt lat="59.9721698" lon="17.7197958">
        <ele>28.9769</ele>
        <time>2012-10-05T20:13:58Z</time>
      </trkpt>
      <trkpt lat="59.9721872" lon="17.7198222">
        <ele>28.4962</ele>
        <time>2012-10-05T20:13:59Z</time>
      </trkpt>
      <trkpt lat="59.9722074" lon="17.7198443">
        <ele>28.9769</ele>
        <time>2012-10-05T20:14:00Z</time>
      </trkpt>
      <trkpt lat="59.9722258" lon="17.7198616">
        <ele>28.4962</ele>
        <time>2012-10-05T20:14:01Z</time>
      </trkpt>
      <trkpt lat="59.9722484" lon="17.7198808">
        <ele>28.0155</ele>
        <time>2012-10-05T20:14:02Z</time>
      </trkpt>
      <trkpt lat="59.9722691" lon="17.7199002">
        <ele>28.0155</ele>
        <time>2012-10-05T20:14:03Z</time>
      </trkpt>
      <trkpt lat="59.9722888" lon="17.7199197">
        <ele>28.0155</ele>
        <time>2012-10-05T20:14:04Z</time>
      </trkpt>
      <trkpt lat="59.9723101" lon="17.7199412">
        <ele>28.0155</ele>
        <time>2012-10-05T20:14:05Z</time>
      </trkpt>
      <trkpt lat="59.9723312" lon="17.7199594">
        <ele>28.0155</ele>
        <time>2012-10-05T20:14:06Z</time>
      </trkpt>
      <trkpt lat="59.9723491" lon="17.719979">
        <ele>27.5349</ele>
        <time>2012-10-05T20:14:07Z</time>
      </trkpt>
      <trkpt lat="59.9723727" lon="17.7200024">
        <ele>27.5349</ele>
        <time>2012-10-05T20:14:08Z</time>
      </trkpt>
      <trkpt lat="59.9723947" lon="17.7200221">
        <ele>28.0155</ele>
        <time>2012-10-05T20:14:09Z</time>
      </trkpt>
      <trkpt lat="59.9724174" lon="17.7200422">
        <ele>28.4962</ele>
        <time>2012-10-05T20:14:10Z</time>
      </trkpt>
      <trkpt lat="59.9724367" lon="17.7200683">
        <ele>28.4962</ele>
        <time>2012-10-05T20:14:11Z</time>
      </trkpt>
      <trkpt lat="59.9724532" lon="17.7200947">
        <ele>28.4962</ele>
        <time>2012-10-05T20:14:12Z</time>
      </trkpt>
      <trkpt lat="59.9724692" lon="17.7201217">
        <ele>28.9769</ele>
        <time>2012-10-05T20:14:13Z</time>
      </trkpt>
      <trkpt lat="59.9724867" lon="17.7201512">
        <ele>29.4575</ele>
        <time>2012-10-05T20:14:14Z</time>
      </trkpt>
      <trkpt lat="59.9725071" lon="17.7201741">
        <ele>29.9381</ele>
        <time>2012-10-05T20:14:15Z</time>
      </trkpt>
      <trkpt lat="59.9725329" lon="17.7201969">
        <ele>30.8995</ele>
        <time>2012-10-05T20:14:16Z</time>
      </trkpt>
      <trkpt lat="59.9725558" lon="17.7202245">
        <ele>31.3801</ele>
        <time>2012-10-05T20:14:17Z</time>
      </trkpt>
      <trkpt lat="59.9725769" lon="17.7202518">
        <ele>31.8607</ele>
        <time>2012-10-05T20:14:18Z</time>
      </trkpt>
      <trkpt lat="59.9725993" lon="17.72028">
        <ele>32.8223</ele>
        <time>2012-10-05T20:14:19Z</time>
      </trkpt>
      <trkpt lat="59.9726205" lon="17.7203064">
        <ele>33.3029</ele>
        <time>2012-10-05T20:14:20Z</time>
      </trkpt>
      <trkpt lat="59.9726428" lon="17.7203314">
        <ele>33.7834</ele>
        <time>2012-10-05T20:14:21Z</time>
      </trkpt>
      <trkpt lat="59.9726645" lon="17.7203559">
        <ele>33.7834</ele>
        <time>2012-10-05T20:14:22Z</time>
      </trkpt>
      <trkpt lat="59.9726868" lon="17.7203808">
        <ele>34.2642</ele>
        <time>2012-10-05T20:14:23Z</time>
      </trkpt>
      <trkpt lat="59.9727095" lon="17.7204034">
        <ele>34.2642</ele>
        <time>2012-10-05T20:14:24Z</time>
      </trkpt>
      <trkpt lat="59.9727312" lon="17.7204318">
        <ele>34.7449</ele>
        <time>2012-10-05T20:14:25Z</time>
      </trkpt>
      <trkpt lat="59.9727448" lon="17.7204621">
        <ele>34.7449</ele>
        <time>2012-10-05T20:14:26Z</time>
      </trkpt>
      <trkpt lat="59.9727684" lon="17.7204885">
        <ele>35.7061</ele>
        <time>2012-10-05T20:14:27Z</time>
      </trkpt>
      <trkpt lat="59.9727925" lon="17.7205162">
        <ele>35.2255</ele>
        <time>2012-10-05T20:14:28Z</time>
      </trkpt>
      <trkpt lat="59.9728228" lon="17.7205381">
        <ele>35.2255</ele>
        <time>2012-10-05T20:14:29Z</time>
      </trkpt>
      <trkpt lat="59.9728485" lon="17.7205665">
        <ele>35.2255</ele>
        <time>2012-10-05T20:14:30Z</time>
      </trkpt>
      <trkpt lat="59.9728717" lon="17.7205982">
        <ele>35.2255</ele>
        <time>2012-10-05T20:14:31Z</time>
      </trkpt>
      <trkpt lat="59.972897" lon="17.7206265">
        <ele>36.1868</ele>
        <time>2012-10-05T20:14:32Z</time>
      </trkpt>
      <trkpt lat="59.9729184" lon="17.7206567">
        <ele>36.6675</ele>
        <time>2012-10-05T20:14:33Z</time>
      </trkpt>
      <trkpt lat="59.9729397" lon="17.7206887">
        <ele>36.6675</ele>
        <time>2012-10-05T20:14:34Z</time>
      </trkpt>
      <trkpt lat="59.9729637" lon="17.7207174">
        <ele>37.6287</ele>
        <time>2012-10-05T20:14:35Z</time>
      </trkpt>
      <trkpt lat="59.9729868" lon="17.720748">
        <ele>37.6287</ele>
        <time>2012-10-05T20:14:36Z</time>
      </trkpt>
      <trkpt lat="59.9730103" lon="17.7207762">
        <ele>37.6287</ele>
        <time>2012-10-05T20:14:37Z</time>
      </trkpt>
      <trkpt lat="59.9730348" lon="17.7207995">
        <ele>38.5901</ele>
        <time>2012-10-05T20:14:38Z</time>
      </trkpt>
      <trkpt lat="59.9730583" lon="17.7208251">
        <ele>38.5901</ele>
        <time>2012-10-05T20:14:39Z</time>
      </trkpt>
      <trkpt lat="59.9730834" lon="17.7208519">
        <ele>38.5901</ele>
        <time>2012-10-05T20:14:40Z</time>
      </trkpt>
      <trkpt lat="59.9731057" lon="17.7208755">
        <ele>38.5901</ele>
        <time>2012-10-05T20:14:41Z</time>
      </trkpt>
      <trkpt lat="59.9731277" lon="17.7209028">
        <ele>38.5901</ele>
        <time>2012-10-05T20:14:42Z</time>
      </trkpt>
      <trkpt lat="59.9731524" lon="17.7209309">
        <ele>38.1094</ele>
        <time>2012-10-05T20:14:43Z</time>
      </trkpt>
      <trkpt lat="59.9731728" lon="17.7209582">
        <ele>38.1094</ele>
        <time>2012-10-05T20:14:44Z</time>
      </trkpt>
      <trkpt lat="59.9731944" lon="17.7209872">
        <ele>37.6287</ele>
        <time>2012-10-05T20:14:45Z</time>
      </trkpt>
      <trkpt lat="59.9732187" lon="17.7210167">
        <ele>37.1481</ele>
        <time>2012-10-05T20:14:46Z</time>
      </trkpt>
      <trkpt lat="59.9732362" lon="17.7210468">
        <ele>37.1481</ele>
        <time>2012-10-05T20:14:47Z</time>
      </trkpt>
      <trkpt lat="59.9732518" lon="17.7210819">
        <ele>37.1481</ele>
        <time>2012-10-05T20:14:48Z</time>
      </trkpt>
      <trkpt lat="59.9732705" lon="17.7211162">
        <ele>37.1481</ele>
        <time>2012-10-05T20:14:49Z</time>
      </trkpt>
      <trkpt lat="59.9732842" lon="17.721145">
        <ele>36.6675</ele>
        <time>2012-10-05T20:14:50Z</time>
      </trkpt>
      <trkpt lat="59.9733001" lon="17.7211761">
        <ele>36.1868</ele>
        <time>2012-10-05T20:14:51Z</time>
      </trkpt>
      <trkpt lat="59.9733176" lon="17.7212094">
        <ele>35.7061</ele>
        <time>2012-10-05T20:14:52Z</time>
      </trkpt>
      <trkpt lat="59.9733352" lon="17.7212419">
        <ele>35.7061</ele>
        <time>2012-10-05T20:14:53Z</time>
      </trkpt>
      <trkpt lat="59.9733509" lon="17.7212771">
        <ele>35.2255</ele>
        <time>2012-10-05T20:14:54Z</time>
      </trkpt>
      <trkpt lat="59.9733652" lon="17.7213152">
        <ele>35.2255</ele>
        <time>2012-10-05T20:14:55Z</time>
      </trkpt>
      <trkpt lat="59.9733781" lon="17.7213483">
        <ele>34.7449</ele>
        <time>2012-10-05T20:14:56Z</time>
      </trkpt>
      <trkpt lat="59.9733938" lon="17.7213781">
        <ele>34.2642</ele>
        <time>2012-10-05T20:14:57Z</time>
      </trkpt>
      <trkpt lat="59.9734085" lon="17.7214099">
        <ele>33.3029</ele>
        <time>2012-10-05T20:14:58Z</time>
      </trkpt>
      <trkpt lat="59.973424" lon="17.7214415">
        <ele>33.3029</ele>
        <time>2012-10-05T20:14:59Z</time>
      </trkpt>
      <trkpt lat="59.9734382" lon="17.7214725">
        <ele>32.8223</ele>
        <time>2012-10-05T20:15:00Z</time>
      </trkpt>
      <trkpt lat="59.9734493" lon="17.7215063">
        <ele>32.8223</ele>
        <time>2012-10-05T20:15:01Z</time>
      </trkpt>
      <trkpt lat="59.9734595" lon="17.7215357">
        <ele>31.8607</ele>
        <time>2012-10-05T20:15:02Z</time>
      </trkpt>
      <trkpt lat="59.9734747" lon="17.7215674">
        <ele>31.8607</ele>
        <time>2012-10-05T20:15:03Z</time>
      </trkpt>
      <trkpt lat="59.9734897" lon="17.7216038">
        <ele>31.8607</ele>
        <time>2012-10-05T20:15:04Z</time>
      </trkpt>
      <trkpt lat="59.9734988" lon="17.721642">
        <ele>31.8607</ele>
        <time>2012-10-05T20:15:05Z</time>
      </trkpt>
      <trkpt lat="59.9735115" lon="17.7216786">
        <ele>31.8607</ele>
        <time>2012-10-05T20:15:06Z</time>
      </trkpt>
      <trkpt lat="59.9735301" lon="17.7217143">
        <ele>31.8607</ele>
        <time>2012-10-05T20:15:07Z</time>
      </trkpt>
      <trkpt lat="59.9735484" lon="17.7217472">
        <ele>31.8607</ele>
        <time>2012-10-05T20:15:08Z</time>
      </trkpt>
      <trkpt lat="59.9735653" lon="17.7217812">
        <ele>32.8223</ele>
        <time>2012-10-05T20:15:09Z</time>
      </trkpt>
      <trkpt lat="59.9735796" lon="17.7218181">
        <ele>32.3416</ele>
        <time>2012-10-05T20:15:10Z</time>
      </trkpt>
      <trkpt lat="59.9735934" lon="17.7218563">
        <ele>32.3416</ele>
        <time>2012-10-05T20:15:11Z</time>
      </trkpt>
      <trkpt lat="59.9736078" lon="17.7218918">
        <ele>31.8607</ele>
        <time>2012-10-05T20:15:12Z</time>
      </trkpt>
      <trkpt lat="59.9736244" lon="17.7219272">
        <ele>31.8607</ele>
        <time>2012-10-05T20:15:13Z</time>
      </trkpt>
      <trkpt lat="59.97364" lon="17.7219628">
        <ele>31.3801</ele>
        <time>2012-10-05T20:15:14Z</time>
      </trkpt>
      <trkpt lat="59.9736565" lon="17.722002">
        <ele>31.3801</ele>
        <time>2012-10-05T20:15:15Z</time>
      </trkpt>
      <trkpt lat="59.9736701" lon="17.7220404">
        <ele>31.3801</ele>
        <time>2012-10-05T20:15:16Z</time>
      </trkpt>
      <trkpt lat="59.9736835" lon="17.7220746">
        <ele>31.3801</ele>
        <time>2012-10-05T20:15:17Z</time>
      </trkpt>
      <trkpt lat="59.9736989" lon="17.7221117">
        <ele>31.3801</ele>
        <time>2012-10-05T20:15:18Z</time>
      </trkpt>
      <trkpt lat="59.9737131" lon="17.7221468">
        <ele>31.3801</ele>
        <time>2012-10-05T20:15:19Z</time>
      </trkpt>
      <trkpt lat="59.9737274" lon="17.7221798">
        <ele>31.8607</ele>
        <time>2012-10-05T20:15:20Z</time>
      </trkpt>
      <trkpt lat="59.9737416" lon="17.7222186">
        <ele>32.3416</ele>
        <time>2012-10-05T20:15:21Z</time>
      </trkpt>
      <trkpt lat="59.9737553" lon="17.7222575">
        <ele>31.8607</ele>
        <time>2012-10-05T20:15:22Z</time>
      </trkpt>
      <trkpt lat="59.9737713" lon="17.722294">
        <ele>31.8607</ele>
        <time>2012-10-05T20:15:23Z</time>
      </trkpt>
      <trkpt lat="59.9737824" lon="17.7223315">
        <ele>31.8607</ele>
        <time>2012-10-05T20:15:24Z</time>
      </trkpt>
      <trkpt lat="59.9737897" lon="17.7223708">
        <ele>31.8607</ele>
        <time>2012-10-05T20:15:25Z</time>
      </trkpt>
      <trkpt lat="59.9738017" lon="17.7224081">
        <ele>31.8607</ele>
        <time>2012-10-05T20:15:26Z</time>
      </trkpt>
      <trkpt lat="59.9738125" lon="17.7224502">
        <ele>32.3416</ele>
        <time>2012-10-05T20:15:27Z</time>
      </trkpt>
      <trkpt lat="59.9738222" lon="17.7224919">
        <ele>32.8223</ele>
        <time>2012-10-05T20:15:28Z</time>
      </trkpt>
      <trkpt lat="59.9738363" lon="17.7225299">
        <ele>32.8223</ele>
        <time>2012-10-05T20:15:29Z</time>
      </trkpt>
      <trkpt lat="59.9738502" lon="17.7225675">
        <ele>33.3029</ele>
        <time>2012-10-05T20:15:30Z</time>
      </trkpt>
      <trkpt lat="59.973863" lon="17.7226094">
        <ele>33.3029</ele>
        <time>2012-10-05T20:15:31Z</time>
      </trkpt>
      <trkpt lat="59.9738741" lon="17.7226498">
        <ele>33.7834</ele>
        <time>2012-10-05T20:15:32Z</time>
      </trkpt>
      <trkpt lat="59.9738849" lon="17.722689">
        <ele>33.7834</ele>
        <time>2012-10-05T20:15:33Z</time>
      </trkpt>
      <trkpt lat="59.9738969" lon="17.7227315">
        <ele>33.7834</ele>
        <time>2012-10-05T20:15:34Z</time>
      </trkpt>
      <trkpt lat="59.9739057" lon="17.7227702">
        <ele>33.3029</ele>
        <time>2012-10-05T20:15:35Z</time>
      </trkpt>
      <trkpt lat="59.9739165" lon="17.7228106">
        <ele>33.3029</ele>
        <time>2012-10-05T20:15:36Z</time>
      </trkpt>
      <trkpt lat="59.97393" lon="17.7228542">
        <ele>33.7834</ele>
        <time>2012-10-05T20:15:37Z</time>
      </trkpt>
      <trkpt lat="59.973944" lon="17.7228961">
        <ele>33.7834</ele>
        <time>2012-10-05T20:15:38Z</time>
      </trkpt>
      <trkpt lat="59.9739575" lon="17.7229391">
        <ele>33.3029</ele>
        <time>2012-10-05T20:15:39Z</time>
      </trkpt>
      <trkpt lat="59.9739698" lon="17.7229826">
        <ele>33.3029</ele>
        <time>2012-10-05T20:15:40Z</time>
      </trkpt>
      <trkpt lat="59.9739818" lon="17.7230231">
        <ele>33.3029</ele>
        <time>2012-10-05T20:15:41Z</time>
      </trkpt>
      <trkpt lat="59.9739938" lon="17.723067">
        <ele>33.7834</ele>
        <time>2012-10-05T20:15:42Z</time>
      </trkpt>
      <trkpt lat="59.9740009" lon="17.7231076">
        <ele>32.8223</ele>
        <time>2012-10-05T20:15:43Z</time>
      </trkpt>
      <trkpt lat="59.9740078" lon="17.7231479">
        <ele>32.3416</ele>
        <time>2012-10-05T20:15:44Z</time>
      </trkpt>
      <trkpt lat="59.9740177" lon="17.7231974">
        <ele>32.3416</ele>
        <time>2012-10-05T20:15:45Z</time>
      </trkpt>
      <trkpt lat="59.9740247" lon="17.7232481">
        <ele>32.3416</ele>
        <time>2012-10-05T20:15:46Z</time>
      </trkpt>
      <trkpt lat="59.9740308" lon="17.7232903">
        <ele>31.8607</ele>
        <time>2012-10-05T20:15:47Z</time>
      </trkpt>
      <trkpt lat="59.9740425" lon="17.7233292">
        <ele>31.8607</ele>
        <time>2012-10-05T20:15:48Z</time>
      </trkpt>
      <trkpt lat="59.9740547" lon="17.723372">
        <ele>32.3416</ele>
        <time>2012-10-05T20:15:49Z</time>
      </trkpt>
      <trkpt lat="59.9740673" lon="17.7234142">
        <ele>31.8607</ele>
        <time>2012-10-05T20:15:50Z</time>
      </trkpt>
      <trkpt lat="59.9740793" lon="17.723453">
        <ele>31.8607</ele>
        <time>2012-10-05T20:15:51Z</time>
      </trkpt>
      <trkpt lat="59.9740854" lon="17.7234994">
        <ele>31.3801</ele>
        <time>2012-10-05T20:15:52Z</time>
      </trkpt>
      <trkpt lat="59.9740899" lon="17.723555">
        <ele>30.8995</ele>
        <time>2012-10-05T20:15:53Z</time>
      </trkpt>
      <trkpt lat="59.9740954" lon="17.7236078">
        <ele>30.8995</ele>
        <time>2012-10-05T20:15:54Z</time>
      </trkpt>
      <trkpt lat="59.9741045" lon="17.723657">
        <ele>31.3801</ele>
        <time>2012-10-05T20:15:55Z</time>
      </trkpt>
      <trkpt lat="59.9741173" lon="17.7237083">
        <ele>31.3801</ele>
        <time>2012-10-05T20:15:56Z</time>
      </trkpt>
      <trkpt lat="59.9741259" lon="17.7237569">
        <ele>30.8995</ele>
        <time>2012-10-05T20:15:57Z</time>
      </trkpt>
      <trkpt lat="59.9741347" lon="17.7238011">
        <ele>30.8995</ele>
        <time>2012-10-05T20:15:58Z</time>
      </trkpt>
      <trkpt lat="59.9741438" lon="17.7238447">
        <ele>30.8995</ele>
        <time>2012-10-05T20:15:59Z</time>
      </trkpt>
      <trkpt lat="59.9741461" lon="17.7238941">
        <ele>30.4188</ele>
        <time>2012-10-05T20:16:00Z</time>
      </trkpt>
      <trkpt lat="59.9741512" lon="17.723944">
        <ele>30.8995</ele>
        <time>2012-10-05T20:16:01Z</time>
      </trkpt>
      <trkpt lat="59.9741599" lon="17.7239859">
        <ele>30.8995</ele>
        <time>2012-10-05T20:16:02Z</time>
      </trkpt>
      <trkpt lat="59.9741688" lon="17.7240187">
        <ele>29.9381</ele>
        <time>2012-10-05T20:16:03Z</time>
      </trkpt>
      <trkpt lat="59.9741797" lon="17.7240619">
        <ele>29.9381</ele>
        <time>2012-10-05T20:16:04Z</time>
      </trkpt>
      <trkpt lat="59.9741886" lon="17.7241114">
        <ele>29.9381</ele>
        <time>2012-10-05T20:16:05Z</time>
      </trkpt>
      <trkpt lat="59.9741998" lon="17.7241619">
        <ele>30.4188</ele>
        <time>2012-10-05T20:16:06Z</time>
      </trkpt>
      <trkpt lat="59.9742044" lon="17.7242045">
        <ele>29.4575</ele>
        <time>2012-10-05T20:16:07Z</time>
      </trkpt>
      <trkpt lat="59.9742098" lon="17.7242445">
        <ele>29.4575</ele>
        <time>2012-10-05T20:16:08Z</time>
      </trkpt>
      <trkpt lat="59.9742201" lon="17.7242837">
        <ele>29.4575</ele>
        <time>2012-10-05T20:16:09Z</time>
      </trkpt>
      <trkpt lat="59.9742279" lon="17.7243274">
        <ele>29.4575</ele>
        <time>2012-10-05T20:16:10Z</time>
      </trkpt>
      <trkpt lat="59.9742325" lon="17.7243691">
        <ele>29.4575</ele>
        <time>2012-10-05T20:16:11Z</time>
      </trkpt>
      <trkpt lat="59.9742404" lon="17.7244113">
        <ele>29.4575</ele>
        <time>2012-10-05T20:16:12Z</time>
      </trkpt>
      <trkpt lat="59.9742539" lon="17.724461">
        <ele>29.9381</ele>
        <time>2012-10-05T20:16:13Z</time>
      </trkpt>
      <trkpt lat="59.9742662" lon="17.7245092">
        <ele>29.9381</ele>
        <time>2012-10-05T20:16:14Z</time>
      </trkpt>
      <trkpt lat="59.9742738" lon="17.7245512">
        <ele>29.9381</ele>
        <time>2012-10-05T20:16:15Z</time>
      </trkpt>
      <trkpt lat="59.9742831" lon="17.7246012">
        <ele>30.4188</ele>
        <time>2012-10-05T20:16:16Z</time>
      </trkpt>
      <trkpt lat="59.9742896" lon="17.7246505">
        <ele>30.4188</ele>
        <time>2012-10-05T20:16:17Z</time>
      </trkpt>
      <trkpt lat="59.9742942" lon="17.7246968">
        <ele>30.4188</ele>
        <time>2012-10-05T20:16:18Z</time>
      </trkpt>
      <trkpt lat="59.9743007" lon="17.7247493">
        <ele>30.8995</ele>
        <time>2012-10-05T20:16:19Z</time>
      </trkpt>
      <trkpt lat="59.9743075" lon="17.724795">
        <ele>30.8995</ele>
        <time>2012-10-05T20:16:20Z</time>
      </trkpt>
      <trkpt lat="59.9743118" lon="17.7248376">
        <ele>30.8995</ele>
        <time>2012-10-05T20:16:21Z</time>
      </trkpt>
      <trkpt lat="59.9743171" lon="17.7248892">
        <ele>30.8995</ele>
        <time>2012-10-05T20:16:22Z</time>
      </trkpt>
      <trkpt lat="59.9743216" lon="17.724937">
        <ele>30.4188</ele>
        <time>2012-10-05T20:16:23Z</time>
      </trkpt>
      <trkpt lat="59.9743274" lon="17.724985">
        <ele>30.4188</ele>
        <time>2012-10-05T20:16:24Z</time>
      </trkpt>
      <trkpt lat="59.9743344" lon="17.7250406">
        <ele>31.3801</ele>
        <time>2012-10-05T20:16:25Z</time>
      </trkpt>
      <trkpt lat="59.9743372" lon="17.7250877">
        <ele>30.8995</ele>
        <time>2012-10-05T20:16:26Z</time>
      </trkpt>
      <trkpt lat="59.9743388" lon="17.7251303">
        <ele>30.8995</ele>
        <time>2012-10-05T20:16:27Z</time>
      </trkpt>
      <trkpt lat="59.9743381" lon="17.7251744">
        <ele>30.4188</ele>
        <time>2012-10-05T20:16:28Z</time>
      </trkpt>
      <trkpt lat="59.9743425" lon="17.7252223">
        <ele>30.8995</ele>
        <time>2012-10-05T20:16:29Z</time>
      </trkpt>
      <trkpt lat="59.9743481" lon="17.7252713">
        <ele>30.8995</ele>
        <time>2012-10-05T20:16:30Z</time>
      </trkpt>
      <trkpt lat="59.9743508" lon="17.7253194">
        <ele>30.4188</ele>
        <time>2012-10-05T20:16:31Z</time>
      </trkpt>
      <trkpt lat="59.9743536" lon="17.7253619">
        <ele>29.9381</ele>
        <time>2012-10-05T20:16:32Z</time>
      </trkpt>
      <trkpt lat="59.9743579" lon="17.725411">
        <ele>29.9381</ele>
        <time>2012-10-05T20:16:33Z</time>
      </trkpt>
      <trkpt lat="59.9743604" lon="17.72546">
        <ele>29.4575</ele>
        <time>2012-10-05T20:16:34Z</time>
      </trkpt>
      <trkpt lat="59.9743632" lon="17.7255109">
        <ele>28.9769</ele>
        <time>2012-10-05T20:16:35Z</time>
      </trkpt>
      <trkpt lat="59.9743661" lon="17.7255623">
        <ele>28.4962</ele>
        <time>2012-10-05T20:16:36Z</time>
      </trkpt>
      <trkpt lat="59.9743694" lon="17.7256094">
        <ele>28.0155</ele>
        <time>2012-10-05T20:16:37Z</time>
      </trkpt>
      <trkpt lat="59.9743734" lon="17.7256551">
        <ele>27.5349</ele>
        <time>2012-10-05T20:16:38Z</time>
      </trkpt>
      <trkpt lat="59.9743746" lon="17.7257011">
        <ele>27.0543</ele>
        <time>2012-10-05T20:16:39Z</time>
      </trkpt>
      <trkpt lat="59.9743727" lon="17.725743">
        <ele>26.0929</ele>
        <time>2012-10-05T20:16:40Z</time>
      </trkpt>
      <trkpt lat="59.9743741" lon="17.7257872">
        <ele>26.0929</ele>
        <time>2012-10-05T20:16:41Z</time>
      </trkpt>
      <trkpt lat="59.9743745" lon="17.7258318">
        <ele>25.6123</ele>
        <time>2012-10-05T20:16:42Z</time>
      </trkpt>
      <trkpt lat="59.9743703" lon="17.7258758">
        <ele>24.651</ele>
        <time>2012-10-05T20:16:43Z</time>
      </trkpt>
      <trkpt lat="59.9743673" lon="17.7259249">
        <ele>24.651</ele>
        <time>2012-10-05T20:16:44Z</time>
      </trkpt>
      <trkpt lat="59.9743672" lon="17.7259739">
        <ele>23.6896</ele>
        <time>2012-10-05T20:16:45Z</time>
      </trkpt>
      <trkpt lat="59.9743696" lon="17.7260193">
        <ele>23.209</ele>
        <time>2012-10-05T20:16:46Z</time>
      </trkpt>
      <trkpt lat="59.9743689" lon="17.7260682">
        <ele>22.7283</ele>
        <time>2012-10-05T20:16:47Z</time>
      </trkpt>
      <trkpt lat="59.9743668" lon="17.7261135">
        <ele>21.767</ele>
        <time>2012-10-05T20:16:48Z</time>
      </trkpt>
      <trkpt lat="59.9743636" lon="17.7261549">
        <ele>20.8057</ele>
        <time>2012-10-05T20:16:49Z</time>
      </trkpt>
      <trkpt lat="59.9743625" lon="17.7262">
        <ele>20.325</ele>
        <time>2012-10-05T20:16:50Z</time>
      </trkpt>
      <trkpt lat="59.9743625" lon="17.7262441">
        <ele>19.8444</ele>
        <time>2012-10-05T20:16:51Z</time>
      </trkpt>
      <trkpt lat="59.9743667" lon="17.7262887">
        <ele>19.3638</ele>
        <time>2012-10-05T20:16:52Z</time>
      </trkpt>
      <trkpt lat="59.9743672" lon="17.7263351">
        <ele>19.3638</ele>
        <time>2012-10-05T20:16:53Z</time>
      </trkpt>
      <trkpt lat="59.974367" lon="17.7263869">
        <ele>18.8831</ele>
        <time>2012-10-05T20:16:54Z</time>
      </trkpt>
      <trkpt lat="59.9743677" lon="17.7264357">
        <ele>18.4023</ele>
        <time>2012-10-05T20:16:55Z</time>
      </trkpt>
      <trkpt lat="59.9743651" lon="17.7264828">
        <ele>18.4023</ele>
        <time>2012-10-05T20:16:56Z</time>
      </trkpt>
      <trkpt lat="59.9743624" lon="17.7265279">
        <ele>18.4023</ele>
        <time>2012-10-05T20:16:57Z</time>
      </trkpt>
      <trkpt lat="59.974365" lon="17.7265745">
        <ele>18.4023</ele>
        <time>2012-10-05T20:16:58Z</time>
      </trkpt>
      <trkpt lat="59.9743702" lon="17.7266277">
        <ele>18.8831</ele>
        <time>2012-10-05T20:16:59Z</time>
      </trkpt>
      <trkpt lat="59.9743717" lon="17.7266781">
        <ele>18.8831</ele>
        <time>2012-10-05T20:17:00Z</time>
      </trkpt>
      <trkpt lat="59.9743734" lon="17.7267302">
        <ele>19.3638</ele>
        <time>2012-10-05T20:17:01Z</time>
      </trkpt>
      <trkpt lat="59.9743754" lon="17.7267848">
        <ele>19.3638</ele>
        <time>2012-10-05T20:17:02Z</time>
      </trkpt>
      <trkpt lat="59.9743777" lon="17.7268341">
        <ele>18.8831</ele>
        <time>2012-10-05T20:17:03Z</time>
      </trkpt>
      <trkpt lat="59.9743796" lon="17.7268704">
        <ele>18.4023</ele>
        <time>2012-10-05T20:17:04Z</time>
      </trkpt>
      <trkpt lat="59.9743802" lon="17.7269081">
        <ele>16.9604</ele>
        <time>2012-10-05T20:17:05Z</time>
      </trkpt>
      <trkpt lat="59.974381" lon="17.7269594">
        <ele>16.4797</ele>
        <time>2012-10-05T20:17:06Z</time>
      </trkpt>
      <trkpt lat="59.9743821" lon="17.727005">
        <ele>16.4797</ele>
        <time>2012-10-05T20:17:07Z</time>
      </trkpt>
      <trkpt lat="59.9743838" lon="17.7270495">
        <ele>15.999</ele>
        <time>2012-10-05T20:17:08Z</time>
      </trkpt>
      <trkpt lat="59.9743865" lon="17.7270928">
        <ele>15.5184</ele>
        <time>2012-10-05T20:17:09Z</time>
      </trkpt>
      <trkpt lat="59.9743869" lon="17.7271328">
        <ele>14.0764</ele>
        <time>2012-10-05T20:17:10Z</time>
      </trkpt>
      <trkpt lat="59.9743903" lon="17.7271873">
        <ele>14.0764</ele>
        <time>2012-10-05T20:17:11Z</time>
      </trkpt>
      <trkpt lat="59.9743929" lon="17.7272482">
        <ele>14.557</ele>
        <time>2012-10-05T20:17:12Z</time>
      </trkpt>
      <trkpt lat="59.9743922" lon="17.7272991">
        <ele>14.557</ele>
        <time>2012-10-05T20:17:13Z</time>
      </trkpt>
      <trkpt lat="59.9743908" lon="17.7273508">
        <ele>14.0764</ele>
        <time>2012-10-05T20:17:14Z</time>
      </trkpt>
      <trkpt lat="59.974389" lon="17.7274012">
        <ele>13.5958</ele>
        <time>2012-10-05T20:17:15Z</time>
      </trkpt>
      <trkpt lat="59.9743888" lon="17.7274457">
        <ele>13.1151</ele>
        <time>2012-10-05T20:17:16Z</time>
      </trkpt>
      <trkpt lat="59.9743901" lon="17.7274912">
        <ele>13.1151</ele>
        <time>2012-10-05T20:17:17Z</time>
      </trkpt>
      <trkpt lat="59.9743925" lon="17.7275379">
        <ele>13.1151</ele>
        <time>2012-10-05T20:17:18Z</time>
      </trkpt>
      <trkpt lat="59.9743983" lon="17.7275888">
        <ele>13.5958</ele>
        <time>2012-10-05T20:17:19Z</time>
      </trkpt>
      <trkpt lat="59.9744046" lon="17.727641">
        <ele>14.0764</ele>
        <time>2012-10-05T20:17:20Z</time>
      </trkpt>
      <trkpt lat="59.9744092" lon="17.727696">
        <ele>14.557</ele>
        <time>2012-10-05T20:17:21Z</time>
      </trkpt>
      <trkpt lat="59.9744137" lon="17.7277512">
        <ele>14.557</ele>
        <time>2012-10-05T20:17:22Z</time>
      </trkpt>
      <trkpt lat="59.9744158" lon="17.7278016">
        <ele>14.557</ele>
        <time>2012-10-05T20:17:23Z</time>
      </trkpt>
      <trkpt lat="59.9744154" lon="17.7278567">
        <ele>14.557</ele>
        <time>2012-10-05T20:17:24Z</time>
      </trkpt>
      <trkpt lat="59.9744162" lon="17.727914">
        <ele>14.557</ele>
        <time>2012-10-05T20:17:25Z</time>
      </trkpt>
      <trkpt lat="59.97442" lon="17.7279654">
        <ele>14.557</ele>
        <time>2012-10-05T20:17:26Z</time>
      </trkpt>
      <trkpt lat="59.9744228" lon="17.7280198">
        <ele>14.557</ele>
        <time>2012-10-05T20:17:27Z</time>
      </trkpt>
      <trkpt lat="59.9744232" lon="17.7280772">
        <ele>14.557</ele>
        <time>2012-10-05T20:17:28Z</time>
      </trkpt>
      <trkpt lat="59.9744247" lon="17.7281278">
        <ele>14.557</ele>
        <time>2012-10-05T20:17:29Z</time>
      </trkpt>
      <trkpt lat="59.9744263" lon="17.7281755">
        <ele>14.557</ele>
        <time>2012-10-05T20:17:30Z</time>
      </trkpt>
      <trkpt lat="59.9744264" lon="17.728228">
        <ele>14.557</ele>
        <time>2012-10-05T20:17:31Z</time>
      </trkpt>
      <trkpt lat="59.9744248" lon="17.7282808">
        <ele>14.557</ele>
        <time>2012-10-05T20:17:32Z</time>
      </trkpt>
      <trkpt lat="59.9744204" lon="17.7283325">
        <ele>14.0764</ele>
        <time>2012-10-05T20:17:33Z</time>
      </trkpt>
      <trkpt lat="59.9744183" lon="17.728378">
        <ele>14.0764</ele>
        <time>2012-10-05T20:17:34Z</time>
      </trkpt>
      <trkpt lat="59.9744206" lon="17.728428">
        <ele>14.0764</ele>
        <time>2012-10-05T20:17:35Z</time>
      </trkpt>
      <trkpt lat="59.9744204" lon="17.7284759">
        <ele>14.0764</ele>
        <time>2012-10-05T20:17:36Z</time>
      </trkpt>
      <trkpt lat="59.9744237" lon="17.7285258">
        <ele>14.557</ele>
        <time>2012-10-05T20:17:37Z</time>
      </trkpt>
      <trkpt lat="59.9744297" lon="17.7285756">
        <ele>14.557</ele>
        <time>2012-10-05T20:17:38Z</time>
      </trkpt>
      <trkpt lat="59.9744288" lon="17.7286206">
        <ele>14.557</ele>
        <time>2012-10-05T20:17:39Z</time>
      </trkpt>
      <trkpt lat="59.9744252" lon="17.7286651">
        <ele>14.557</ele>
        <time>2012-10-05T20:17:40Z</time>
      </trkpt>
      <trkpt lat="59.9744252" lon="17.7287111">
        <ele>14.557</ele>
        <time>2012-10-05T20:17:41Z</time>
      </trkpt>
      <trkpt lat="59.9744242" lon="17.7287557">
        <ele>14.557</ele>
        <time>2012-10-05T20:17:42Z</time>
      </trkpt>
      <trkpt lat="59.974421" lon="17.7287962">
        <ele>14.557</ele>
        <time>2012-10-05T20:17:43Z</time>
      </trkpt>
      <trkpt lat="59.974419" lon="17.7288428">
        <ele>15.0377</ele>
        <time>2012-10-05T20:17:44Z</time>
      </trkpt>
      <trkpt lat="59.9744193" lon="17.7288916">
        <ele>15.0377</ele>
        <time>2012-10-05T20:17:45Z</time>
      </trkpt>
      <trkpt lat="59.9744195" lon="17.7289356">
        <ele>15.0377</ele>
        <time>2012-10-05T20:17:46Z</time>
      </trkpt>
      <trkpt lat="59.9744217" lon="17.7289825">
        <ele>15.5184</ele>
        <time>2012-10-05T20:17:47Z</time>
      </trkpt>
      <trkpt lat="59.9744201" lon="17.7290305">
        <ele>14.557</ele>
        <time>2012-10-05T20:17:48Z</time>
      </trkpt>
      <trkpt lat="59.9744201" lon="17.7290739">
        <ele>14.557</ele>
        <time>2012-10-05T20:17:49Z</time>
      </trkpt>
      <trkpt lat="59.9744191" lon="17.7291205">
        <ele>15.0377</ele>
        <time>2012-10-05T20:17:50Z</time>
      </trkpt>
      <trkpt lat="59.9744179" lon="17.7291696">
        <ele>14.557</ele>
        <time>2012-10-05T20:17:51Z</time>
      </trkpt>
      <trkpt lat="59.974417" lon="17.7292147">
        <ele>14.557</ele>
        <time>2012-10-05T20:17:52Z</time>
      </trkpt>
      <trkpt lat="59.9744188" lon="17.7292713">
        <ele>15.0377</ele>
        <time>2012-10-05T20:17:53Z</time>
      </trkpt>
      <trkpt lat="59.9744219" lon="17.7293287">
        <ele>15.0377</ele>
        <time>2012-10-05T20:17:54Z</time>
      </trkpt>
      <trkpt lat="59.9744258" lon="17.72939">
        <ele>15.5184</ele>
        <time>2012-10-05T20:17:55Z</time>
      </trkpt>
      <trkpt lat="59.9744258" lon="17.7294474">
        <ele>15.5184</ele>
        <time>2012-10-05T20:17:56Z</time>
      </trkpt>
      <trkpt lat="59.9744242" lon="17.7294967">
        <ele>15.5184</ele>
        <time>2012-10-05T20:17:57Z</time>
      </trkpt>
      <trkpt lat="59.97442" lon="17.7295423">
        <ele>15.5184</ele>
        <time>2012-10-05T20:17:58Z</time>
      </trkpt>
      <trkpt lat="59.9744144" lon="17.7295846">
        <ele>15.0377</ele>
        <time>2012-10-05T20:17:59Z</time>
      </trkpt>
      <trkpt lat="59.974409" lon="17.729624">
        <ele>15.0377</ele>
        <time>2012-10-05T20:18:00Z</time>
      </trkpt>
      <trkpt lat="59.9744002" lon="17.7296665">
        <ele>14.557</ele>
        <time>2012-10-05T20:18:01Z</time>
      </trkpt>
      <trkpt lat="59.9743937" lon="17.7297124">
        <ele>14.0764</ele>
        <time>2012-10-05T20:18:02Z</time>
      </trkpt>
      <trkpt lat="59.9743922" lon="17.7297634">
        <ele>14.557</ele>
        <time>2012-10-05T20:18:03Z</time>
      </trkpt>
      <trkpt lat="59.9743878" lon="17.7298152">
        <ele>14.0764</ele>
        <time>2012-10-05T20:18:04Z</time>
      </trkpt>
      <trkpt lat="59.9743813" lon="17.7298598">
        <ele>14.0764</ele>
        <time>2012-10-05T20:18:05Z</time>
      </trkpt>
      <trkpt lat="59.9743774" lon="17.7299044">
        <ele>14.0764</ele>
        <time>2012-10-05T20:18:06Z</time>
      </trkpt>
      <trkpt lat="59.9743709" lon="17.7299503">
        <ele>13.5958</ele>
        <time>2012-10-05T20:18:07Z</time>
      </trkpt>
      <trkpt lat="59.9743698" lon="17.7300027">
        <ele>13.5958</ele>
        <time>2012-10-05T20:18:08Z</time>
      </trkpt>
      <trkpt lat="59.9743676" lon="17.7300564">
        <ele>13.5958</ele>
        <time>2012-10-05T20:18:09Z</time>
      </trkpt>
      <trkpt lat="59.9743608" lon="17.7301038">
        <ele>13.1151</ele>
        <time>2012-10-05T20:18:10Z</time>
      </trkpt>
      <trkpt lat="59.9743563" lon="17.7301517">
        <ele>13.1151</ele>
        <time>2012-10-05T20:18:11Z</time>
      </trkpt>
      <trkpt lat="59.9743495" lon="17.7301993">
        <ele>12.6344</ele>
        <time>2012-10-05T20:18:12Z</time>
      </trkpt>
      <trkpt lat="59.9743429" lon="17.7302439">
        <ele>12.6344</ele>
        <time>2012-10-05T20:18:13Z</time>
      </trkpt>
      <trkpt lat="59.9743387" lon="17.7302907">
        <ele>12.6344</ele>
        <time>2012-10-05T20:18:14Z</time>
      </trkpt>
      <trkpt lat="59.9743336" lon="17.730344">
        <ele>12.6344</ele>
        <time>2012-10-05T20:18:15Z</time>
      </trkpt>
      <trkpt lat="59.97433" lon="17.7303943">
        <ele>12.6344</ele>
        <time>2012-10-05T20:18:16Z</time>
      </trkpt>
      <trkpt lat="59.9743251" lon="17.7304424">
        <ele>13.1151</ele>
        <time>2012-10-05T20:18:17Z</time>
      </trkpt>
      <trkpt lat="59.9743181" lon="17.7304907">
        <ele>12.6344</ele>
        <time>2012-10-05T20:18:18Z</time>
      </trkpt>
      <trkpt lat="59.9743153" lon="17.7305393">
        <ele>12.6344</ele>
        <time>2012-10-05T20:18:19Z</time>
      </trkpt>
      <trkpt lat="59.9743159" lon="17.7305989">
        <ele>13.5958</ele>
        <time>2012-10-05T20:18:20Z</time>
      </trkpt>
      <trkpt lat="59.9743086" lon="17.7306436">
        <ele>13.1151</ele>
        <time>2012-10-05T20:18:21Z</time>
      </trkpt>
      <trkpt lat="59.9743018" lon="17.7306849">
        <ele>13.5958</ele>
        <time>2012-10-05T20:18:22Z</time>
      </trkpt>
      <trkpt lat="59.9742961" lon="17.730731">
        <ele>13.5958</ele>
        <time>2012-10-05T20:18:23Z</time>
      </trkpt>
      <trkpt lat="59.9742924" lon="17.7307821">
        <ele>14.0764</ele>
        <time>2012-10-05T20:18:24Z</time>
      </trkpt>
      <trkpt lat="59.9742919" lon="17.7308351">
        <ele>14.0764</ele>
        <time>2012-10-05T20:18:25Z</time>
      </trkpt>
      <trkpt lat="59.9742891" lon="17.7308864">
        <ele>13.5958</ele>
        <time>2012-10-05T20:18:26Z</time>
      </trkpt>
      <trkpt lat="59.9742852" lon="17.7309331">
        <ele>13.5958</ele>
        <time>2012-10-05T20:18:27Z</time>
      </trkpt>
      <trkpt lat="59.9742853" lon="17.7309864">
        <ele>14.0764</ele>
        <time>2012-10-05T20:18:28Z</time>
      </trkpt>
      <trkpt lat="59.9742833" lon="17.7310429">
        <ele>14.557</ele>
        <time>2012-10-05T20:18:29Z</time>
      </trkpt>
      <trkpt lat="59.9742788" lon="17.731092">
        <ele>14.557</ele>
        <time>2012-10-05T20:18:30Z</time>
      </trkpt>
      <trkpt lat="59.9742755" lon="17.7311359">
        <ele>14.557</ele>
        <time>2012-10-05T20:18:31Z</time>
      </trkpt>
      <trkpt lat="59.9742709" lon="17.7311807">
        <ele>14.0764</ele>
        <time>2012-10-05T20:18:32Z</time>
      </trkpt>
      <trkpt lat="59.9742645" lon="17.7312174">
        <ele>13.5958</ele>
        <time>2012-10-05T20:18:33Z</time>
      </trkpt>
      <trkpt lat="59.9742606" lon="17.7312592">
        <ele>13.5958</ele>
        <time>2012-10-05T20:18:34Z</time>
      </trkpt>
      <trkpt lat="59.9742585" lon="17.7313139">
        <ele>13.5958</ele>
        <time>2012-10-05T20:18:35Z</time>
      </trkpt>
      <trkpt lat="59.9742558" lon="17.7313624">
        <ele>13.5958</ele>
        <time>2012-10-05T20:18:36Z</time>
      </trkpt>
      <trkpt lat="59.9742573" lon="17.7314039">
        <ele>14.0764</ele>
        <time>2012-10-05T20:18:37Z</time>
      </trkpt>
      <trkpt lat="59.9742583" lon="17.7314498">
        <ele>14.0764</ele>
        <time>2012-10-05T20:18:38Z</time>
      </trkpt>
      <trkpt lat="59.9742574" lon="17.7314986">
        <ele>14.0764</ele>
        <time>2012-10-05T20:18:39Z</time>
      </trkpt>
      <trkpt lat="59.9742584" lon="17.7315422">
        <ele>14.0764</ele>
        <time>2012-10-05T20:18:40Z</time>
      </trkpt>
      <trkpt lat="59.9742572" lon="17.7315852">
        <ele>14.557</ele>
        <time>2012-10-05T20:18:41Z</time>
      </trkpt>
      <trkpt lat="59.9742568" lon="17.7316321">
        <ele>14.557</ele>
        <time>2012-10-05T20:18:42Z</time>
      </trkpt>
      <trkpt lat="59.9742565" lon="17.7316746">
        <ele>14.557</ele>
        <time>2012-10-05T20:18:43Z</time>
      </trkpt>
      <trkpt lat="59.974258" lon="17.731723">
        <ele>14.557</ele>
        <time>2012-10-05T20:18:44Z</time>
      </trkpt>
      <trkpt lat="59.9742569" lon="17.7317758">
        <ele>14.557</ele>
        <time>2012-10-05T20:18:45Z</time>
      </trkpt>
      <trkpt lat="59.9742569" lon="17.7318257">
        <ele>14.557</ele>
        <time>2012-10-05T20:18:46Z</time>
      </trkpt>
      <trkpt lat="59.9742584" lon="17.7318731">
        <ele>14.557</ele>
        <time>2012-10-05T20:18:47Z</time>
      </trkpt>
      <trkpt lat="59.9742563" lon="17.7319181">
        <ele>14.0764</ele>
        <time>2012-10-05T20:18:48Z</time>
      </trkpt>
      <trkpt lat="59.974256" lon="17.7319627">
        <ele>13.5958</ele>
        <time>2012-10-05T20:18:49Z</time>
      </trkpt>
      <trkpt lat="59.9742579" lon="17.7320093">
        <ele>14.0764</ele>
        <time>2012-10-05T20:18:50Z</time>
      </trkpt>
      <trkpt lat="59.9742564" lon="17.7320553">
        <ele>13.5958</ele>
        <time>2012-10-05T20:18:51Z</time>
      </trkpt>
      <trkpt lat="59.9742552" lon="17.7320957">
        <ele>13.1151</ele>
        <time>2012-10-05T20:18:52Z</time>
      </trkpt>
      <trkpt lat="59.9742586" lon="17.7321426">
        <ele>13.1151</ele>
        <time>2012-10-05T20:18:53Z</time>
      </trkpt>
      <trkpt lat="59.9742619" lon="17.7321934">
        <ele>13.1151</ele>
        <time>2012-10-05T20:18:54Z</time>
      </trkpt>
      <trkpt lat="59.9742634" lon="17.7322436">
        <ele>13.1151</ele>
        <time>2012-10-05T20:18:55Z</time>
      </trkpt>
      <trkpt lat="59.9742646" lon="17.7323016">
        <ele>12.6344</ele>
        <time>2012-10-05T20:18:56Z</time>
      </trkpt>
      <trkpt lat="59.974266" lon="17.7323558">
        <ele>12.6344</ele>
        <time>2012-10-05T20:18:57Z</time>
      </trkpt>
      <trkpt lat="59.9742672" lon="17.7324077">
        <ele>12.1538</ele>
        <time>2012-10-05T20:18:58Z</time>
      </trkpt>
      <trkpt lat="59.9742681" lon="17.7324663">
        <ele>12.6344</ele>
        <time>2012-10-05T20:18:59Z</time>
      </trkpt>
      <trkpt lat="59.974267" lon="17.7325151">
        <ele>12.1538</ele>
        <time>2012-10-05T20:19:00Z</time>
      </trkpt>
      <trkpt lat="59.9742668" lon="17.7325625">
        <ele>12.1538</ele>
        <time>2012-10-05T20:19:01Z</time>
      </trkpt>
      <trkpt lat="59.9742657" lon="17.7326118">
        <ele>11.6732</ele>
        <time>2012-10-05T20:19:02Z</time>
      </trkpt>
      <trkpt lat="59.9742668" lon="17.7326591">
        <ele>11.6732</ele>
        <time>2012-10-05T20:19:03Z</time>
      </trkpt>
      <trkpt lat="59.9742668" lon="17.7327035">
        <ele>11.1925</ele>
        <time>2012-10-05T20:19:04Z</time>
      </trkpt>
      <trkpt lat="59.9742639" lon="17.7327492">
        <ele>10.2312</ele>
        <time>2012-10-05T20:19:05Z</time>
      </trkpt>
      <trkpt lat="59.9742629" lon="17.7327933">
        <ele>10.2312</ele>
        <time>2012-10-05T20:19:06Z</time>
      </trkpt>
      <trkpt lat="59.9742636" lon="17.7328408">
        <ele>10.2312</ele>
        <time>2012-10-05T20:19:07Z</time>
      </trkpt>
      <trkpt lat="59.9742621" lon="17.7328873">
        <ele>9.75061</ele>
        <time>2012-10-05T20:19:08Z</time>
      </trkpt>
      <trkpt lat="59.9742596" lon="17.7329282">
        <ele>9.2699</ele>
        <time>2012-10-05T20:19:09Z</time>
      </trkpt>
      <trkpt lat="59.9742596" lon="17.7329776">
        <ele>9.75061</ele>
        <time>2012-10-05T20:19:10Z</time>
      </trkpt>
      <trkpt lat="59.9742574" lon="17.7330227">
        <ele>9.2699</ele>
        <time>2012-10-05T20:19:11Z</time>
      </trkpt>
      <trkpt lat="59.9742544" lon="17.7330646">
        <ele>9.2699</ele>
        <time>2012-10-05T20:19:12Z</time>
      </trkpt>
      <trkpt lat="59.9742496" lon="17.7331119">
        <ele>8.78918</ele>
        <time>2012-10-05T20:19:13Z</time>
      </trkpt>
      <trkpt lat="59.9742454" lon="17.733158">
        <ele>8.30859</ele>
        <time>2012-10-05T20:19:14Z</time>
      </trkpt>
      <trkpt lat="59.9742451" lon="17.7332064">
        <ele>8.30859</ele>
        <time>2012-10-05T20:19:15Z</time>
      </trkpt>
      <trkpt lat="59.9742399" lon="17.733252">
        <ele>7.82788</ele>
        <time>2012-10-05T20:19:16Z</time>
      </trkpt>
      <trkpt lat="59.9742419" lon="17.7333115">
        <ele>7.82788</ele>
        <time>2012-10-05T20:19:17Z</time>
      </trkpt>
      <trkpt lat="59.974244" lon="17.7333628">
        <ele>7.82788</ele>
        <time>2012-10-05T20:19:18Z</time>
      </trkpt>
      <trkpt lat="59.9742428" lon="17.7334094">
        <ele>7.82788</ele>
        <time>2012-10-05T20:19:19Z</time>
      </trkpt>
      <trkpt lat="59.9742398" lon="17.7334557">
        <ele>7.34717</ele>
        <time>2012-10-05T20:19:20Z</time>
      </trkpt>
      <trkpt lat="59.9742375" lon="17.733506">
        <ele>7.82788</ele>
        <time>2012-10-05T20:19:21Z</time>
      </trkpt>
      <trkpt lat="59.9742362" lon="17.7335541">
        <ele>7.82788</ele>
        <time>2012-10-05T20:19:22Z</time>
      </trkpt>
      <trkpt lat="59.9742362" lon="17.7335971">
        <ele>7.82788</ele>
        <time>2012-10-05T20:19:23Z</time>
      </trkpt>
      <trkpt lat="59.9742352" lon="17.7336452">
        <ele>7.82788</ele>
        <time>2012-10-05T20:19:24Z</time>
      </trkpt>
      <trkpt lat="59.974232" lon="17.7336946">
        <ele>7.82788</ele>
        <time>2012-10-05T20:19:25Z</time>
      </trkpt>
      <trkpt lat="59.9742301" lon="17.7337456">
        <ele>7.82788</ele>
        <time>2012-10-05T20:19:26Z</time>
      </trkpt>
      <trkpt lat="59.974227" lon="17.7337955">
        <ele>7.82788</ele>
        <time>2012-10-05T20:19:27Z</time>
      </trkpt>
      <trkpt lat="59.9742268" lon="17.7338412">
        <ele>7.82788</ele>
        <time>2012-10-05T20:19:28Z</time>
      </trkpt>
      <trkpt lat="59.9742241" lon="17.7338873">
        <ele>7.82788</ele>
        <time>2012-10-05T20:19:29Z</time>
      </trkpt>
      <trkpt lat="59.974218" lon="17.7339331">
        <ele>7.34717</ele>
        <time>2012-10-05T20:19:30Z</time>
      </trkpt>
      <trkpt lat="59.9742164" lon="17.7339803">
        <ele>7.34717</ele>
        <time>2012-10-05T20:19:31Z</time>
      </trkpt>
      <trkpt lat="59.974214" lon="17.7340295">
        <ele>7.34717</ele>
        <time>2012-10-05T20:19:32Z</time>
      </trkpt>
      <trkpt lat="59.9742068" lon="17.7340788">
        <ele>7.34717</ele>
        <time>2012-10-05T20:19:33Z</time>
      </trkpt>
      <trkpt lat="59.9742044" lon="17.7341256">
        <ele>7.34717</ele>
        <time>2012-10-05T20:19:34Z</time>
      </trkpt>
      <trkpt lat="59.9742031" lon="17.7341719">
        <ele>7.34717</ele>
        <time>2012-10-05T20:19:35Z</time>
      </trkpt>
      <trkpt lat="59.9742005" lon="17.7342182">
        <ele>7.34717</ele>
        <time>2012-10-05T20:19:36Z</time>
      </trkpt>
      <trkpt lat="59.9742003" lon="17.7342615">
        <ele>7.82788</ele>
        <time>2012-10-05T20:19:37Z</time>
      </trkpt>
      <trkpt lat="59.9741994" lon="17.7343078">
        <ele>7.82788</ele>
        <time>2012-10-05T20:19:38Z</time>
      </trkpt>
      <trkpt lat="59.9741988" lon="17.7343582">
        <ele>7.82788</ele>
        <time>2012-10-05T20:19:39Z</time>
      </trkpt>
      <trkpt lat="59.9741989" lon="17.7344069">
        <ele>7.82788</ele>
        <time>2012-10-05T20:19:40Z</time>
      </trkpt>
      <trkpt lat="59.9741973" lon="17.734456">
        <ele>7.82788</ele>
        <time>2012-10-05T20:19:41Z</time>
      </trkpt>
      <trkpt lat="59.9741967" lon="17.7345052">
        <ele>7.82788</ele>
        <time>2012-10-05T20:19:42Z</time>
      </trkpt>
      <trkpt lat="59.9742002" lon="17.7345503">
        <ele>8.30859</ele>
        <time>2012-10-05T20:19:43Z</time>
      </trkpt>
      <trkpt lat="59.974202" lon="17.7345995">
        <ele>8.30859</ele>
        <time>2012-10-05T20:19:44Z</time>
      </trkpt>
      <trkpt lat="59.9742047" lon="17.7346506">
        <ele>8.30859</ele>
        <time>2012-10-05T20:19:45Z</time>
      </trkpt>
      <trkpt lat="59.9742108" lon="17.7346969">
        <ele>8.78918</ele>
        <time>2012-10-05T20:19:46Z</time>
      </trkpt>
      <trkpt lat="59.9742103" lon="17.734741">
        <ele>8.78918</ele>
        <time>2012-10-05T20:19:47Z</time>
      </trkpt>
      <trkpt lat="59.9742083" lon="17.7347885">
        <ele>8.78918</ele>
        <time>2012-10-05T20:19:48Z</time>
      </trkpt>
      <trkpt lat="59.9742126" lon="17.7348388">
        <ele>9.2699</ele>
        <time>2012-10-05T20:19:49Z</time>
      </trkpt>
      <trkpt lat="59.9742155" lon="17.734888">
        <ele>9.2699</ele>
        <time>2012-10-05T20:19:50Z</time>
      </trkpt>
      <trkpt lat="59.9742145" lon="17.7349309">
        <ele>8.78918</ele>
        <time>2012-10-05T20:19:51Z</time>
      </trkpt>
      <trkpt lat="59.9742165" lon="17.7349723">
        <ele>8.78918</ele>
        <time>2012-10-05T20:19:52Z</time>
      </trkpt>
      <trkpt lat="59.9742225" lon="17.7350326">
        <ele>9.2699</ele>
        <time>2012-10-05T20:19:53Z</time>
      </trkpt>
      <trkpt lat="59.9742264" lon="17.7350844">
        <ele>9.2699</ele>
        <time>2012-10-05T20:19:54Z</time>
      </trkpt>
      <trkpt lat="59.9742321" lon="17.7351297">
        <ele>9.2699</ele>
        <time>2012-10-05T20:19:55Z</time>
      </trkpt>
      <trkpt lat="59.9742396" lon="17.7351869">
        <ele>9.75061</ele>
        <time>2012-10-05T20:19:56Z</time>
      </trkpt>
      <trkpt lat="59.9742455" lon="17.7352392">
        <ele>9.75061</ele>
        <time>2012-10-05T20:19:57Z</time>
      </trkpt>
      <trkpt lat="59.9742522" lon="17.7352898">
        <ele>10.7118</ele>
        <time>2012-10-05T20:19:58Z</time>
      </trkpt>
      <trkpt lat="59.9742538" lon="17.7353362">
        <ele>10.7118</ele>
        <time>2012-10-05T20:19:59Z</time>
      </trkpt>
      <trkpt lat="59.9742567" lon="17.7353807">
        <ele>10.7118</ele>
        <time>2012-10-05T20:20:00Z</time>
      </trkpt>
      <trkpt lat="59.9742636" lon="17.7354375">
        <ele>11.1925</ele>
        <time>2012-10-05T20:20:01Z</time>
      </trkpt>
      <trkpt lat="59.9742698" lon="17.7354911">
        <ele>11.6732</ele>
        <time>2012-10-05T20:20:02Z</time>
      </trkpt>
      <trkpt lat="59.9742766" lon="17.7355395">
        <ele>11.6732</ele>
        <time>2012-10-05T20:20:03Z</time>
      </trkpt>
      <trkpt lat="59.9742828" lon="17.735593">
        <ele>11.6732</ele>
        <time>2012-10-05T20:20:04Z</time>
      </trkpt>
      <trkpt lat="59.97429" lon="17.73565">
        <ele>12.1538</ele>
        <time>2012-10-05T20:20:05Z</time>
      </trkpt>
      <trkpt lat="59.9742963" lon="17.7357032">
        <ele>12.6344</ele>
        <time>2012-10-05T20:20:06Z</time>
      </trkpt>
      <trkpt lat="59.9743045" lon="17.735756">
        <ele>13.1151</ele>
        <time>2012-10-05T20:20:07Z</time>
      </trkpt>
      <trkpt lat="59.9743127" lon="17.7358057">
        <ele>13.5958</ele>
        <time>2012-10-05T20:20:08Z</time>
      </trkpt>
      <trkpt lat="59.9743199" lon="17.7358532">
        <ele>14.0764</ele>
        <time>2012-10-05T20:20:09Z</time>
      </trkpt>
      <trkpt lat="59.9743266" lon="17.7358992">
        <ele>14.0764</ele>
        <time>2012-10-05T20:20:10Z</time>
      </trkpt>
      <trkpt lat="59.9743356" lon="17.735944">
        <ele>14.557</ele>
        <time>2012-10-05T20:20:11Z</time>
      </trkpt>
      <trkpt lat="59.9743438" lon="17.7359912">
        <ele>14.0764</ele>
        <time>2012-10-05T20:20:12Z</time>
      </trkpt>
      <trkpt lat="59.9743512" lon="17.7360328">
        <ele>14.0764</ele>
        <time>2012-10-05T20:20:13Z</time>
      </trkpt>
      <trkpt lat="59.974361" lon="17.7360754">
        <ele>14.0764</ele>
        <time>2012-10-05T20:20:14Z</time>
      </trkpt>
      <trkpt lat="59.9743688" lon="17.7361212">
        <ele>14.0764</ele>
        <time>2012-10-05T20:20:15Z</time>
      </trkpt>
      <trkpt lat="59.9743779" lon="17.736168">
        <ele>14.557</ele>
        <time>2012-10-05T20:20:16Z</time>
      </trkpt>
      <trkpt lat="59.9743895" lon="17.7362178">
        <ele>15.0377</ele>
        <time>2012-10-05T20:20:17Z</time>
      </trkpt>
      <trkpt lat="59.9743981" lon="17.7362605">
        <ele>15.0377</ele>
        <time>2012-10-05T20:20:18Z</time>
      </trkpt>
      <trkpt lat="59.9744092" lon="17.7362979">
        <ele>15.0377</ele>
        <time>2012-10-05T20:20:19Z</time>
      </trkpt>
      <trkpt lat="59.9744227" lon="17.7363406">
        <ele>15.0377</ele>
        <time>2012-10-05T20:20:20Z</time>
      </trkpt>
      <trkpt lat="59.9744386" lon="17.7363836">
        <ele>15.5184</ele>
        <time>2012-10-05T20:20:21Z</time>
      </trkpt>
      <trkpt lat="59.974458" lon="17.7364239">
        <ele>15.5184</ele>
        <time>2012-10-05T20:20:22Z</time>
      </trkpt>
      <trkpt lat="59.9744759" lon="17.7364689">
        <ele>15.999</ele>
        <time>2012-10-05T20:20:23Z</time>
      </trkpt>
      <trkpt lat="59.97449" lon="17.7365084">
        <ele>16.4797</ele>
        <time>2012-10-05T20:20:24Z</time>
      </trkpt>
      <trkpt lat="59.9745015" lon="17.7365488">
        <ele>16.9604</ele>
        <time>2012-10-05T20:20:25Z</time>
      </trkpt>
      <trkpt lat="59.9745132" lon="17.7365949">
        <ele>16.9604</ele>
        <time>2012-10-05T20:20:26Z</time>
      </trkpt>
      <trkpt lat="59.9745257" lon="17.7366362">
        <ele>17.4412</ele>
        <time>2012-10-05T20:20:27Z</time>
      </trkpt>
      <trkpt lat="59.9745435" lon="17.7366788">
        <ele>17.9218</ele>
        <time>2012-10-05T20:20:28Z</time>
      </trkpt>
      <trkpt lat="59.9745614" lon="17.7367237">
        <ele>18.4023</ele>
        <time>2012-10-05T20:20:29Z</time>
      </trkpt>
      <trkpt lat="59.9745745" lon="17.7367628">
        <ele>18.4023</ele>
        <time>2012-10-05T20:20:30Z</time>
      </trkpt>
      <trkpt lat="59.9745906" lon="17.7368041">
        <ele>18.8831</ele>
        <time>2012-10-05T20:20:31Z</time>
      </trkpt>
      <trkpt lat="59.9746095" lon="17.7368497">
        <ele>18.8831</ele>
        <time>2012-10-05T20:20:32Z</time>
      </trkpt>
      <trkpt lat="59.9746286" lon="17.7368932">
        <ele>18.8831</ele>
        <time>2012-10-05T20:20:33Z</time>
      </trkpt>
      <trkpt lat="59.9746455" lon="17.7369337">
        <ele>19.3638</ele>
        <time>2012-10-05T20:20:34Z</time>
      </trkpt>
      <trkpt lat="59.9746594" lon="17.7369709">
        <ele>19.3638</ele>
        <time>2012-10-05T20:20:35Z</time>
      </trkpt>
      <trkpt lat="59.9746784" lon="17.7370111">
        <ele>20.325</ele>
        <time>2012-10-05T20:20:36Z</time>
      </trkpt>
      <trkpt lat="59.9746977" lon="17.7370527">
        <ele>20.8057</ele>
        <time>2012-10-05T20:20:37Z</time>
      </trkpt>
      <trkpt lat="59.9747182" lon="17.7370974">
        <ele>21.767</ele>
        <time>2012-10-05T20:20:38Z</time>
      </trkpt>
      <trkpt lat="59.974735" lon="17.7371383">
        <ele>21.767</ele>
        <time>2012-10-05T20:20:39Z</time>
      </trkpt>
      <trkpt lat="59.9747516" lon="17.7371829">
        <ele>22.2476</ele>
        <time>2012-10-05T20:20:40Z</time>
      </trkpt>
      <trkpt lat="59.9747701" lon="17.737227">
        <ele>22.7283</ele>
        <time>2012-10-05T20:20:41Z</time>
      </trkpt>
      <trkpt lat="59.9747893" lon="17.7372652">
        <ele>23.209</ele>
        <time>2012-10-05T20:20:42Z</time>
      </trkpt>
      <trkpt lat="59.9748071" lon="17.7373086">
        <ele>23.6896</ele>
        <time>2012-10-05T20:20:43Z</time>
      </trkpt>
      <trkpt lat="59.9748251" lon="17.7373506">
        <ele>24.651</ele>
        <time>2012-10-05T20:20:44Z</time>
      </trkpt>
      <trkpt lat="59.9748469" lon="17.7373893">
        <ele>25.1317</ele>
        <time>2012-10-05T20:20:45Z</time>
      </trkpt>
      <trkpt lat="59.97487" lon="17.7374281">
        <ele>25.6123</ele>
        <time>2012-10-05T20:20:46Z</time>
      </trkpt>
      <trkpt lat="59.9748915" lon="17.7374624">
        <ele>26.0929</ele>
        <time>2012-10-05T20:20:47Z</time>
      </trkpt>
      <trkpt lat="59.9749146" lon="17.737497">
        <ele>26.5736</ele>
        <time>2012-10-05T20:20:48Z</time>
      </trkpt>
      <trkpt lat="59.9749371" lon="17.7375347">
        <ele>27.0543</ele>
        <time>2012-10-05T20:20:49Z</time>
      </trkpt>
      <trkpt lat="59.9749593" lon="17.7375718">
        <ele>28.0155</ele>
        <time>2012-10-05T20:20:50Z</time>
      </trkpt>
      <trkpt lat="59.9749801" lon="17.7376091">
        <ele>28.4962</ele>
        <time>2012-10-05T20:20:51Z</time>
      </trkpt>
      <trkpt lat="59.9749976" lon="17.7376452">
        <ele>28.9769</ele>
        <time>2012-10-05T20:20:52Z</time>
      </trkpt>
      <trkpt lat="59.9750157" lon="17.7376792">
        <ele>28.9769</ele>
        <time>2012-10-05T20:20:53Z</time>
      </trkpt>
      <trkpt lat="59.9750392" lon="17.7377179">
        <ele>29.9381</ele>
        <time>2012-10-05T20:20:54Z</time>
      </trkpt>
      <trkpt lat="59.9750558" lon="17.7377545">
        <ele>30.4188</ele>
        <time>2012-10-05T20:20:55Z</time>
      </trkpt>
      <trkpt lat="59.9750748" lon="17.7377903">
        <ele>30.8995</ele>
        <time>2012-10-05T20:20:56Z</time>
      </trkpt>
      <trkpt lat="59.975095" lon="17.737827">
        <ele>30.8995</ele>
        <time>2012-10-05T20:20:57Z</time>
      </trkpt>
      <trkpt lat="59.9751136" lon="17.7378651">
        <ele>31.3801</ele>
        <time>2012-10-05T20:20:58Z</time>
      </trkpt>
      <trkpt lat="59.9751327" lon="17.7379043">
        <ele>32.3416</ele>
        <time>2012-10-05T20:20:59Z</time>
      </trkpt>
      <trkpt lat="59.9751546" lon="17.73794">
        <ele>32.3416</ele>
        <time>2012-10-05T20:21:00Z</time>
      </trkpt>
      <trkpt lat="59.9751772" lon="17.7379731">
        <ele>32.3416</ele>
        <time>2012-10-05T20:21:01Z</time>
      </trkpt>
      <trkpt lat="59.9751998" lon="17.7380085">
        <ele>32.8223</ele>
        <time>2012-10-05T20:21:02Z</time>
      </trkpt>
      <trkpt lat="59.9752213" lon="17.7380411">
        <ele>33.3029</ele>
        <time>2012-10-05T20:21:03Z</time>
      </trkpt>
      <trkpt lat="59.9752416" lon="17.7380691">
        <ele>33.7834</ele>
        <time>2012-10-05T20:21:04Z</time>
      </trkpt>
      <trkpt lat="59.975264" lon="17.7381007">
        <ele>34.2642</ele>
        <time>2012-10-05T20:21:05Z</time>
      </trkpt>
      <trkpt lat="59.9752829" lon="17.7381335">
        <ele>34.7449</ele>
        <time>2012-10-05T20:21:06Z</time>
      </trkpt>
      <trkpt lat="59.9753026" lon="17.7381638">
        <ele>35.2255</ele>
        <time>2012-10-05T20:21:07Z</time>
      </trkpt>
      <trkpt lat="59.9753202" lon="17.7382012">
        <ele>35.2255</ele>
        <time>2012-10-05T20:21:08Z</time>
      </trkpt>
      <trkpt lat="59.9753391" lon="17.738239">
        <ele>35.7061</ele>
        <time>2012-10-05T20:21:09Z</time>
      </trkpt>
      <trkpt lat="59.9753634" lon="17.7382694">
        <ele>36.1868</ele>
        <time>2012-10-05T20:21:10Z</time>
      </trkpt>
      <trkpt lat="59.9753835" lon="17.7382991">
        <ele>36.6675</ele>
        <time>2012-10-05T20:21:11Z</time>
      </trkpt>
      <trkpt lat="59.9753961" lon="17.7383307">
        <ele>37.1481</ele>
        <time>2012-10-05T20:21:12Z</time>
      </trkpt>
      <trkpt lat="59.9754126" lon="17.7383661">
        <ele>37.1481</ele>
        <time>2012-10-05T20:21:13Z</time>
      </trkpt>
      <trkpt lat="59.9754369" lon="17.7384012">
        <ele>37.6287</ele>
        <time>2012-10-05T20:21:14Z</time>
      </trkpt>
      <trkpt lat="59.9754622" lon="17.7384291">
        <ele>37.6287</ele>
        <time>2012-10-05T20:21:15Z</time>
      </trkpt>
      <trkpt lat="59.9754856" lon="17.73846">
        <ele>38.1094</ele>
        <time>2012-10-05T20:21:16Z</time>
      </trkpt>
      <trkpt lat="59.9755048" lon="17.7384912">
        <ele>38.1094</ele>
        <time>2012-10-05T20:21:17Z</time>
      </trkpt>
      <trkpt lat="59.9755212" lon="17.7385177">
        <ele>38.1094</ele>
        <time>2012-10-05T20:21:18Z</time>
      </trkpt>
      <trkpt lat="59.9755375" lon="17.7385473">
        <ele>38.5901</ele>
        <time>2012-10-05T20:21:19Z</time>
      </trkpt>
      <trkpt lat="59.9755586" lon="17.7385825">
        <ele>38.5901</ele>
        <time>2012-10-05T20:21:20Z</time>
      </trkpt>
      <trkpt lat="59.9755767" lon="17.7386178">
        <ele>38.5901</ele>
        <time>2012-10-05T20:21:21Z</time>
      </trkpt>
      <trkpt lat="59.9755954" lon="17.7386461">
        <ele>39.0707</ele>
        <time>2012-10-05T20:21:22Z</time>
      </trkpt>
      <trkpt lat="59.9756166" lon="17.7386755">
        <ele>39.0707</ele>
        <time>2012-10-05T20:21:23Z</time>
      </trkpt>
      <trkpt lat="59.9756369" lon="17.7387006">
        <ele>39.0707</ele>
        <time>2012-10-05T20:21:24Z</time>
      </trkpt>
      <trkpt lat="59.9756564" lon="17.7387242">
        <ele>39.0707</ele>
        <time>2012-10-05T20:21:25Z</time>
      </trkpt>
      <trkpt lat="59.975675" lon="17.7387555">
        <ele>39.0707</ele>
        <time>2012-10-05T20:21:26Z</time>
      </trkpt>
      <trkpt lat="59.975694" lon="17.7387854">
        <ele>38.5901</ele>
        <time>2012-10-05T20:21:27Z</time>
      </trkpt>
      <trkpt lat="59.9757125" lon="17.7388105">
        <ele>39.0707</ele>
        <time>2012-10-05T20:21:28Z</time>
      </trkpt>
      <trkpt lat="59.9757292" lon="17.7388424">
        <ele>38.5901</ele>
        <time>2012-10-05T20:21:29Z</time>
      </trkpt>
      <trkpt lat="59.9757467" lon="17.7388762">
        <ele>38.5901</ele>
        <time>2012-10-05T20:21:30Z</time>
      </trkpt>
      <trkpt lat="59.9757637" lon="17.7389081">
        <ele>38.1094</ele>
        <time>2012-10-05T20:21:31Z</time>
      </trkpt>
      <trkpt lat="59.9757784" lon="17.7389428">
        <ele>37.6287</ele>
        <time>2012-10-05T20:21:32Z</time>
      </trkpt>
      <trkpt lat="59.9757965" lon="17.7389775">
        <ele>37.1481</ele>
        <time>2012-10-05T20:21:33Z</time>
      </trkpt>
      <trkpt lat="59.9758145" lon="17.7390114">
        <ele>36.6675</ele>
        <time>2012-10-05T20:21:34Z</time>
      </trkpt>
      <trkpt lat="59.9758331" lon="17.7390471">
        <ele>36.6675</ele>
        <time>2012-10-05T20:21:35Z</time>
      </trkpt>
      <trkpt lat="59.975855" lon="17.7390844">
        <ele>36.6675</ele>
        <time>2012-10-05T20:21:36Z</time>
      </trkpt>
      <trkpt lat="59.9758756" lon="17.7391244">
        <ele>36.1868</ele>
        <time>2012-10-05T20:21:37Z</time>
      </trkpt>
      <trkpt lat="59.9758953" lon="17.7391631">
        <ele>36.1868</ele>
        <time>2012-10-05T20:21:38Z</time>
      </trkpt>
      <trkpt lat="59.9759164" lon="17.7391994">
        <ele>36.1868</ele>
        <time>2012-10-05T20:21:39Z</time>
      </trkpt>
      <trkpt lat="59.9759395" lon="17.7392357">
        <ele>36.1868</ele>
        <time>2012-10-05T20:21:40Z</time>
      </trkpt>
      <trkpt lat="59.9759602" lon="17.7392646">
        <ele>36.1868</ele>
        <time>2012-10-05T20:21:41Z</time>
      </trkpt>
      <trkpt lat="59.9759803" lon="17.7392912">
        <ele>36.6675</ele>
        <time>2012-10-05T20:21:42Z</time>
      </trkpt>
      <trkpt lat="59.9759977" lon="17.739317">
        <ele>36.1868</ele>
        <time>2012-10-05T20:21:43Z</time>
      </trkpt>
      <trkpt lat="59.9760202" lon="17.739341">
        <ele>37.1481</ele>
        <time>2012-10-05T20:21:44Z</time>
      </trkpt>
      <trkpt lat="59.9760419" lon="17.7393724">
        <ele>37.1481</ele>
        <time>2012-10-05T20:21:45Z</time>
      </trkpt>
      <trkpt lat="59.9760622" lon="17.7394051">
        <ele>37.1481</ele>
        <time>2012-10-05T20:21:46Z</time>
      </trkpt>
      <trkpt lat="59.9760813" lon="17.7394371">
        <ele>37.1481</ele>
        <time>2012-10-05T20:21:47Z</time>
      </trkpt>
      <trkpt lat="59.9761005" lon="17.7394736">
        <ele>38.1094</ele>
        <time>2012-10-05T20:21:48Z</time>
      </trkpt>
      <trkpt lat="59.976121" lon="17.739507">
        <ele>38.1094</ele>
        <time>2012-10-05T20:21:49Z</time>
      </trkpt>
      <trkpt lat="59.9761413" lon="17.7395408">
        <ele>38.5901</ele>
        <time>2012-10-05T20:21:50Z</time>
      </trkpt>
      <trkpt lat="59.9761598" lon="17.7395798">
        <ele>38.5901</ele>
        <time>2012-10-05T20:21:51Z</time>
      </trkpt>
      <trkpt lat="59.9761775" lon="17.7396148">
        <ele>38.5901</ele>
        <time>2012-10-05T20:21:52Z</time>
      </trkpt>
      <trkpt lat="59.9761959" lon="17.7396517">
        <ele>39.0707</ele>
        <time>2012-10-05T20:21:53Z</time>
      </trkpt>
      <trkpt lat="59.9762163" lon="17.7396945">
        <ele>39.0707</ele>
        <time>2012-10-05T20:21:54Z</time>
      </trkpt>
      <trkpt lat="59.9762378" lon="17.7397356">
        <ele>39.5513</ele>
        <time>2012-10-05T20:21:55Z</time>
      </trkpt>
      <trkpt lat="59.9762565" lon="17.7397748">
        <ele>39.5513</ele>
        <time>2012-10-05T20:21:56Z</time>
      </trkpt>
      <trkpt lat="59.976274" lon="17.7398072">
        <ele>40.0321</ele>
        <time>2012-10-05T20:21:57Z</time>
      </trkpt>
      <trkpt lat="59.9762942" lon="17.7398348">
        <ele>40.0321</ele>
        <time>2012-10-05T20:21:58Z</time>
      </trkpt>
      <trkpt lat="59.9763179" lon="17.739863">
        <ele>40.0321</ele>
        <time>2012-10-05T20:21:59Z</time>
      </trkpt>
      <trkpt lat="59.9763417" lon="17.7398877">
        <ele>40.5128</ele>
        <time>2012-10-05T20:22:00Z</time>
      </trkpt>
      <trkpt lat="59.9763634" lon="17.7399153">
        <ele>41.474</ele>
        <time>2012-10-05T20:22:01Z</time>
      </trkpt>
      <trkpt lat="59.9763879" lon="17.7399422">
        <ele>41.9547</ele>
        <time>2012-10-05T20:22:02Z</time>
      </trkpt>
      <trkpt lat="59.9764142" lon="17.7399645">
        <ele>42.4354</ele>
        <time>2012-10-05T20:22:03Z</time>
      </trkpt>
      <trkpt lat="59.9764417" lon="17.7399858">
        <ele>42.916</ele>
        <time>2012-10-05T20:22:04Z</time>
      </trkpt>
      <trkpt lat="59.976462" lon="17.7399978">
        <ele>42.916</ele>
        <time>2012-10-05T20:22:05Z</time>
      </trkpt>
      <trkpt lat="59.9764826" lon="17.7399956">
        <ele>43.8773</ele>
        <time>2012-10-05T20:22:06Z</time>
      </trkpt>
      <trkpt lat="59.9764854" lon="17.7399854">
        <ele>41.474</ele>
        <time>2012-10-05T20:22:07Z</time>
      </trkpt>
      <trkpt lat="59.976489" lon="17.7399711">
        <ele>39.5513</ele>
        <time>2012-10-05T20:22:08Z</time>
      </trkpt>
      <trkpt lat="59.9764917" lon="17.7399438">
        <ele>37.6287</ele>
        <time>2012-10-05T20:22:09Z</time>
      </trkpt>
      <trkpt lat="59.9764987" lon="17.7399096">
        <ele>35.7061</ele>
        <time>2012-10-05T20:22:10Z</time>
      </trkpt>
      <trkpt lat="59.9765078" lon="17.7398779">
        <ele>34.2642</ele>
        <time>2012-10-05T20:22:11Z</time>
      </trkpt>
      <trkpt lat="59.9765216" lon="17.7398573">
        <ele>32.3416</ele>
        <time>2012-10-05T20:22:12Z</time>
      </trkpt>
      <trkpt lat="59.9765398" lon="17.7398291">
        <ele>32.8223</ele>
        <time>2012-10-05T20:22:13Z</time>
      </trkpt>
      <trkpt lat="59.9765491" lon="17.7397996">
        <ele>32.3416</ele>
        <time>2012-10-05T20:22:14Z</time>
      </trkpt>
      <trkpt lat="59.9765615" lon="17.7397693">
        <ele>31.8607</ele>
        <time>2012-10-05T20:22:15Z</time>
      </trkpt>
      <trkpt lat="59.976578" lon="17.7397371">
        <ele>31.3801</ele>
        <time>2012-10-05T20:22:16Z</time>
      </trkpt>
      <trkpt lat="59.9766035" lon="17.7397111">
        <ele>30.8995</ele>
        <time>2012-10-05T20:22:17Z</time>
      </trkpt>
      <trkpt lat="59.9766298" lon="17.739682">
        <ele>30.4188</ele>
        <time>2012-10-05T20:22:18Z</time>
      </trkpt>
      <trkpt lat="59.9766518" lon="17.7396521">
        <ele>29.9381</ele>
        <time>2012-10-05T20:22:19Z</time>
      </trkpt>
      <trkpt lat="59.9766713" lon="17.7396261">
        <ele>28.9769</ele>
        <time>2012-10-05T20:22:20Z</time>
      </trkpt>
      <trkpt lat="59.9766916" lon="17.7396024">
        <ele>27.5349</ele>
        <time>2012-10-05T20:22:21Z</time>
      </trkpt>
      <trkpt lat="59.9767103" lon="17.7395776">
        <ele>27.0543</ele>
        <time>2012-10-05T20:22:22Z</time>
      </trkpt>
      <trkpt lat="59.9767264" lon="17.7395538">
        <ele>25.6123</ele>
        <time>2012-10-05T20:22:23Z</time>
      </trkpt>
      <trkpt lat="59.9767436" lon="17.7395342">
        <ele>24.651</ele>
        <time>2012-10-05T20:22:24Z</time>
      </trkpt>
      <trkpt lat="59.9767656" lon="17.7395186">
        <ele>23.6896</ele>
        <time>2012-10-05T20:22:25Z</time>
      </trkpt>
      <trkpt lat="59.9767894" lon="17.7395051">
        <ele>22.7283</ele>
        <time>2012-10-05T20:22:26Z</time>
      </trkpt>
      <trkpt lat="59.9768055" lon="17.7394838">
        <ele>23.209</ele>
        <time>2012-10-05T20:22:27Z</time>
      </trkpt>
      <trkpt lat="59.9768276" lon="17.7394671">
        <ele>23.6896</ele>
        <time>2012-10-05T20:22:28Z</time>
      </trkpt>
      <trkpt lat="59.976853" lon="17.7394487">
        <ele>24.651</ele>
        <time>2012-10-05T20:22:29Z</time>
      </trkpt>
      <trkpt lat="59.9768755" lon="17.739432">
        <ele>25.1317</ele>
        <time>2012-10-05T20:22:30Z</time>
      </trkpt>
      <trkpt lat="59.9768956" lon="17.7394189">
        <ele>25.1317</ele>
        <time>2012-10-05T20:22:31Z</time>
      </trkpt>
      <trkpt lat="59.9769209" lon="17.739403">
        <ele>26.0929</ele>
        <time>2012-10-05T20:22:32Z</time>
      </trkpt>
      <trkpt lat="59.9769474" lon="17.7393942">
        <ele>25.6123</ele>
        <time>2012-10-05T20:22:33Z</time>
      </trkpt>
      <trkpt lat="59.9769661" lon="17.7393831">
        <ele>25.1317</ele>
        <time>2012-10-05T20:22:34Z</time>
      </trkpt>
      <trkpt lat="59.9769832" lon="17.7393673">
        <ele>25.1317</ele>
        <time>2012-10-05T20:22:35Z</time>
      </trkpt>
      <trkpt lat="59.9769986" lon="17.7393524">
        <ele>24.651</ele>
        <time>2012-10-05T20:22:36Z</time>
      </trkpt>
      <trkpt lat="59.977012" lon="17.7393351">
        <ele>24.1703</ele>
        <time>2012-10-05T20:22:37Z</time>
      </trkpt>
      <trkpt lat="59.9770327" lon="17.7393187">
        <ele>23.6896</ele>
        <time>2012-10-05T20:22:38Z</time>
      </trkpt>
      <trkpt lat="59.977051" lon="17.7393015">
        <ele>24.1703</ele>
        <time>2012-10-05T20:22:39Z</time>
      </trkpt>
      <trkpt lat="59.9770664" lon="17.7392859">
        <ele>24.1703</ele>
        <time>2012-10-05T20:22:40Z</time>
      </trkpt>
      <trkpt lat="59.9770877" lon="17.7392731">
        <ele>24.1703</ele>
        <time>2012-10-05T20:22:41Z</time>
      </trkpt>
      <trkpt lat="59.9771132" lon="17.7392569">
        <ele>25.1317</ele>
        <time>2012-10-05T20:22:42Z</time>
      </trkpt>
      <trkpt lat="59.9771343" lon="17.7392403">
        <ele>25.1317</ele>
        <time>2012-10-05T20:22:43Z</time>
      </trkpt>
      <trkpt lat="59.9771549" lon="17.739219">
        <ele>25.6123</ele>
        <time>2012-10-05T20:22:44Z</time>
      </trkpt>
      <trkpt lat="59.9771798" lon="17.7392006">
        <ele>25.1317</ele>
        <time>2012-10-05T20:22:45Z</time>
      </trkpt>
      <trkpt lat="59.9772054" lon="17.7391855">
        <ele>25.6123</ele>
        <time>2012-10-05T20:22:46Z</time>
      </trkpt>
      <trkpt lat="59.9772313" lon="17.73917">
        <ele>26.0929</ele>
        <time>2012-10-05T20:22:47Z</time>
      </trkpt>
      <trkpt lat="59.9772577" lon="17.7391559">
        <ele>26.5736</ele>
        <time>2012-10-05T20:22:48Z</time>
      </trkpt>
      <trkpt lat="59.9772753" lon="17.7391353">
        <ele>26.0929</ele>
        <time>2012-10-05T20:22:49Z</time>
      </trkpt>
      <trkpt lat="59.9772961" lon="17.7391196">
        <ele>26.0929</ele>
        <time>2012-10-05T20:22:50Z</time>
      </trkpt>
      <trkpt lat="59.9773199" lon="17.7391082">
        <ele>26.5736</ele>
        <time>2012-10-05T20:22:51Z</time>
      </trkpt>
      <trkpt lat="59.9773416" lon="17.7390974">
        <ele>26.5736</ele>
        <time>2012-10-05T20:22:52Z</time>
      </trkpt>
      <trkpt lat="59.9773632" lon="17.7390899">
        <ele>27.0543</ele>
        <time>2012-10-05T20:22:53Z</time>
      </trkpt>
      <trkpt lat="59.9773787" lon="17.7390824">
        <ele>27.0543</ele>
        <time>2012-10-05T20:22:54Z</time>
      </trkpt>
      <trkpt lat="59.977396" lon="17.7390736">
        <ele>27.5349</ele>
        <time>2012-10-05T20:22:55Z</time>
      </trkpt>
      <trkpt lat="59.9774134" lon="17.7390625">
        <ele>28.0155</ele>
        <time>2012-10-05T20:22:56Z</time>
      </trkpt>
      <trkpt lat="59.9774307" lon="17.7390495">
        <ele>28.4962</ele>
        <time>2012-10-05T20:22:57Z</time>
      </trkpt>
      <trkpt lat="59.9774469" lon="17.7390351">
        <ele>29.4575</ele>
        <time>2012-10-05T20:22:58Z</time>
      </trkpt>
      <trkpt lat="59.9774616" lon="17.7390205">
        <ele>28.9769</ele>
        <time>2012-10-05T20:22:59Z</time>
      </trkpt>
      <trkpt lat="59.977478" lon="17.7390114">
        <ele>28.9769</ele>
        <time>2012-10-05T20:23:00Z</time>
      </trkpt>
      <trkpt lat="59.9774965" lon="17.7390029">
        <ele>28.9769</ele>
        <time>2012-10-05T20:23:01Z</time>
      </trkpt>
      <trkpt lat="59.9775155" lon="17.7390005">
        <ele>29.4575</ele>
        <time>2012-10-05T20:23:02Z</time>
      </trkpt>
      <trkpt lat="59.9775362" lon="17.7389982">
        <ele>28.9769</ele>
        <time>2012-10-05T20:23:03Z</time>
      </trkpt>
      <trkpt lat="59.9775612" lon="17.7389912">
        <ele>29.4575</ele>
        <time>2012-10-05T20:23:04Z</time>
      </trkpt>
      <trkpt lat="59.9775804" lon="17.738986">
        <ele>29.9381</ele>
        <time>2012-10-05T20:23:05Z</time>
      </trkpt>
      <trkpt lat="59.9776" lon="17.7389891">
        <ele>31.3801</ele>
        <time>2012-10-05T20:23:06Z</time>
      </trkpt>
      <trkpt lat="59.9776198" lon="17.738992">
        <ele>31.8607</ele>
        <time>2012-10-05T20:23:07Z</time>
      </trkpt>
      <trkpt lat="59.9776443" lon="17.7389922">
        <ele>32.8223</ele>
        <time>2012-10-05T20:23:08Z</time>
      </trkpt>
      <trkpt lat="59.977666" lon="17.7389948">
        <ele>32.8223</ele>
        <time>2012-10-05T20:23:09Z</time>
      </trkpt>
      <trkpt lat="59.9776896" lon="17.7389951">
        <ele>33.7834</ele>
        <time>2012-10-05T20:23:10Z</time>
      </trkpt>
      <trkpt lat="59.977715" lon="17.739">
        <ele>34.2642</ele>
        <time>2012-10-05T20:23:11Z</time>
      </trkpt>
      <trkpt lat="59.9777429" lon="17.7390047">
        <ele>34.2642</ele>
        <time>2012-10-05T20:23:12Z</time>
      </trkpt>
      <trkpt lat="59.9777686" lon="17.7390103">
        <ele>33.7834</ele>
        <time>2012-10-05T20:23:13Z</time>
      </trkpt>
      <trkpt lat="59.9777916" lon="17.7390212">
        <ele>33.7834</ele>
        <time>2012-10-05T20:23:14Z</time>
      </trkpt>
      <trkpt lat="59.9778154" lon="17.7390285">
        <ele>33.7834</ele>
        <time>2012-10-05T20:23:15Z</time>
      </trkpt>
      <trkpt lat="59.9778406" lon="17.7390353">
        <ele>33.7834</ele>
        <time>2012-10-05T20:23:16Z</time>
      </trkpt>
      <trkpt lat="59.9778684" lon="17.739045">
        <ele>33.7834</ele>
        <time>2012-10-05T20:23:17Z</time>
      </trkpt>
      <trkpt lat="59.9778967" lon="17.7390575">
        <ele>34.7449</ele>
        <time>2012-10-05T20:23:18Z</time>
      </trkpt>
      <trkpt lat="59.9779247" lon="17.7390726">
        <ele>35.2255</ele>
        <time>2012-10-05T20:23:19Z</time>
      </trkpt>
      <trkpt lat="59.9779537" lon="17.7390885">
        <ele>35.7061</ele>
        <time>2012-10-05T20:23:20Z</time>
      </trkpt>
      <trkpt lat="59.9779747" lon="17.7390984">
        <ele>35.2255</ele>
        <time>2012-10-05T20:23:21Z</time>
      </trkpt>
      <trkpt lat="59.978" lon="17.7391104">
        <ele>35.7061</ele>
        <time>2012-10-05T20:23:22Z</time>
      </trkpt>
      <trkpt lat="59.9780273" lon="17.7391248">
        <ele>36.1868</ele>
        <time>2012-10-05T20:23:23Z</time>
      </trkpt>
      <trkpt lat="59.9780518" lon="17.7391357">
        <ele>36.6675</ele>
        <time>2012-10-05T20:23:24Z</time>
      </trkpt>
      <trkpt lat="59.9780742" lon="17.7391475">
        <ele>36.6675</ele>
        <time>2012-10-05T20:23:25Z</time>
      </trkpt>
      <trkpt lat="59.9780974" lon="17.7391657">
        <ele>37.6287</ele>
        <time>2012-10-05T20:23:26Z</time>
      </trkpt>
      <trkpt lat="59.978119" lon="17.739174">
        <ele>36.6675</ele>
        <time>2012-10-05T20:23:27Z</time>
      </trkpt>
      <trkpt lat="59.9781428" lon="17.7391837">
        <ele>36.6675</ele>
        <time>2012-10-05T20:23:28Z</time>
      </trkpt>
      <trkpt lat="59.9781611" lon="17.7391911">
        <ele>36.6675</ele>
        <time>2012-10-05T20:23:29Z</time>
      </trkpt>
      <trkpt lat="59.9781792" lon="17.7392025">
        <ele>37.1481</ele>
        <time>2012-10-05T20:23:30Z</time>
      </trkpt>
      <trkpt lat="59.9781996" lon="17.7392205">
        <ele>37.1481</ele>
        <time>2012-10-05T20:23:31Z</time>
      </trkpt>
      <trkpt lat="59.978222" lon="17.7392357">
        <ele>37.1481</ele>
        <time>2012-10-05T20:23:32Z</time>
      </trkpt>
      <trkpt lat="59.9782434" lon="17.7392562">
        <ele>37.1481</ele>
        <time>2012-10-05T20:23:33Z</time>
      </trkpt>
      <trkpt lat="59.9782668" lon="17.7392642">
        <ele>36.6675</ele>
        <time>2012-10-05T20:23:34Z</time>
      </trkpt>
      <trkpt lat="59.9782928" lon="17.7392661">
        <ele>36.1868</ele>
        <time>2012-10-05T20:23:35Z</time>
      </trkpt>
      <trkpt lat="59.9783145" lon="17.7392607">
        <ele>35.2255</ele>
        <time>2012-10-05T20:23:36Z</time>
      </trkpt>
      <trkpt lat="59.9783382" lon="17.7392553">
        <ele>34.7449</ele>
        <time>2012-10-05T20:23:37Z</time>
      </trkpt>
      <trkpt lat="59.978364" lon="17.7392485">
        <ele>34.2642</ele>
        <time>2012-10-05T20:23:38Z</time>
      </trkpt>
      <trkpt lat="59.9783897" lon="17.7392445">
        <ele>33.7834</ele>
        <time>2012-10-05T20:23:39Z</time>
      </trkpt>
      <trkpt lat="59.9784174" lon="17.7392467">
        <ele>33.3029</ele>
        <time>2012-10-05T20:23:40Z</time>
      </trkpt>
      <trkpt lat="59.9784399" lon="17.7392536">
        <ele>32.8223</ele>
        <time>2012-10-05T20:23:41Z</time>
      </trkpt>
      <trkpt lat="59.9784643" lon="17.7392688">
        <ele>32.3416</ele>
        <time>2012-10-05T20:23:42Z</time>
      </trkpt>
      <trkpt lat="59.9784915" lon="17.7392791">
        <ele>32.8223</ele>
        <time>2012-10-05T20:23:43Z</time>
      </trkpt>
      <trkpt lat="59.9785155" lon="17.7392824">
        <ele>32.3416</ele>
        <time>2012-10-05T20:23:44Z</time>
      </trkpt>
      <trkpt lat="59.9785365" lon="17.7392843">
        <ele>31.3801</ele>
        <time>2012-10-05T20:23:45Z</time>
      </trkpt>
      <trkpt lat="59.9785598" lon="17.7392933">
        <ele>30.8995</ele>
        <time>2012-10-05T20:23:46Z</time>
      </trkpt>
      <trkpt lat="59.9785807" lon="17.7392984">
        <ele>30.8995</ele>
        <time>2012-10-05T20:23:47Z</time>
      </trkpt>
      <trkpt lat="59.9785942" lon="17.7392973">
        <ele>29.9381</ele>
        <time>2012-10-05T20:23:48Z</time>
      </trkpt>
      <trkpt lat="59.9786214" lon="17.7392973">
        <ele>30.8995</ele>
        <time>2012-10-05T20:23:49Z</time>
      </trkpt>
      <trkpt lat="59.9786454" lon="17.7393051">
        <ele>30.4188</ele>
        <time>2012-10-05T20:23:50Z</time>
      </trkpt>
      <trkpt lat="59.9786656" lon="17.7393129">
        <ele>29.4575</ele>
        <time>2012-10-05T20:23:51Z</time>
      </trkpt>
      <trkpt lat="59.9786863" lon="17.7393226">
        <ele>28.9769</ele>
        <time>2012-10-05T20:23:52Z</time>
      </trkpt>
      <trkpt lat="59.9787199" lon="17.7393323">
        <ele>29.4575</ele>
        <time>2012-10-05T20:23:53Z</time>
      </trkpt>
      <trkpt lat="59.9787476" lon="17.7393386">
        <ele>28.4962</ele>
        <time>2012-10-05T20:23:54Z</time>
      </trkpt>
      <trkpt lat="59.9787749" lon="17.7393503">
        <ele>28.4962</ele>
        <time>2012-10-05T20:23:55Z</time>
      </trkpt>
      <trkpt lat="59.9788015" lon="17.7393553">
        <ele>28.0155</ele>
        <time>2012-10-05T20:23:56Z</time>
      </trkpt>
      <trkpt lat="59.9788241" lon="17.7393603">
        <ele>28.0155</ele>
        <time>2012-10-05T20:23:57Z</time>
      </trkpt>
      <trkpt lat="59.978848" lon="17.7393682">
        <ele>27.5349</ele>
        <time>2012-10-05T20:23:58Z</time>
      </trkpt>
      <trkpt lat="59.9788703" lon="17.7393914">
        <ele>27.0543</ele>
        <time>2012-10-05T20:23:59Z</time>
      </trkpt>
      <trkpt lat="59.9788874" lon="17.7394308">
        <ele>26.5736</ele>
        <time>2012-10-05T20:24:00Z</time>
      </trkpt>
      <trkpt lat="59.9788998" lon="17.739475">
        <ele>26.5736</ele>
        <time>2012-10-05T20:24:01Z</time>
      </trkpt>
      <trkpt lat="59.9789008" lon="17.7395175">
        <ele>26.0929</ele>
        <time>2012-10-05T20:24:02Z</time>
      </trkpt>
    </trkseg>
  </trk>
</gpx>